[[{"header":{"parameterUnit":"m.s-1","parameterCategory":1,"la1":30.6,"la2":29.2853,"lo1":-89.7004,"lo2":-87.6739,"dx":0.0162,"dy":0.0183,"nx":112,"ny":82,"refTime":"2023-01-11T06:00:00:Z","depth":0,"parameterNumber":2,"parameterNumberName":"U-component_of_WINDS"},"data":[0.0,0.0,0.0,0.0,0.0,0.0,0.0,0.0,0.0,0.0,0.0,0.0,0.0,0.0,0.0,0.0,0.0,0.0,0.0,0.0,0.0,0.0,0.0,0.0,0.0,0.0,0.0,0.0,0.0,0.0,0.0,0.0,0.0,0.0,0.0,0.0,0.0,0.0,0.0,0.0,0.0,0.0,0.0,0.0,0.0,0.0,0.0,0.0,0.0,0.0,0.0,0.0,0.0,0.0,0.0,0.0,0.0,0.0,0.0,0.0,0.0,0.0,0.0,0.0,0.0,0.0,0.0,0.0,0.0,0.0,0.0,0.0,0.0,0.0,0.0,0.0,0.0,0.0,0.0,0.0,0.0,0.0,0.0,0.0,0.0,0.0,0.0,0.0,0.0,0.0,-3.3998,-3.3626,-3.3558,-3.3931,-3.4776,-3.4742,-3.437,-3.3626,0.0,0.0,0.0,0.0,0.0,0.0,0.0,0.0,0.0,0.0,0.0,0.0,0.0,0.0,0.0,0.0,0.0,0.0,0.0,0.0,0.0,0.0,0.0,0.0,0.0,0.0,0.0,0.0,0.0,0.0,0.0,0.0,0.0,0.0,0.0,0.0,0.0,0.0,0.0,0.0,0.0,0.0,0.0,0.0,0.0,0.0,0.0,0.0,0.0,0.0,0.0,0.0,0.0,0.0,0.0,0.0,0.0,0.0,0.0,0.0,0.0,0.0,0.0,0.0,0.0,0.0,0.0,0.0,0.0,0.0,0.0,0.0,0.0,0.0,0.0,0.0,0.0,0.0,0.0,0.0,0.0,0.0,0.0,0.0,0.0,0.0,0.0,0.0,0.0,0.0,0.0,0.0,0.0,0.0,0.0,0.0,0.0,0.0,0.0,0.0,0.0,0.0,0.0,0.0,-3.3072,-3.4201,-3.4336,-3.4912,-3.6321,-3.5825,-3.5115,-3.437,0.0,0.0,0.0,0.0,0.0,0.0,0.0,0.0,0.0,0.0,0.0,0.0,0.0,0.0,0.0,0.0,0.0,0.0,0.0,0.0,0.0,0.0,0.0,0.0,0.0,0.0,0.0,0.0,0.0,0.0,0.0,0.0,0.0,0.0,0.0,0.0,0.0,0.0,0.0,0.0,0.0,0.0,0.0,0.0,0.0,0.0,0.0,0.0,0.0,0.0,0.0,0.0,0.0,0.0,0.0,0.0,0.0,0.0,0.0,0.0,0.0,0.0,0.0,0.0,0.0,0.0,0.0,0.0,0.0,0.0,0.0,0.0,0.0,0.0,0.0,0.0,0.0,0.0,0.0,0.0,0.0,0.0,0.0,0.0,0.0,0.0,0.0,0.0,0.0,0.0,0.0,0.0,0.0,0.0,0.0,0.0,0.0,0.0,0.0,0.0,0.0,0.0,0.0,-3.3512,-3.3924,-3.5031,-3.5116,-3.5386,-3.6133,-3.5822,-3.5318,-3.4539,-3.3795,0.0,0.0,0.0,0.0,0.0,0.0,0.0,0.0,0.0,0.0,0.0,0.0,0.0,0.0,0.0,0.0,0.0,0.0,0.0,0.0,0.0,0.0,0.0,0.0,0.0,0.0,0.0,0.0,0.0,0.0,0.0,0.0,0.0,0.0,0.0,0.0,0.0,0.0,0.0,0.0,0.0,0.0,0.0,0.0,0.0,0.0,0.0,0.0,0.0,0.0,0.0,0.0,0.0,0.0,0.0,0.0,0.0,0.0,0.0,0.0,0.0,0.0,0.0,0.0,0.0,0.0,0.0,0.0,0.0,0.0,0.0,0.0,0.0,0.0,0.0,0.0,0.0,0.0,0.0,0.0,0.0,0.0,0.0,0.0,0.0,0.0,0.0,0.0,0.0,0.0,0.0,0.0,0.0,0.0,0.0,0.0,0.0,0.0,0.0,0.0,0.0,0.0,-3.4175,-3.4569,-3.5316,-3.5247,-3.5343,-3.5906,-3.5304,-3.4789,-3.4499,-3.3535,0.0,0.0,0.0,0.0,0.0,0.0,0.0,0.0,0.0,0.0,0.0,0.0,0.0,0.0,0.0,0.0,0.0,0.0,0.0,0.0,0.0,0.0,0.0,0.0,0.0,0.0,0.0,0.0,0.0,0.0,0.0,0.0,0.0,0.0,0.0,0.0,0.0,0.0,0.0,0.0,0.0,0.0,0.0,0.0,0.0,0.0,0.0,0.0,0.0,0.0,0.0,0.0,0.0,0.0,0.0,0.0,0.0,0.0,0.0,0.0,0.0,0.0,0.0,0.0,0.0,0.0,0.0,0.0,0.0,0.0,0.0,0.0,0.0,0.0,0.0,0.0,0.0,0.0,0.0,0.0,0.0,0.0,0.0,0.0,0.0,0.0,0.0,0.0,0.0,0.0,0.0,0.0,0.0,0.0,0.0,0.0,0.0,0.0,0.0,0.0,0.0,0.0,-3.3145,-3.3867,-3.4447,-3.4034,-3.4503,-3.6442,-3.4272,-3.3283,-3.4445,-3.2628,0.0,0.0,0.0,0.0,0.0,0.0,0.0,0.0,0.0,0.0,0.0,0.0,0.0,0.0,0.0,0.0,0.0,0.0,0.0,0.0,0.0,0.0,0.0,0.0,0.0,0.0,0.0,0.0,0.0,0.0,0.0,0.0,0.0,0.0,0.0,0.0,0.0,0.0,0.0,0.0,0.0,0.0,0.0,0.0,0.0,0.0,0.0,0.0,0.0,0.0,0.0,0.0,0.0,0.0,0.0,0.0,0.0,0.0,0.0,0.0,0.0,0.0,0.0,0.0,0.0,0.0,0.0,0.0,0.0,0.0,0.0,0.0,0.0,0.0,0.0,0.0,0.0,0.0,0.0,0.0,0.0,0.0,0.0,0.0,0.0,0.0,0.0,0.0,0.0,0.0,0.0,0.0,0.0,0.0,0.0,0.0,0.0,0.0,0.0,0.0,0.0,0.0,-3.3867,-3.4357,0.0,-3.557,-3.557,-3.7351,-3.5629,-3.4668,-3.5155,0.0,0.0,0.0,0.0,0.0,0.0,0.0,0.0,0.0,0.0,0.0,0.0,0.0,0.0,0.0,0.0,0.0,0.0,0.0,0.0,0.0,0.0,0.0,0.0,0.0,0.0,0.0,0.0,0.0,0.0,0.0,0.0,0.0,0.0,0.0,0.0,0.0,0.0,0.0,0.0,0.0,0.0,0.0,0.0,0.0,0.0,0.0,0.0,0.0,0.0,0.0,0.0,0.0,0.0,0.0,0.0,0.0,0.0,0.0,0.0,0.0,0.0,0.0,0.0,0.0,0.0,0.0,0.0,0.0,0.0,0.0,0.0,0.0,0.0,0.0,0.0,0.0,0.0,0.0,0.0,0.0,0.0,0.0,0.0,0.0,0.0,0.0,0.0,0.0,0.0,0.0,0.0,0.0,0.0,0.0,0.0,0.0,0.0,0.0,0.0,0.0,0.0,-3.4584,-3.4071,-3.4462,0.0,-3.5838,-3.5658,-3.7436,-3.5985,-3.5183,-3.5569,0.0,0.0,0.0,0.0,0.0,0.0,0.0,0.0,0.0,0.0,0.0,0.0,0.0,0.0,0.0,0.0,0.0,0.0,0.0,0.0,0.0,0.0,0.0,0.0,0.0,0.0,0.0,0.0,0.0,0.0,0.0,0.0,0.0,0.0,0.0,0.0,0.0,0.0,0.0,0.0,0.0,0.0,0.0,0.0,0.0,0.0,0.0,0.0,0.0,0.0,0.0,0.0,0.0,0.0,0.0,0.0,0.0,0.0,0.0,0.0,0.0,0.0,0.0,0.0,0.0,0.0,0.0,0.0,0.0,0.0,0.0,0.0,0.0,0.0,0.0,0.0,0.0,0.0,0.0,0.0,0.0,0.0,0.0,0.0,0.0,0.0,0.0,0.0,0.0,0.0,0.0,0.0,0.0,0.0,0.0,0.0,0.0,0.0,0.0,0.0,0.0,0.0,-3.3244,-3.3437,-3.4024,-3.5372,-3.4324,-3.4364,-3.6476,-3.4858,-3.4279,0.0,0.0,0.0,0.0,0.0,0.0,0.0,0.0,0.0,0.0,0.0,0.0,0.0,0.0,0.0,0.0,0.0,0.0,0.0,0.0,0.0,0.0,0.0,0.0,0.0,0.0,0.0,0.0,0.0,0.0,0.0,0.0,0.0,0.0,0.0,0.0,0.0,0.0,0.0,0.0,0.0,0.0,0.0,0.0,0.0,0.0,0.0,0.0,0.0,0.0,0.0,0.0,0.0,0.0,0.0,0.0,0.0,0.0,0.0,0.0,0.0,0.0,0.0,0.0,0.0,0.0,0.0,0.0,0.0,0.0,0.0,0.0,0.0,0.0,0.0,0.0,0.0,0.0,0.0,0.0,0.0,0.0,0.0,0.0,0.0,0.0,0.0,0.0,0.0,0.0,0.0,0.0,0.0,0.0,0.0,0.0,0.0,0.0,0.0,0.0,0.0,0.0,0.0,-3.3425,-3.3914,-3.514,-3.763,-3.6587,-3.6619,-3.8775,-3.7501,-3.6722,-3.7065,0.0,0.0,0.0,0.0,0.0,0.0,0.0,0.0,0.0,0.0,0.0,0.0,0.0,0.0,0.0,0.0,0.0,0.0,0.0,0.0,0.0,0.0,0.0,0.0,0.0,0.0,0.0,0.0,0.0,0.0,0.0,0.0,0.0,0.0,0.0,0.0,0.0,0.0,0.0,0.0,0.0,0.0,0.0,0.0,0.0,0.0,0.0,0.0,0.0,0.0,0.0,0.0,0.0,0.0,0.0,0.0,0.0,0.0,0.0,0.0,0.0,0.0,0.0,0.0,0.0,0.0,0.0,0.0,0.0,0.0,0.0,0.0,0.0,0.0,0.0,0.0,0.0,0.0,0.0,0.0,0.0,0.0,0.0,0.0,0.0,0.0,0.0,0.0,0.0,0.0,0.0,0.0,0.0,0.0,0.0,0.0,0.0,0.0,0.0,0.0,0.0,0.0,-3.4148,-3.4682,-3.5767,-3.8044,-3.7053,-3.7231,-3.9693,-3.8897,-3.8363,-3.8631,0.0,0.0,0.0,0.0,0.0,0.0,0.0,0.0,0.0,0.0,0.0,0.0,0.0,0.0,0.0,0.0,0.0,0.0,0.0,0.0,0.0,0.0,0.0,0.0,0.0,0.0,0.0,0.0,0.0,0.0,0.0,0.0,0.0,0.0,0.0,0.0,0.0,0.0,0.0,0.0,0.0,0.0,0.0,0.0,0.0,0.0,0.0,0.0,0.0,0.0,0.0,0.0,0.0,0.0,0.0,0.0,0.0,0.0,0.0,0.0,0.0,0.0,0.0,0.0,0.0,0.0,0.0,0.0,0.0,0.0,0.0,0.0,0.0,0.0,0.0,0.0,0.0,0.0,0.0,0.0,0.0,0.0,0.0,0.0,0.0,0.0,0.0,0.0,0.0,0.0,0.0,0.0,0.0,0.0,0.0,0.0,0.0,0.0,0.0,0.0,0.0,0.0,-3.497,-3.5392,-3.6031,-3.7357,-3.6397,-3.6839,-3.9652,-3.9383,-3.9438,-4.0137,0.0,0.0,0.0,0.0,0.0,0.0,0.0,0.0,0.0,0.0,0.0,0.0,0.0,0.0,0.0,0.0,0.0,0.0,0.0,0.0,0.0,0.0,0.0,0.0,0.0,0.0,0.0,0.0,0.0,0.0,0.0,0.0,0.0,0.0,0.0,0.0,0.0,0.0,0.0,0.0,0.0,0.0,0.0,0.0,0.0,0.0,0.0,0.0,0.0,0.0,0.0,0.0,0.0,0.0,0.0,0.0,0.0,0.0,0.0,0.0,-3.9211,0.0,0.0,0.0,0.0,0.0,0.0,0.0,0.0,0.0,0.0,0.0,0.0,0.0,0.0,0.0,0.0,0.0,0.0,0.0,0.0,0.0,0.0,0.0,0.0,0.0,0.0,0.0,0.0,0.0,0.0,0.0,0.0,0.0,0.0,0.0,0.0,0.0,0.0,0.0,0.0,0.0,-3.3819,-3.4836,-3.623,-3.8129,-3.7612,-3.7872,-3.9685,-4.0251,-4.0615,-4.0795,-3.946,0.0,0.0,0.0,0.0,0.0,0.0,0.0,0.0,0.0,0.0,0.0,0.0,0.0,0.0,0.0,0.0,0.0,0.0,0.0,0.0,0.0,0.0,0.0,0.0,0.0,0.0,0.0,0.0,0.0,0.0,0.0,0.0,0.0,0.0,0.0,0.0,0.0,0.0,0.0,0.0,0.0,0.0,0.0,0.0,0.0,0.0,0.0,0.0,0.0,0.0,0.0,0.0,0.0,0.0,0.0,0.0,0.0,0.0,0.0,0.0,-3.8812,0.0,0.0,0.0,0.0,0.0,0.0,0.0,0.0,0.0,0.0,0.0,0.0,0.0,0.0,0.0,0.0,0.0,0.0,0.0,0.0,0.0,0.0,0.0,0.0,0.0,0.0,0.0,0.0,0.0,0.0,0.0,0.0,0.0,0.0,0.0,0.0,0.0,0.0,0.0,0.0,-3.5704,-3.6178,-3.7064,-3.88,-3.8077,-3.826,-4.0099,-4.0324,-4.0535,-4.0931,-3.9924,0.0,0.0,0.0,0.0,0.0,0.0,0.0,0.0,0.0,0.0,0.0,0.0,0.0,0.0,0.0,0.0,0.0,0.0,0.0,0.0,0.0,0.0,0.0,0.0,0.0,0.0,0.0,0.0,0.0,0.0,0.0,0.0,0.0,0.0,0.0,0.0,0.0,0.0,0.0,0.0,0.0,0.0,0.0,0.0,0.0,0.0,0.0,0.0,0.0,0.0,0.0,0.0,0.0,-4.2009,-4.1872,-4.1872,-4.1872,-4.0926,-3.934,-3.9643,-4.0004,-4.0172,-3.8904,0.0,0.0,0.0,0.0,0.0,0.0,0.0,0.0,0.0,0.0,0.0,0.0,0.0,0.0,0.0,0.0,0.0,0.0,0.0,0.0,0.0,0.0,0.0,0.0,-3.893,-3.8264,-3.4628,0.0,0.0,0.0,0.0,0.0,0.0,0.0,0.0,0.0,0.0,0.0,-3.7943,-3.7734,-3.7913,-3.9254,-3.8302,-3.8413,-4.0529,-4.0424,-4.0636,-4.1436,-4.0824,-4.0017,0.0,0.0,0.0,0.0,0.0,0.0,0.0,0.0,0.0,0.0,0.0,0.0,0.0,0.0,0.0,0.0,0.0,0.0,0.0,0.0,0.0,0.0,0.0,0.0,0.0,0.0,0.0,0.0,0.0,0.0,0.0,0.0,-4.0347,-3.9956,0.0,0.0,0.0,0.0,0.0,0.0,0.0,0.0,0.0,0.0,0.0,0.0,0.0,-4.1654,-4.2581,-4.2091,-4.2562,-4.4049,-4.2826,-4.221,-4.221,-4.221,-4.2056,-4.18,-4.1206,0.0,-3.8925,-3.8651,0.0,0.0,0.0,0.0,0.0,0.0,0.0,0.0,0.0,0.0,0.0,0.0,0.0,0.0,0.0,0.0,0.0,0.0,0.0,0.0,0.0,0.0,-3.7685,-3.8434,-3.7779,-3.6848,0.0,-3.5677,-3.5085,-3.4364,-3.2794,0.0,0.0,0.0,0.0,0.0,0.0,0.0,-3.7494,-3.7464,-3.7913,-3.9254,-3.8721,-3.8892,-4.0488,-4.1869,-4.2977,-4.3802,-4.3267,-4.3462,-4.4611,-4.1128,0.0,0.0,0.0,0.0,0.0,0.0,0.0,0.0,0.0,0.0,0.0,0.0,0.0,0.0,0.0,0.0,0.0,0.0,0.0,0.0,0.0,0.0,0.0,0.0,0.0,0.0,0.0,0.0,0.0,-3.8721,-3.9641,-3.9361,-3.9548,-3.9399,0.0,0.0,0.0,0.0,0.0,0.0,0.0,0.0,0.0,-4.0422,-4.1078,-4.1792,-4.2575,-4.2286,-4.2501,-4.3228,-4.2581,-4.2286,-4.2286,-4.2286,-4.2286,-4.2286,-4.1948,-4.1418,-4.0671,-3.9802,-3.9836,-4.0339,0.0,0.0,0.0,0.0,-3.8396,-3.8381,-3.8221,-3.8984,-3.9691,-3.8216,0.0,0.0,0.0,0.0,0.0,0.0,0.0,-3.6742,0.0,0.0,-3.7797,-3.8804,-3.8614,-3.8179,-3.8132,-3.765,-3.6725,0.0,-3.4651,-3.4442,-3.4739,0.0,0.0,0.0,0.0,-3.8506,-3.8506,-3.8871,-3.917,-3.9409,-3.9607,-3.9937,-4.0622,-4.1687,-4.2673,-4.3557,-4.3297,-4.3267,-4.3659,-4.2115,-4.0991,0.0,0.0,0.0,0.0,0.0,0.0,0.0,0.0,0.0,0.0,0.0,0.0,0.0,0.0,0.0,0.0,0.0,0.0,0.0,0.0,0.0,0.0,0.0,0.0,0.0,0.0,0.0,0.0,-3.841,-3.914,-3.9512,-3.9715,-3.9546,0.0,0.0,0.0,0.0,0.0,0.0,-4.0924,-4.0992,-4.1116,-4.1467,-4.1677,-4.2049,-4.2591,-4.2794,-4.2888,-4.2888,-4.2888,-4.2888,-4.2888,-4.2888,-4.2888,-4.2888,-4.2888,-4.2888,-4.276,-4.1271,-4.0772,-4.0874,-4.0121,-3.9614,-3.9309,-3.9309,-3.9185,-3.8958,-3.8514,-3.8997,-3.9568,-3.8456,-3.9263,-4.046,-3.892,0.0,0.0,0.0,0.0,-3.6901,-3.7575,-3.7573,-3.7764,-3.9074,-3.9134,-3.896,-3.911,-3.8751,-3.7973,0.0,-3.6507,-3.6866,-3.7315,0.0,0.0,0.0,0.0,-3.9582,-3.9403,-3.9858,-3.9948,-3.9433,-4.0142,-4.079,-4.1186,-4.2081,-4.3068,-4.417,-4.4157,-4.3968,-4.3616,-4.3519,-4.2591,-4.0696,0.0,0.0,0.0,0.0,0.0,0.0,0.0,0.0,0.0,0.0,0.0,0.0,0.0,0.0,0.0,0.0,0.0,0.0,0.0,0.0,0.0,0.0,0.0,0.0,0.0,0.0,0.0,0.0,0.0,-4.0933,-4.1711,0.0,0.0,0.0,0.0,-4.0095,-4.0061,-4.0409,-4.1154,-4.1188,-4.15,-4.2219,-4.2929,-4.3308,-4.3341,-4.4079,-4.4479,-4.4479,-4.4479,-4.4479,-4.4479,-4.4479,-4.4479,-4.4479,-4.4479,-4.4479,-4.4378,-4.2794,-4.2591,-4.3139,-4.2422,-4.2523,-4.3105,-4.3105,-4.2629,-4.2067,-4.273,-4.2476,-4.1821,-4.1757,-4.227,-4.2653,-4.1062,-4.0608,0.0,0.0,-3.8485,-3.7533,-3.8192,-3.7888,-3.7764,-3.9074,-3.8452,-3.7674,-3.8302,-3.8422,-3.8362,0.0,-3.7764,-3.7375,-3.7404,0.0,-3.908,-3.8512,-3.9529,-4.0127,-3.9463,-3.9439,-3.9469,-3.9373,-4.0014,-4.1025,-4.2581,-4.4155,-4.5687,-4.7276,-4.7521,-4.7619,-4.7612,-4.5621,-4.4772,-4.5341,-4.1725,0.0,0.0,0.0,0.0,0.0,0.0,0.0,0.0,0.0,0.0,0.0,0.0,0.0,0.0,0.0,0.0,0.0,0.0,0.0,0.0,0.0,0.0,0.0,0.0,0.0,0.0,0.0,0.0,-4.1068,-4.1441,0.0,-4.1238,-4.1204,-4.1305,-4.1474,-4.1948,-4.2557,-4.3335,-4.3369,-4.3504,-4.3768,-4.4012,-4.4181,-4.4181,-4.4479,-4.4615,-4.4615,-4.4615,-4.4852,-4.5297,-4.5297,-4.5568,-4.6007,-4.6007,-4.6007,-4.594,-4.5399,-4.4485,-4.3308,-4.2591,-4.2455,-4.2638,-4.205,-4.165,-4.1307,-4.0543,-4.0419,-4.0577,-4.0478,-4.0262,-4.0033,-3.9894,-3.9884,-3.9733,-3.9066,-3.8757,-3.8751,-3.899,-3.92,-3.9559,-4.0457,-4.0307,-4.0038,-4.0277,-3.9978,-3.9679,-3.9679,-3.914,-3.8841,-3.926,-3.9379,-3.9469,-3.9649,-4.0098,-4.0157,-3.9499,-3.9798,-4.0263,-4.0878,-4.2066,-4.3487,-4.5107,-4.6578,-4.7934,-4.9152,-4.8692,-4.8487,-4.8615,-4.6873,-4.5842,-4.5674,-4.3232,-4.2005,0.0,0.0,0.0,0.0,0.0,0.0,0.0,0.0,0.0,0.0,0.0,0.0,0.0,0.0,0.0,0.0,0.0,0.0,0.0,0.0,0.0,0.0,0.0,0.0,0.0,0.0,-4.1128,-4.1847,-4.2185,-4.2354,-4.2354,-4.2354,-4.2557,-4.3031,-4.3538,-4.4045,-4.4581,-4.4615,-4.4615,-4.4615,-4.4615,-4.4615,-4.4615,-4.4852,-4.4959,-4.4959,-4.5224,-4.5602,-4.6075,-4.6075,-4.6481,-4.7158,-4.6921,-4.6921,-4.7128,-4.6555,-4.561,-4.4519,-4.4012,-4.3608,-4.3265,-4.2712,-4.2294,-4.1808,-4.0106,-3.9902,-4.0333,-4.0221,-3.9844,-3.9499,-3.9948,-4.0068,-3.9978,-3.9529,-3.9738,-4.0068,-4.0068,-4.0397,-4.0846,-4.1265,-4.1422,-4.1422,-4.1422,-4.1025,-4.0726,-4.0726,-4.0008,-3.9499,-3.9679,-3.9559,-3.9649,-4.0307,-4.048,-4.048,-4.051,-4.1199,-4.1944,-4.251,-4.4206,-4.5855,-4.721,-4.8628,-4.9726,-5.0409,-4.9793,-4.9526,-4.9731,-4.8395,-4.7499,-4.7162,-4.4753,-4.3009,-4.202,0.0,0.0,0.0,0.0,0.0,0.0,0.0,0.0,0.0,0.0,0.0,0.0,0.0,0.0,0.0,0.0,0.0,0.0,0.0,0.0,0.0,0.0,0.0,-4.1136,-4.188,-4.2591,-4.3314,-4.4113,-4.4587,-4.4559,-4.4587,-4.4615,-4.4615,-4.4615,-4.4615,-4.4615,-4.4615,-4.4615,-4.4615,-4.4615,-4.4615,-4.4649,-4.5331,-4.5737,-4.5805,-4.6481,-4.6853,-4.6887,-4.6887,-4.7327,-4.7939,-4.7259,-4.7297,-4.7815,-4.624,-4.6034,-4.6768,-4.6731,-4.6179,-4.5399,-4.5336,-4.4756,-4.3754,-4.1997,-4.1422,-4.1422,-4.1422,-4.1422,-4.1422,-4.1422,-4.1422,-4.1422,-4.1422,-4.1422,-4.1422,-4.1452,-4.1452,-4.1452,-4.1444,-4.1482,-4.1482,-4.1482,-4.1414,-4.1452,-4.1452,-4.0367,-3.926,-3.8601,-3.902,-3.9679,-4.0374,-4.0624,0.0,-4.2545,-4.3579,-4.4193,-4.4258,-4.6185,-4.7864,-4.8827,-5.0182,-5.109,-5.1254,-5.0991,-5.0955,-5.122,-5.0258,-4.9792,-4.9972,-4.6225,-4.2739,-3.9535,0.0,0.0,0.0,0.0,0.0,0.0,0.0,0.0,0.0,0.0,0.0,0.0,0.0,0.0,0.0,0.0,0.0,0.0,0.0,0.0,0.0,0.0,-4.1745,-4.1982,-4.2625,-4.3149,-4.3311,-4.4107,-4.4355,-4.371,-4.4241,-4.4615,-4.4615,-4.4615,-4.4615,-4.4615,-4.4615,-4.4615,-4.4615,-4.4615,-4.4886,-4.5399,-4.5602,-4.6244,-4.7327,-4.7496,-4.8173,-4.9187,-4.9187,-4.9593,-5.0272,-5.0101,-4.9684,-4.9227,-4.9489,-4.8493,-4.6584,-4.5301,-4.5048,-4.5241,-4.3924,-4.2878,-4.2071,-4.1543,-4.1422,-4.1422,-4.1422,-4.1422,-4.1422,-4.1422,-4.1422,-4.1422,-4.1422,-4.1422,-4.1542,-4.2021,-4.2141,-4.2261,-4.2671,-4.2791,-4.2791,-4.2791,-4.2432,-4.2141,-4.2141,-4.1414,-4.0786,-4.0606,-4.0726,-4.1136,-4.2027,-4.2195,0.0,-4.274,-4.3457,-4.439,-4.56,-4.763,-4.9606,-5.1229,-5.2707,-5.3381,-5.2875,-5.227,-5.19,-5.1962,-5.0524,-4.8913,-4.716,-4.6609,-4.5092,0.0,0.0,0.0,0.0,0.0,0.0,0.0,0.0,0.0,0.0,0.0,0.0,0.0,0.0,0.0,0.0,0.0,0.0,0.0,0.0,0.0,0.0,-4.2332,-4.225,-4.2175,-4.3183,-4.3618,-4.286,-4.3499,-4.386,-4.3353,-4.3739,-4.4212,-4.4587,-4.4615,-4.4615,-4.4615,-4.4615,-4.4615,-4.4615,-4.4919,-4.5263,-4.5703,-4.6312,-4.7225,-4.8376,-4.868,-4.9424,-5.0574,-5.0574,-5.098,-5.1657,-5.1352,-5.0794,-5.0175,-5.0493,-4.9167,0.0,0.0,0.0,0.0,0.0,-4.2969,-4.2192,-4.2192,-4.2192,-4.2192,-4.2192,-4.2192,-4.2192,-4.2192,-4.2192,-4.2192,-4.2192,-4.2192,-4.2282,-4.2671,-4.2761,-4.288,-4.32,-4.329,-4.329,-4.329,-4.303,-4.2761,-4.2761,-4.2671,0.0,-4.2611,-4.1923,-4.1791,-4.284,-4.31,-4.3479,-4.431,-4.5488,-4.6657,-4.7605,-4.9788,-5.1612,-5.2707,-5.389,0.0,0.0,0.0,-5.2601,-5.2601,-5.1347,0.0,0.0,0.0,-4.5341,-4.2724,-4.2884,0.0,0.0,-3.9429,-3.9395,0.0,0.0,0.0,0.0,0.0,0.0,0.0,0.0,0.0,0.0,0.0,0.0,0.0,0.0,0.0,0.0,-4.1736,-4.2146,-4.1981,-4.3358,-4.3839,-4.2205,-4.2676,-4.3139,-4.3139,-4.3229,-4.3621,-4.4384,-4.4525,-4.4615,-4.4615,0.0,0.0,0.0,0.0,-4.5737,-4.5838,-4.7196,-4.8308,-4.912,-4.9796,-5.0473,-5.1185,-5.1185,-5.1555,-5.2131,-5.1488,-5.0995,-5.0636,-5.0149,-4.8868,-4.7297,-4.7979,-4.7101,-4.5357,-4.484,-4.4082,-4.329,-4.329,0.0,0.0,-4.329,-4.329,-4.329,-4.329,-4.329,-4.329,-4.329,-4.329,-4.329,-4.329,-4.329,-4.329,-4.329,-4.329,-4.329,-4.329,-4.329,-4.329,-4.329,-4.3828,-4.4317,-4.4317,-4.294,-4.2261,-4.3478,-4.4006,-4.4825,-4.6578,-4.857,-4.9809,-4.9844,-5.1997,0.0,-5.3518,-5.416,-5.4296,-5.3551,-5.3228,-5.2954,-5.2733,-5.2068,-5.0978,-4.9341,-4.7074,-4.4596,-4.1912,-4.119,-4.0516,-3.9888,-4.1354,-4.1782,0.0,0.0,0.0,0.0,0.0,0.0,0.0,0.0,0.0,0.0,0.0,0.0,0.0,0.0,0.0,-4.2621,-4.2302,-4.1981,-4.1778,-4.2648,-4.2976,-4.2078,-4.2173,-4.2269,-4.2269,-4.2894,-4.3383,-4.3532,-4.4179,-4.4615,-4.4615,-4.4615,-4.4615,-4.4615,-4.5331,-4.6007,-4.6583,-4.7462,-4.8578,-4.9864,0.0,0.0,-5.1185,-5.1185,-5.1285,-5.142,-5.1285,-5.0727,-4.9977,-5.066,-4.9488,-4.7161,-4.6003,-4.4847,-4.3756,-4.3636,-4.3488,-4.329,-4.329,-4.329,-4.329,-4.329,-4.329,-4.329,-4.329,-4.329,0.0,-4.329,-4.329,-4.329,-4.329,-4.329,-4.329,-4.329,-4.329,-4.329,-4.329,-4.329,-4.329,-4.329,-4.3828,-4.4317,-4.4317,-4.4436,-4.487,-4.5892,-4.6805,-4.7543,-4.7925,-4.9531,-5.0603,-5.0674,-5.2137,-5.3225,-5.3484,-5.416,-5.4296,-5.3551,-5.3449,-5.2651,-5.0972,-5.0767,-4.9853,-4.8176,-4.6875,-4.5809,-4.5025,-4.4004,-4.317,-4.2482,-4.0786,-4.0217,0.0,0.0,0.0,0.0,0.0,0.0,0.0,0.0,0.0,0.0,0.0,-4.5178,-4.3941,0.0,-4.3119,-4.1914,-4.206,-4.215,-4.1631,-4.231,-4.2448,-4.1314,-4.1594,-4.1706,-4.1362,-4.2141,-4.28,-4.3292,-4.4093,-4.4615,-4.4615,-4.4615,-4.4615,-4.4615,-4.5669,-4.6413,-4.6786,-4.7902,-4.9018,-5.0101,-5.0101,-5.0473,-5.1185,-5.1185,-5.1185,-5.1185,-5.1185,-5.0626,-4.9678,-4.935,-4.8715,-4.7804,-4.6171,-4.4893,-4.409,-4.4593,-4.4441,-4.4043,-4.4043,-4.3732,-4.329,-4.329,-4.329,-4.329,-4.329,-4.329,-4.329,-4.329,-4.329,-4.329,-4.329,-4.329,-4.329,-4.329,-4.329,-4.329,-4.329,-4.329,-4.329,-4.329,-4.4548,-4.5584,-4.5584,-4.685,-4.7694,-4.7314,-4.8155,-4.8962,-4.9309,-5.0518,-5.1361,-5.1397,-5.2518,-5.3306,-5.3484,-5.3822,-5.389,-5.3518,-5.3518,-5.3041,-5.199,-5.093,-5.0006,-4.9111,-4.6956,-4.5593,-4.5096,-4.3907,-4.3,-4.2312,-4.1025,-4.0935,0.0,0.0,0.0,0.0,0.0,0.0,0.0,0.0,-4.649,-4.7049,-4.7102,-4.6441,-4.4225,-4.4002,-4.3466,-4.1317,-4.19,-4.2401,-4.1678,-4.221,-4.2181,-4.0958,-4.1176,-4.1282,-4.0938,-4.1557,-4.23,-4.2986,-4.4006,-4.4615,-4.4615,-4.4615,-4.4615,-4.4615,-4.5872,-4.6718,-4.6989,-4.8206,-4.9221,-5.0101,-4.9932,-5.0202,-5.0745,-5.0745,-5.0745,-5.0745,-5.0745,-5.0323,-4.9455,-4.8109,-4.7916,-4.8395,-4.723,-4.617,-4.541,-4.5961,-4.5597,-4.4812,-4.4812,-4.4159,-4.329,-4.329,-4.3448,-4.3536,-4.3369,-4.3448,-4.3566,-4.3369,-4.3448,-4.3576,-4.3576,-4.3732,-4.3858,-4.3858,-4.3858,-4.384,-4.3765,-4.3786,-4.3816,-4.3976,-4.5629,-4.7169,-4.7333,-4.9222,-5.0167,-4.8545,-4.9228,-5.0064,-5.0639,-5.1594,-5.2205,-5.2205,-5.2973,-5.3518,-5.3518,-5.3518,-5.3518,-5.3518,-5.3518,-5.3416,-5.3179,-5.1594,-5.0524,-5.0205,-4.7413,-4.5544,-4.4609,-4.3478,-4.256,-4.1773,-4.1773,-4.2252,-4.3646,-4.3842,0.0,-4.4581,-4.55,-4.665,0.0,0.0,-4.8599,-4.8431,-4.8241,-4.7769,-4.6514,-4.5214,-4.3988,-4.312,-4.2659,-4.2406,-4.2291,-4.2368,-4.2376,-4.2201,-4.1228,-4.0813,-4.1546,-4.1841,-4.2013,-4.2141,-4.368,-4.4615,-4.4615,-4.4615,-4.4615,-4.4615,-4.5399,-4.6447,-4.7736,-4.7939,-4.8714,-5.0067,-4.9424,-4.9187,-4.9255,-4.9255,-4.9255,-4.9255,-4.9255,-4.9193,-4.9066,-4.887,-4.8391,-4.777,-4.8418,-4.8129,-4.7205,-4.6454,-4.5597,-4.4812,-4.4812,-4.4159,-4.329,-4.329,-4.3888,-4.4472,-4.3566,-4.3927,-4.4434,-4.3536,-4.3966,-4.4624,-4.4624,-4.5232,-4.5889,-4.5889,-4.5889,-4.5796,-4.5487,-4.5418,-4.5642,-4.6338,-4.7159,-4.798,-4.8986,-5.0566,-5.1345,-5.0301,-5.095,-5.1641,-5.1707,-5.2662,-5.3314,-5.3314,-5.3416,-5.3518,-5.3518,-5.3518,-5.3518,-5.3518,-5.3518,-5.3076,-5.2101,-5.1849,-5.1047,-4.9512,-4.8786,-4.7503,-4.5727,-4.5193,-4.4317,-4.308,-4.308,-4.288,-4.5432,0.0,0.0,0.0,-4.7631,-4.8274,-4.9018,-4.9763,-5.0244,-5.0157,-5.0059,-4.9471,-4.7913,-4.7087,-4.6152,0.0,-4.3928,-4.3509,-4.3509,-4.3698,-4.3579,-4.2989,-4.2576,-4.1992,-4.1049,-4.1604,-4.1981,-4.1981,-4.3986,-4.5229,-4.5229,-4.5635,-4.5872,-4.5872,-4.6616,-4.7293,-4.7872,-4.8748,-4.9255,-4.9458,-4.9593,-4.9424,-4.9018,-4.9018,-4.9018,-4.9018,-4.9018,-4.9018,-4.9018,-4.9018,-4.8767,-4.845,-4.8861,-4.8767,-4.8353,-4.7966,-4.7239,-4.6451,-4.6451,-4.5782,-4.5011,-4.5011,-4.5269,-4.5525,-4.5122,-4.5306,-4.5525,-4.5122,-4.5306,-4.5728,-4.6139,-4.6561,-4.6945,-4.7365,-4.7461,-4.7449,-4.7331,-4.7283,-4.7346,-4.77,-4.8754,-4.9757,-5.0196,-5.1709,-5.2696,-5.2274,-5.2557,-5.2835,-5.2835,-5.3213,-5.3518,-5.3518,-5.3518,-5.3518,-5.3518,-5.3518,-5.3518,-5.3518,-5.3518,-5.3314,-5.287,-5.2241,-5.1576,-5.0847,-4.8787,-4.7455,-4.699,-4.5052,-4.4077,-4.3858,-4.3469,-4.314,-4.665,0.0,0.0,-4.8748,-4.9323,-4.9763,-5.027,-5.098,-5.139,-5.116,-5.1229,-5.0857,-4.9195,-4.8636,-4.7886,-4.6285,-4.521,-4.4586,-4.4586,-4.4869,-4.4887,-4.4364,-4.4569,-4.4039,-4.2199,-4.2331,-4.2591,-4.2654,-4.4767,-4.6007,-4.6007,-4.6515,-4.6786,-4.6786,-4.7327,-4.78,-4.8206,-4.9052,-4.9526,-4.9627,-4.9729,-4.9627,-4.9289,-4.9086,-4.9018,-4.9018,-4.9018,-4.9018,-4.9018,-4.9018,-4.9018,-4.9018,-4.9018,-4.9018,-4.9018,-4.9018,-4.8418,-4.7572,-4.7572,-4.7002,-4.6208,-4.6208,-4.6384,-4.6523,-4.6279,-4.6384,-4.6555,-4.6535,-4.6673,-4.7077,-4.7823,-4.8194,-4.8535,-4.9023,-4.9189,-4.9151,-4.9058,-4.9054,-4.9119,-4.9345,-5.0344,-5.1272,-5.1552,-5.2672,-5.3518,-5.3518,-5.3518,-5.3518,-5.3518,-5.3518,-5.3518,-5.3518,-5.3518,-5.3518,-5.3518,-5.3518,-5.3518,-5.3518,-5.3518,-5.3518,-5.3518,-5.2765,-5.2106,-5.1661,-4.9427,-4.7956,-4.73,-4.5248,-4.4178,-4.3977,-4.3529,-4.329,0.0,0.0,-4.8951,-4.8984,-5.0101,-5.115,-5.1151,-5.1758,-5.1967,-5.1012,-5.1397,-5.1565,-5.0524,-4.9473,-4.8562,-4.784,-4.6336,-4.5274,-4.5274,-4.5581,-4.6098,-4.671,-4.7067,-4.6984,0.0,-4.4861,-4.4138,-4.4315,-4.5835,-4.6752,-4.6752,-4.6786,-4.6786,-4.6786,-4.6819,-4.753,-4.8951,-4.8308,-4.9021,-5.115,-4.9729,-4.939,-5.0033,-4.9323,-4.9018,-4.9018,-4.9018,-4.9018,-4.9018,-4.9018,-4.9018,-4.9018,-4.9018,-4.9018,-4.9018,-4.9018,-4.8418,-4.7572,-4.7572,-4.7002,-4.6208,-4.6208,-4.6799,-4.7373,-4.6454,-4.6833,-4.7537,-4.7326,-4.7939,-4.879,-4.9516,-5.0393,-5.1086,-5.112,-5.112,-5.1026,-5.0777,-5.073,-5.0928,-5.1619,-5.1819,-5.2208,-5.3247,-5.345,-5.3518,-5.3518,-5.3518,-5.3518,-5.3518,-5.3518,-5.3518,-5.3518,-5.3518,-5.3518,-5.3518,-5.3518,-5.3518,-5.3518,-5.3518,-5.3518,-5.3518,-5.345,-5.2672,-5.094,-5.1457,-4.9863,-4.5981,-4.6532,-4.5607,-4.3319,-4.329,-4.329,0.0,0.0,-4.9221,-5.0236,-5.1217,-5.1928,-5.1928,-5.2536,-5.2977,-5.2639,-5.2771,-5.2627,-5.1594,-5.055,-4.9521,-4.8612,-4.7034,-4.6214,-4.6865,-4.7247,-4.7585,-4.7882,-4.8533,0.0,0.0,0.0,0.0,-4.5133,-4.6636,-4.753,-4.753,-4.8003,-4.8274,-4.8274,-4.8274,-4.8511,-4.9018,-4.9255,-4.9492,-4.9729,-4.9255,-4.939,-5.0067,-4.9323,-4.9018,-4.9018,-4.9018,-4.9018,-4.9018,-4.9018,-4.9018,-4.9018,-4.9018,-4.9018,-4.9018,-4.9018,-4.8798,-4.8545,-4.8545,-4.8321,-4.8064,-4.8064,-4.8257,-4.8482,-4.8161,-4.8623,-4.9219,-4.916,-4.9725,-5.0524,-5.1262,-5.1663,-5.2063,-5.2604,-5.2739,-5.2707,-5.2605,-5.2604,-5.2637,-5.2905,-5.2939,-5.3076,-5.3416,-5.3518,-5.3518,-5.3518,-5.3518,-5.3518,-5.3518,-5.3518,-5.3518,-5.3518,-5.3518,-5.3518,-5.3518,-5.3518,-5.3518,-5.3518,-5.3518,-5.3518,-5.3518,-5.3518,-5.3213,-5.2639,-5.1717,-5.0782,-4.99,-4.7883,-4.6461,-4.5677,-4.4529,-4.3708,0.0,-5.0168,-5.1183,-5.186,-5.257,-5.3044,-5.2807,-5.3145,-5.3518,-5.3518,-5.3518,-5.3314,-5.2592,-5.1336,-5.0281,-4.9938,-4.7907,-4.6857,-4.8488,-4.8739,-4.8918,-4.958,-5.0537,-5.0525,0.0,0.0,0.0,-4.6462,-4.7561,-4.8308,-4.8308,-4.8748,-4.9018,-4.9018,-4.9018,-4.9107,-4.9376,-4.982,-4.9957,-4.9786,-5.0089,-5.0311,-5.0473,-5.0036,-4.9664,-4.939,-4.912,-4.9018,-4.9018,-4.9018,-4.9018,-4.9018,-4.9018,-4.9018,-4.9018,-4.9018,-4.9018,-4.9018,-4.9018,-4.9018,-4.9018,-4.9018,-4.9018,-4.9018,-4.9018,-4.9526,-5.0135,-5.0405,-5.1014,-5.1792,-5.2536,-5.2739,-5.2875,-5.3382,-5.3518,-5.3518,-5.3518,-5.3518,-5.3518,-5.3518,-5.3518,-5.3518,-5.3518,-5.3518,-5.3518,-5.3518,-5.3518,-5.3518,-5.3518,-5.3518,-5.3518,-5.3518,-5.3518,-5.3518,-5.3518,-5.3518,-5.3518,-5.3518,-5.3518,-5.3518,-5.3518,-5.3518,-5.3518,-5.3518,-5.2401,-5.1717,-5.1562,-4.901,-4.7355,-4.6532,-4.5233,-4.4317,-5.0033,-5.2367,-5.4397,-5.3788,-5.4126,-5.4397,-5.3721,-5.3518,-5.345,-5.345,-5.3416,-5.3382,0.0,0.0,-5.0747,-5.1743,-4.8883,-4.7424,-5.0108,-4.9903,-5.0154,0.0,0.0,0.0,0.0,0.0,0.0,-4.8108,0.0,-4.9018,-4.9018,-4.9018,-4.9018,-4.9018,-4.9015,-4.9376,-5.0004,-5.0033,-5.0443,-5.124,-5.2027,-5.2019,-5.1278,-5.139,-5.0986,-5.0224,-4.948,-4.9145,-4.9114,-4.908,-4.9015,-4.9018,-4.9018,-4.9018,-4.9018,-4.9018,-4.9018,-4.9018,-4.9018,-4.9018,-4.9018,-4.9018,-4.9018,-4.9018,-4.9052,-4.956,-5.0304,-5.1048,-5.1792,-5.2536,-5.3315,-5.3518,-5.3518,-5.3518,-5.3518,-5.3518,-5.3518,-5.3518,-5.3518,-5.3518,-5.3518,-5.3518,-5.3518,-5.3518,-5.3518,-5.3518,-5.3518,-5.3518,-5.3518,-5.3518,-5.3518,-5.3518,-5.3518,-5.3518,-5.3518,-5.3518,-5.3518,-5.3518,-5.3518,-5.3518,-5.3518,-5.3518,-5.3518,-5.3518,-5.3518,-5.2672,-5.1043,-5.0042,-4.8332,-4.605,-4.5617,-4.5016,-5.2131,-5.3179,-5.3991,-5.4938,-5.4871,-5.4532,-5.4363,-5.3416,-5.2604,-5.2604,-5.2164,-5.1961,0.0,0.0,0.0,-5.1786,-5.0466,0.0,-5.1308,-5.1361,0.0,-5.2939,0.0,-5.2909,-5.1352,-5.1185,0.0,0.0,-4.8883,-4.9018,-4.9018,-4.9018,-4.9018,-4.9018,-4.9492,-4.9838,-5.0004,-5.0527,-5.1184,-5.1966,-5.2197,-5.2501,-5.2831,-5.2909,-5.2803,-5.26,-5.1773,-5.1185,-5.0666,-5.0021,-4.9432,-4.9018,-4.9018,-4.9018,-4.9018,-4.9018,-4.9018,-4.9018,-4.9018,-4.9018,-4.9018,-4.9018,-4.9018,-4.912,-4.9661,-5.0338,-5.1082,-5.1826,-5.2604,-5.3247,-5.345,-5.3518,-5.3518,-5.3518,-5.3518,-5.3518,-5.3518,-5.3518,-5.3518,-5.3518,-5.3518,-5.3518,-5.3518,-5.3518,-5.3518,-5.3518,-5.3518,-5.3518,-5.3518,-5.3518,-5.3518,-5.3518,-5.3518,-5.3518,-5.3518,-5.3518,-5.3518,-5.3518,-5.3518,-5.3518,-5.3518,-5.3518,-5.3518,-5.3518,-5.3518,-5.3281,-5.2842,-5.1801,-5.0297,-4.8497,-4.7565,-4.6387,-5.345,-5.4228,-5.4668,-5.5478,-5.5141,-5.4397,-5.3721,-5.2909,-5.2198,-5.1894,-5.1488,0.0,-5.2164,0.0,0.0,0.0,0.0,0.0,-5.2383,-5.2205,-5.2312,0.0,-5.3518,0.0,-5.1352,-5.1185,-5.0744,0.0,-4.9492,-4.9492,-4.9492,-4.9796,-4.9965,-4.9965,-5.066,-5.1172,-5.145,-5.1866,-5.2233,-5.2646,-5.308,-5.3495,-5.3891,-5.4296,-5.4296,-5.3929,-5.3158,-5.2623,-5.2229,-5.1745,-5.129,-5.0921,-5.0635,-5.069,-5.0863,-5.0212,-5.0181,-5.0423,-5.0091,-4.9965,-4.9932,-4.9593,-4.9492,-4.9627,-5.0371,-5.1116,-5.1792,-5.2198,-5.2875,-5.3518,-5.3518,-5.3518,-5.3518,-5.3518,-5.3518,-5.3518,-5.3518,-5.3518,-5.3518,-5.3518,-5.3518,-5.3518,-5.3518,-5.3518,-5.3518,-5.3518,-5.3518,-5.3518,-5.3518,-5.3518,-5.3518,-5.3518,-5.3518,-5.3518,-5.3518,-5.3518,-5.3518,-5.3518,-5.3518,-5.3518,-5.3518,-5.3518,-5.3518,-5.3518,-5.3518,-5.3518,-5.3518,-5.2418,-5.1274,-5.0014,-4.9285,-4.8,-5.4194,-5.5074,-5.5581,-5.5683,-5.5141,-5.4228,-5.2807,-5.23,-5.1961,-5.1217,0.0,-5.1183,-5.1995,-5.1462,-5.1454,-5.3213,0.0,-5.1447,-5.3246,-5.2697,-5.2487,-5.3382,-5.3518,-5.2909,-5.1352,-5.1185,-5.0913,-5.0135,-5.0168,-5.0236,-5.0236,-5.0941,-5.1439,-5.1626,-5.232,-5.2925,-5.3447,-5.3447,-5.3351,-5.3195,-5.4243,-5.468,-5.466,-5.5656,-5.5703,-5.5018,-5.4234,-5.3886,-5.3807,-5.37,-5.3611,-5.345,-5.2781,-5.2923,-5.3368,-5.2024,-5.1871,-5.229,-5.1719,-5.1376,-5.1116,-5.0439,-5.0236,-5.0371,-5.1116,-5.1792,-5.2334,-5.2435,-5.2976,-5.3518,-5.3518,-5.3518,-5.3518,-5.3518,-5.3518,-5.3518,-5.3518,-5.3518,-5.3518,-5.3518,-5.3518,-5.3518,-5.3518,-5.3518,-5.3518,-5.3518,-5.3518,-5.3518,-5.3518,-5.3518,-5.3518,-5.3518,-5.3518,-5.3518,-5.3518,-5.3518,-5.3518,-5.3518,-5.3518,-5.3518,-5.3518,-5.3518,-5.3518,-5.3518,-5.3518,-5.3518,-5.3518,-5.2557,-5.1735,-5.1036,-5.0751,-4.973,-5.4363,-5.4668,-5.4938,-5.5547,-5.5141,-5.4363,-5.3484,-5.2334,0.0,0.0,-4.9796,-4.9796,-5.115,-5.1256,-5.1629,-5.3247,0.0,0.0,0.0,0.0,-5.3314,0.0,0.0,0.0,0.0,0.0,0.0,0.0,-5.0676,-5.1014,-5.1014,-5.1741,-5.2758,-5.3963,-5.4154,-5.4218,-5.421,-5.421,-5.388,-5.32,-5.4722,-5.5409,-5.5441,-5.6945,-5.753,-5.7363,-5.6559,0.0,-5.5332,-5.4658,-5.4066,-5.3504,-5.3368,-5.3395,-5.3477,-5.3203,-5.2809,-5.2467,-5.2951,-5.226,-5.1151,-5.1082,-5.1014,-5.115,-5.1894,-5.2198,-5.2435,-5.3112,-5.3382,-5.3518,-5.3518,-5.3518,-5.3518,-5.3518,-5.3518,-5.3518,-5.3518,-5.3518,-5.3518,-5.3518,-5.3518,-5.3518,-5.3518,-5.3518,-5.3518,-5.3518,-5.3518,-5.3518,-5.3518,-5.3518,-5.3518,-5.3518,-5.3518,-5.3518,-5.3518,-5.3518,-5.3518,-5.3518,-5.3518,-5.3518,-5.3518,-5.3518,-5.3518,-5.3518,-5.3518,-5.3518,-5.3518,-5.3314,-5.2733,-5.1723,-5.1674,-5.1015,-5.3923,-5.4025,-5.4194,-5.4938,-5.4566,-5.3721,-5.257,0.0,0.0,0.0,-4.9255,-4.9323,-5.0439,0.0,0.0,0.0,0.0,0.0,0.0,0.0,0.0,0.0,0.0,0.0,0.0,0.0,0.0,-5.071,-5.1014,-5.1386,-5.1758,-5.2894,-5.4266,-5.5768,-5.5819,-5.5535,-5.5023,-5.5023,-5.462,-5.3849,-5.5023,-5.5794,-5.6271,-5.7446,-5.7997,-5.796,-5.7593,-5.7248,-5.6939,-5.6514,-5.6164,-5.5797,-5.5414,-5.5518,-5.5747,-5.4955,-5.4682,-5.4709,-5.4682,-5.3911,-5.2978,-5.2978,-5.242,-5.1928,-5.2706,-5.2909,-5.301,-5.3382,-5.3518,-5.3518,-5.3518,-5.3518,-5.3518,-5.3518,-5.3518,-5.3518,-5.3518,-5.3518,-5.3518,-5.3518,-5.3518,-5.3518,-5.3518,-5.3518,-5.3518,-5.3518,-5.3518,-5.3518,-5.3518,-5.3518,-5.3518,-5.3518,-5.3518,-5.3518,-5.3518,-5.3518,-5.3518,-5.3518,-5.3518,-5.3518,-5.3518,-5.3518,-5.3518,-5.3518,-5.3518,-5.3518,-5.3518,-5.3518,-5.3246,-5.2697,-5.2697,-5.217,-5.345,-5.3518,-5.3653,-5.4228,-5.3923,-5.3112,-5.1523,-5.1185,0.0,0.0,-4.9018,-4.9221,-4.9965,0.0,0.0,0.0,0.0,0.0,0.0,0.0,0.0,0.0,0.0,0.0,0.0,0.0,0.0,-5.142,-5.1751,-5.225,-5.2987,-5.4167,-5.5524,-5.7091,-5.7116,-5.6637,-5.5611,-5.5596,-5.5207,-5.4399,-5.5207,-5.6014,-5.6822,-5.7629,-5.7997,-5.7997,-5.7997,-5.7997,-5.7997,-5.7997,-5.7997,-5.795,-5.7376,-5.7474,-5.7844,-5.6659,-5.6474,-5.6835,-5.6367,-5.5495,-5.4634,-5.4999,-5.3911,-5.2672,-5.3315,-5.3518,-5.3518,-5.3518,-5.3518,-5.3518,-5.3518,-5.3518,-5.3518,-5.3518,-5.3518,-5.3518,-5.3518,-5.3518,-5.3518,-5.3518,-5.3518,-5.3518,-5.3518,-5.3518,-5.3518,-5.3518,-5.3518,-5.3518,-5.3518,-5.3518,-5.3518,-5.3518,-5.3518,-5.3518,-5.3518,-5.3518,-5.3518,-5.3518,-5.3518,-5.3518,-5.3518,-5.3518,-5.3518,-5.3518,-5.3518,-5.3518,-5.3518,-5.3518,-5.3518,-5.3518,-5.3518,-5.3076,-5.3315,-5.3518,-5.3518,-5.3585,-5.3551,-5.3112,-5.1523,0.0,0.0,-4.9323,-4.9018,-4.9221,-4.9965,0.0,0.0,0.0,0.0,0.0,0.0,0.0,0.0,0.0,0.0,0.0,0.0,0.0,0.0,-5.2164,-5.3487,-5.4613,-5.536,-5.551,-5.6304,-5.7844,-5.7904,-5.718,-5.5611,-5.5596,-5.5207,-5.4399,-5.5207,-5.6014,-5.6822,-5.7629,-5.7997,-5.7997,-5.7997,-5.7997,0.0,-5.7997,-5.7997,-5.7997,-5.7927,-5.795,-5.7973,-5.7844,-5.7425,-5.6989,-5.757,-5.6394,-5.4818,-5.6232,-5.5173,-5.3416,-5.3484,-5.3518,-5.3518,-5.3518,-5.3518,-5.3518,-5.3518,-5.3518,-5.3518,-5.3518,-5.3518,-5.3518,-5.3518,-5.3518,-5.3518,-5.3518,-5.3518,-5.3518,-5.3518,-5.3518,-5.3518,-5.3518,-5.3518,-5.3518,-5.3518,-5.3518,-5.3518,-5.3518,-5.3518,-5.3518,-5.3518,-5.3518,-5.3518,-5.3518,-5.3518,-5.3518,-5.3518,-5.3518,-5.3518,-5.3518,-5.3518,-5.3518,-5.3518,-5.3518,-5.3518,-5.3518,-5.3518,-5.345,-5.2164,-5.2807,-5.3518,-5.3518,-5.3518,-5.3112,-5.1523,0.0,0.0,-4.9323,-4.9018,-4.9086,-4.939,-5.0405,0.0,0.0,0.0,0.0,0.0,0.0,0.0,0.0,0.0,0.0,0.0,0.0,-5.2189,-5.2972,-5.397,-5.5149,-5.634,-5.6421,-5.6902,-5.7973,-5.7997,-5.7226,-5.5611,-5.6088,-5.5904,-5.5133,-5.5941,-5.6748,-5.7519,-5.785,-5.7997,-5.7997,-5.7997,-5.7997,0.0,-5.7997,-5.7997,-5.7997,-5.7997,-5.7997,-5.7997,-5.7997,-5.7797,-5.7594,-5.7904,-5.7141,-5.6095,-5.6695,-5.5956,-5.4761,-5.4296,-5.4171,-5.4074,-5.3618,-5.3518,-5.3518,-5.3518,-5.3822,-5.4262,-5.4735,-5.4837,-5.4837,-5.4837,-5.4837,-5.4837,-5.4837,-5.4837,-5.4837,-5.4837,-5.4837,-5.4837,-5.4837,-5.4465,-5.416,-5.416,-5.3788,-5.3518,-5.3518,-5.3518,-5.3518,-5.3518,-5.3518,-5.3518,-5.3518,-5.3518,-5.3518,-5.3518,-5.3518,-5.3518,-5.3518,-5.3518,-5.3518,-5.3518,-5.3518,-5.3518,-5.3518,-5.3518,-5.3518,-5.1488,-5.2334,-5.3213,-5.345,-5.3315,-5.2807,0.0,0.0,0.0,-4.9255,-4.9018,-4.9018,-4.9018,-5.0033,-5.0947,0.0,0.0,0.0,0.0,0.0,0.0,0.0,0.0,0.0,0.0,-5.297,-5.3212,-5.3793,-5.4723,-5.5872,-5.7141,-5.7252,-5.7449,-5.7973,-5.7997,-5.7336,-5.5978,-5.6528,-5.6528,-5.5941,-5.6528,-5.7226,-5.7997,-5.7997,-5.7997,-5.7997,-5.7997,-5.7997,0.0,-5.7997,-5.7997,-5.7997,-5.7997,-5.7997,-5.7997,-5.7997,-5.7997,-5.7997,-5.7997,-5.7498,-5.6938,-5.7141,-5.6695,-5.5948,-5.5443,-5.4969,-5.4451,-5.3684,-5.3653,-5.389,-5.4093,-5.4532,-5.5074,-5.5581,-5.5681,-5.5681,-5.5681,-5.5681,-5.5681,-5.5681,-5.5681,-5.5681,-5.5681,-5.5681,-5.5681,-5.5681,-5.5277,-5.4837,-5.4634,-5.416,-5.3754,-5.3518,-5.3518,-5.3518,-5.3518,-5.3518,-5.3518,-5.3518,-5.3518,-5.3518,-5.3518,-5.3518,-5.3518,-5.3518,-5.3518,-5.3518,-5.3518,-5.3518,-5.3518,-5.3518,-5.3518,-5.3518,-5.1691,-5.23,-5.2503,-5.3315,-5.2909,-5.2131,0.0,0.0,0.0,-4.9154,-4.9018,-4.9018,-4.9018,-4.9593,-5.0338,0.0,0.0,0.0,0.0,0.0,0.0,0.0,0.0,0.0,0.0,-5.4583,-5.456,-5.4591,-5.6017,0.0,-5.795,-5.7997,-5.7997,-5.7997,-5.7997,-5.7593,-5.6822,-5.6822,-5.6822,-5.6785,-5.6822,-5.7226,-5.7997,-5.7997,-5.7997,-5.7997,-5.7997,-5.7997,0.0,-5.7997,-5.7997,-5.7997,-5.7997,-5.7997,-5.7997,-5.7997,-5.7997,-5.7997,-5.7997,-5.7498,-5.7015,-5.775,-5.7474,-5.6887,-5.6887,-5.5816,-5.4451,-5.3684,-5.4025,-5.4769,-5.5513,-5.5647,-5.5716,-5.5681,-5.5681,-5.5681,-5.5681,-5.5681,-5.5681,-5.5681,-5.5681,-5.5681,-5.5681,-5.5681,-5.5681,-5.5681,-5.5681,-5.5446,-5.4668,-5.4566,-5.4296,-5.3585,-5.3518,-5.3518,-5.3518,-5.3518,-5.3518,-5.3518,-5.3518,-5.3518,-5.3518,-5.3518,-5.3518,-5.3518,-5.3518,-5.3518,-5.3518,-5.3518,-5.3518,-5.3518,-5.3518,-5.3518,-5.0473,-5.115,-5.1623,-5.186,-5.1758,-5.1352,-5.0608,0.0,0.0,-4.9154,-4.9018,-4.9018,-4.9018,-4.9593,-5.0338,-5.1082,0.0,0.0,0.0,0.0,0.0,0.0,0.0,0.0,0.0,0.0,-5.4804,-5.5313,-5.6304,-5.7227,-5.7973,-5.7997,-5.7997,-5.7997,-5.7997,-5.7593,-5.6822,-5.7336,-5.7336,-5.6822,-5.7373,-5.774,-5.7997,-5.7997,-5.7997,-5.7997,-5.7997,-5.7997,-5.7997,-5.7997,-5.7997,-5.7997,-5.7997,-5.7997,-5.7997,-5.7997,-5.7997,-5.7997,-5.7997,-5.7821,-5.7703,-5.7927,-5.7821,-5.7656,-5.7717,-5.7379,-5.6816,-5.6024,-5.5621,-5.5547,-5.6258,-5.6461,-5.6596,-5.707,-5.7205,-5.7205,-5.7205,-5.7205,-5.7205,-5.7205,-5.7205,-5.7205,-5.7205,-5.7205,-5.7205,-5.7205,-5.6765,-5.6393,-5.6122,-5.5209,-5.4499,-5.4262,-5.3788,-5.3518,-5.3518,-5.3518,-5.3518,-5.3518,-5.3518,-5.3518,-5.3518,-5.3518,-5.3518,-5.3518,-5.3518,-5.3518,-5.3518,-5.3518,-5.3518,-5.3518,-5.3518,-5.3518,0.0,-5.0236,-5.0507,-5.105,-5.0777,-5.0338,0.0,0.0,0.0,0.0,0.0,-4.9492,-4.9796,-4.9965,-5.0439,-5.1454,-5.1792,0.0,0.0,0.0,0.0,0.0,0.0,0.0,0.0,-5.5026,-5.5674,-5.6122,-5.6876,-5.7498,-5.7973,-5.7997,-5.7997,-5.7997,-5.7997,-5.7776,-5.7262,-5.774,-5.774,-5.7262,-5.7776,-5.7997,-5.7997,-5.7997,-5.7997,-5.7997,-5.7997,-5.7997,0.0,-5.7997,-5.7997,-5.7997,-5.7997,-5.7997,-5.7997,-5.7997,-5.7997,-5.7997,-5.7997,-5.7997,-5.7997,-5.7997,-5.8217,-5.8587,-5.9222,-5.8806,-5.8017,-5.7482,-5.6948,-5.6679,-5.7109,-5.7205,-5.734,-5.778,-5.7881,-5.7881,-5.7881,-5.7881,-5.7881,-5.7881,-5.7881,-5.7881,-5.7881,-5.7881,-5.7881,-5.7881,-5.7509,-5.7103,-5.6833,-5.575,-5.4905,-5.4634,-5.3923,-5.3518,-5.3518,-5.3518,-5.3518,-5.3518,-5.3518,-5.3518,-5.3518,-5.3518,-5.3518,-5.3518,-5.3518,-5.3518,-5.3518,-5.3518,-5.3518,-5.3518,-5.3518,-5.3518,0.0,-4.9492,-4.9255,-5.071,-5.0033,-4.9187,-4.9864,0.0,0.0,0.0,0.0,0.0,0.0,-5.0541,-5.0574,-5.1995,-5.1691,0.0,0.0,0.0,0.0,0.0,0.0,0.0,-5.5747,-5.6474,-5.6912,-5.6912,-5.757,-5.7997,-5.7997,-5.7997,-5.7997,-5.7997,-5.7997,-5.7997,-5.7997,-5.7997,-5.7997,-5.7997,-5.7997,-5.7997,-5.7997,-5.7997,-5.7997,0.0,-5.7997,-5.7997,-5.7997,-5.7997,-5.7997,-5.7997,-5.7997,-5.7997,-5.7997,-5.7997,-5.7997,-5.7997,-5.7997,-5.7997,-5.7997,-5.807,-5.8657,-5.9625,-6.1153,-6.0105,-5.8343,-5.8221,-5.8104,-5.8045,-5.7931,-5.7881,-5.7881,-5.7881,-5.7881,-5.7881,-5.7881,-5.7881,-5.7881,-5.7881,-5.7881,-5.7881,-5.7881,-5.7881,-5.7881,-5.7881,-5.7881,-5.7645,-5.6968,-5.6258,-5.5513,-5.4769,-5.4025,-5.3551,-5.3518,-5.3518,-5.3518,-5.3518,-5.3518,-5.3518,-5.3518,-5.3518,-5.3518,-5.3518,-5.3518,-5.3518,-5.3518,-5.3518,-5.3518,-5.3518,-5.3518,-5.3518,-4.8748,0.0,-4.8376,-4.9289,-4.9255,-4.9052,0.0,0.0,0.0,0.0,0.0,0.0,0.0,0.0,0.0,0.0,0.0,0.0,0.0,0.0,0.0,0.0,0.0,-5.5305,-5.6529,-5.6805,-5.6912,-5.6912,-5.757,-5.7997,-5.7997,-5.7997,-5.7997,-5.7997,-5.7997,-5.7997,-5.7997,-5.7997,-5.7997,-5.7997,-5.7997,-5.7997,-5.7997,-5.7997,-5.7997,-5.7997,-5.7997,-5.7997,-5.7997,-5.7997,-5.7997,-5.7997,-5.7997,-5.7997,-5.7997,-5.7997,-5.7997,-5.7997,-5.7997,-5.7997,-5.8107,-5.8731,-5.9869,-6.1117,-6.1484,-6.0794,-5.9888,-5.984,-5.9359,-5.8701,-5.8067,-5.7881,-5.7881,-5.7881,-5.7881,-5.7881,-5.7881,-5.7881,-5.7881,-5.7881,-5.7881,-5.7881,-5.7881,-5.7881,-5.7881,-5.7881,-5.7881,-5.7814,-5.7645,-5.7002,-5.6258,-5.5547,-5.4769,-5.4093,-5.3551,-5.3518,-5.3518,-5.3518,-5.3518,-5.3518,-5.3518,-5.3518,-5.3518,-5.3518,-5.3518,-5.3518,-5.3518,-5.3518,-5.3518,-5.3518,-5.3518,-5.3518,-4.8612,-4.8477,-4.8075,-4.8815,-4.8748,-4.8578,-4.8917,0.0,0.0,0.0,0.0,0.0,0.0,0.0,0.0,0.0,-5.2063,0.0,0.0,0.0,0.0,0.0,0.0,-5.5971,0.0,-5.7206,-5.7401,-5.7401,-5.7774,-5.7997,-5.7997,-5.7997,-5.7997,-5.7997,-5.7997,-5.7997,-5.7997,-5.7997,-5.7997,-5.7997,-5.7997,-5.7997,-5.7997,-5.7997,-5.7997,-5.7997,-5.7997,-5.7997,-5.7997,-5.7997,-5.7997,-5.7997,-5.7997,-5.7997,-5.7997,-5.7997,-5.7997,-5.8033,-5.8437,-5.8804,-5.9245,-6.0052,-6.0896,-6.1667,-6.2034,-6.1857,-6.1425,-6.1064,-6.0366,-5.9509,-5.8668,-5.8173,-5.7881,-5.7881,-5.7881,-5.7881,-5.7881,-5.7881,-5.7881,-5.7881,-5.7881,-5.7881,-5.7881,-5.7881,-5.7881,-5.7881,-5.7881,-5.7881,-5.7881,-5.7273,-5.6664,-5.6258,-5.5243,-5.4431,-5.4025,-5.3687,-5.3518,-5.3518,-5.3518,-5.3518,-5.3518,-5.3518,-5.3518,-5.3518,-5.3518,-5.3518,-5.3518,-5.3518,-5.3518,-5.3518,-5.3518,-5.3518,-4.8274,-4.8376,-4.821,-4.8984,-4.8612,-4.8244,-4.9018,0.0,0.0,0.0,0.0,0.0,0.0,0.0,0.0,0.0,0.0,0.0,0.0,0.0,0.0,0.0,0.0,0.0,-5.7242,-5.7728,-5.7997,-5.7997,-5.7997,-5.7997,-5.7997,-5.7997,-5.7997,-5.7997,-5.7997,-5.7997,-5.7997,-5.7997,-5.7997,-5.7997,-5.7997,-5.7997,-5.7997,-5.7997,-5.7997,-5.7997,-5.7997,0.0,-5.7997,-5.7997,-5.7997,-5.7997,-5.7997,-5.7997,-5.7997,-5.7997,-5.807,-5.829,-5.9074,-5.9905,-6.0713,-6.1374,-6.1667,-6.1924,-6.2585,-6.278,-6.2679,-6.1969,-6.1113,-6.018,-5.9344,-5.8494,-5.7881,-5.7881,-5.7881,-5.7881,-5.7881,-5.7881,-5.7881,-5.7881,-5.7881,-5.7881,-5.7881,-5.7881,-5.7881,-5.7881,-5.7881,-5.7881,-5.7881,-5.734,-5.6934,-5.6799,-5.5581,-5.4702,-5.46,-5.3923,-5.3518,-5.3518,-5.3518,-5.3518,-5.3518,-5.3518,-5.3518,-5.3518,-5.3518,-5.3518,-5.3518,-5.3518,-5.3518,-5.3518,-5.3518,-5.3518,-4.6921,-4.797,-4.9018,-4.9729,-4.939,-4.9018,0.0,0.0,0.0,0.0,0.0,0.0,0.0,0.0,0.0,0.0,0.0,0.0,0.0,0.0,0.0,0.0,0.0,-5.6643,-5.8653,-5.833,-5.7997,-5.7997,-5.7997,-5.7997,-5.7997,-5.7997,-5.7997,-5.7997,-5.7997,-5.7997,-5.7997,-5.7997,-5.7997,-5.7997,-5.7997,-5.7997,-5.7997,-5.7997,-5.7997,-5.7997,0.0,-5.7997,-5.7997,-5.7997,-5.7997,-5.7997,-5.7997,-5.7997,-5.7997,-5.7997,-5.8437,-5.9111,-5.9942,-6.075,-6.1447,-6.1557,-6.2071,-6.2658,-6.2768,-6.278,-6.278,-6.2643,-6.1548,-6.018,-5.9344,-5.8494,-5.7881,-5.7881,-5.7881,-5.7881,-5.7881,-5.7881,-5.7881,-5.7881,-5.7881,-5.7881,-5.7881,-5.7881,-5.7881,-5.7881,-5.7881,-5.7881,-5.7881,-5.778,-5.7476,-5.6867,-5.6055,-5.5277,-5.4634,-5.3923,-5.3518,-5.3518,-5.3518,-5.3518,-5.3518,-5.3518,-5.3518,-5.3518,-5.3518,-5.3518,-5.3518,-5.3518,-5.3518,-5.3518,-5.3518,-5.3518,-4.6801,-4.7597,-4.8781,-5.0304,-5.0439,0.0,0.0,0.0,0.0,0.0,0.0,0.0,0.0,0.0,0.0,0.0,0.0,0.0,0.0,0.0,-5.5678,0.0,0.0,-5.7385,-5.8454,-5.8217,-5.7997,-5.7997,-5.7997,-5.7997,-5.7997,-5.7997,-5.7997,-5.7997,-5.7997,-5.7997,-5.7997,-5.7997,-5.7997,-5.7997,-5.7997,-5.7997,-5.7997,-5.7997,-5.7997,-5.7997,0.0,-5.7997,-5.7997,-5.7997,-5.7997,-5.7997,-5.7997,-5.7997,-5.8033,-5.851,-5.9428,-6.0566,-6.0933,-6.1594,-6.2254,-6.2254,-6.2511,-6.278,-6.278,-6.278,-6.278,-6.278,-6.1969,-6.0967,-6.0544,-5.9474,-5.8529,-5.8529,-5.8244,-5.7881,-5.7881,-5.7881,-5.7881,-5.7881,-5.7881,-5.7881,-5.7881,-5.7881,-5.7881,-5.7881,-5.7881,-5.7881,-5.7881,-5.7881,-5.7746,-5.7408,-5.6731,-5.6021,-5.5277,-5.4532,-5.3923,-5.3518,-5.3518,-5.3518,-5.3518,-5.3518,-5.3518,-5.3518,-5.3518,-5.3518,-5.3518,-5.3518,-5.3518,-5.3518,-5.3518,-5.3518,-4.6481,-4.709,-4.8345,0.0,0.0,0.0,0.0,0.0,0.0,0.0,0.0,0.0,0.0,0.0,0.0,0.0,0.0,0.0,-5.4333,-5.5453,-5.6353,-5.6564,-5.7287,-5.7793,-5.7964,-5.7997,-5.7997,-5.7997,-5.7997,-5.7997,-5.7997,-5.7997,-5.7997,-5.7997,-5.7997,-5.7997,-5.7997,-5.7997,-5.7997,-5.7997,-5.7997,-5.7997,-5.7997,-5.7997,-5.7997,-5.7997,-5.7997,-5.7997,-5.7997,-5.7997,-5.7997,-5.8033,-5.8217,-5.84,-5.8657,-5.9465,-6.0529,-6.163,-6.1814,-6.2291,-6.278,-6.278,-6.278,-6.278,-6.278,-6.278,-6.278,-6.278,-6.235,-6.1824,-6.1659,-6.0361,-5.9111,-5.9111,-5.8494,-5.7881,-5.7881,-5.7881,-5.7881,-5.7881,-5.7881,-5.7881,-5.7881,-5.7881,-5.7881,-5.7881,-5.7881,-5.7881,-5.7881,-5.7881,-5.7881,-5.7881,-5.7239,-5.6494,-5.5784,-5.5006,-5.4363,-5.3788,-5.3585,-5.3518,-5.3518,-5.3518,-5.3518,-5.3518,-5.3518,-5.3518,-5.3518,-5.3518,-5.3518,-5.3518,-5.3518,-5.3518,-4.5116,-4.6312,-4.8075,-4.8951,0.0,0.0,0.0,0.0,0.0,0.0,0.0,0.0,0.0,0.0,0.0,0.0,0.0,-5.3585,-5.3551,0.0,-5.5013,-5.5695,-5.6492,-5.7239,-5.7927,-5.7997,-5.7997,-5.7997,-5.7997,-5.7997,-5.7997,-5.7997,-5.7997,-5.7997,-5.7997,-5.7997,-5.7997,-5.7997,-5.7997,-5.7997,-5.7997,-5.7997,-5.7997,-5.7997,-5.7997,-5.7997,-5.7997,-5.7997,-5.7997,-5.7997,-5.7997,-5.807,-5.8841,-5.9551,-6.0309,-6.1117,-6.1484,-6.1704,-6.2475,-6.2743,-6.278,-6.278,-6.278,-6.278,-6.278,-6.278,-6.278,-6.278,-6.2755,-6.2541,-6.1797,-6.0361,-5.9111,-5.9111,-5.8494,-5.7881,-5.7881,-5.7881,-5.7881,-5.7881,-5.7881,-5.7881,-5.7881,-5.7881,-5.7881,-5.7881,-5.7881,-5.7881,-5.7881,-5.7881,-5.7881,-5.7881,-5.7239,-5.6494,-5.5784,-5.5006,-5.4566,-5.4499,-5.389,-5.3518,-5.3518,-5.3518,-5.3518,-5.3518,-5.3518,-5.3518,-5.3518,-5.3518,-5.3518,-5.3518,-5.3518,-5.3518,-4.492,-4.621,-4.8176,-4.939,0.0,0.0,0.0,0.0,0.0,0.0,0.0,0.0,0.0,0.0,0.0,0.0,0.0,-5.3518,-5.3518,-5.4513,-5.5379,-5.5695,-5.6825,-5.7703,-5.7973,-5.7997,-5.7997,-5.7997,-5.7997,-5.7997,-5.7997,-5.7997,-5.7997,-5.7997,-5.7997,-5.7997,-5.7997,-5.7997,-5.7997,-5.7997,-5.7997,-5.7997,-5.7997,-5.7997,-5.7997,-5.7997,-5.7997,-5.7997,-5.7997,-5.7997,-5.829,-5.8841,-5.9648,-6.0456,-6.119,-6.1484,-6.1924,-6.2401,-6.267,-6.278,-6.278,-6.278,-6.278,-6.278,-6.278,-6.278,-6.278,-6.278,-6.278,-6.273,-6.2438,-6.1484,-6.0514,-6.0023,-5.9245,-5.8494,-5.8027,-5.7881,-5.7881,-5.7881,-5.7881,-5.7881,-5.7881,-5.7881,-5.7881,-5.7881,-5.7881,-5.7881,-5.7881,-5.7881,-5.7881,-5.7881,-5.7239,-5.6697,-5.6427,-5.5277,-5.46,-5.46,-5.3923,-5.3518,-5.3518,-5.3518,-5.3518,-5.3518,-5.3518,-5.3518,-5.3518,-5.3518,-5.3518,-5.3518,-5.3518,-5.3518,-4.5601,-4.7062,0.0,0.0,0.0,0.0,0.0,0.0,0.0,0.0,0.0,0.0,0.0,0.0,0.0,0.0,-5.3822,-5.3518,-5.3518,-5.4791,-5.5724,-5.5724,-5.7054,-5.7997,-5.7997,-5.7997,-5.7997,-5.7997,-5.7997,-5.7997,-5.7997,-5.7997,-5.7997,-5.7997,-5.7997,-5.7997,-5.7997,-5.7997,-5.7997,-5.7997,-5.7997,-5.7997,-5.7997,-5.7997,-5.7997,-5.7997,-5.7997,-5.7997,-5.8033,-5.8253,-5.8988,-6.0015,-6.0566,-6.1263,-6.1998,-6.1998,-6.2328,-6.278,-6.278,-6.278,-6.278,-6.278,-6.278,-6.278,-6.278,-6.278,-6.278,-6.278,-6.278,-6.278,-6.278,-6.2182,-6.1456,-6.0909,-5.9928,-5.8977,-5.8423,-5.8065,-5.7881,-5.7881,-5.7881,-5.7881,-5.7881,-5.7881,-5.7881,-5.7881,-5.7881,-5.7881,-5.7881,-5.7881,-5.7881,-5.7881,-5.7442,-5.7137,-5.7137,-5.6021,-5.5209,-5.4972,-5.4262,-5.3754,-5.3518,-5.3518,-5.3518,-5.3518,-5.3518,-5.3518,-5.3518,-5.3518,-5.3518,-5.3518,-5.3518,-5.3518,-4.7177,-4.8862,0.0,0.0,0.0,0.0,0.0,0.0,0.0,0.0,0.0,0.0,0.0,0.0,0.0,0.0,-5.3518,-5.3518,-5.3518,-5.4791,-5.5724,-5.5724,-5.708,-5.7997,-5.7997,-5.7997,-5.7997,-5.7997,-5.7997,-5.7997,-5.7997,-5.7997,-5.7997,-5.7997,-5.7997,-5.7997,-5.7997,-5.7997,-5.7997,-5.7997,-5.7997,-5.7997,-5.7997,-5.7997,-5.7997,-5.7997,-5.7997,-5.7997,-5.807,-5.8914,-6.0162,-6.1594,-6.1594,-6.2108,-6.278,-6.278,-6.278,-6.278,-6.278,-6.278,-6.278,-6.278,-6.278,-6.278,-6.278,-6.278,-6.278,-6.278,-6.278,-6.278,-6.278,-6.2219,-6.1632,-6.1604,-6.0331,-5.9111,-5.9111,-5.8459,-5.7918,-5.7881,-5.7881,-5.7881,-5.7881,-5.7881,-5.7881,-5.7881,-5.7881,-5.7881,-5.7881,-5.7881,-5.7881,-5.7881,-5.7881,-5.7881,-5.7881,-5.7205,-5.6494,-5.5784,-5.5006,-5.4262,-5.3551,-5.3518,-5.3518,-5.3518,-5.3518,-5.3518,-5.3518,-5.3518,-5.3518,-5.3518,-5.3518,-5.3518,-4.8057,-4.9286,0.0,0.0,0.0,0.0,0.0,0.0,0.0,0.0,0.0,0.0,0.0,0.0,0.0,-5.5683,-5.4938,-5.4432,-5.4993,-5.5404,-5.592,-5.6483,-5.7425,-5.7997,-5.7997,-5.7997,-5.7997,-5.7997,-5.7997,-5.7997,-5.7997,-5.7997,-5.7997,-5.7997,-5.7997,-5.7997,-5.7997,-5.7997,-5.7997,-5.7997,-5.7997,-5.7997,-5.7997,-5.7997,-5.7997,-5.7997,-5.7997,-5.8327,-5.8951,-6.0309,-6.1153,-6.1667,-6.2218,-6.2585,-6.278,-6.278,-6.278,-6.278,-6.278,-6.278,-6.278,-6.278,-6.278,-6.278,-6.278,-6.278,-6.278,-6.278,-6.278,-6.278,-6.278,-6.2618,-6.2298,-6.1742,-6.1229,-6.0544,-5.9342,-5.8909,-5.8599,-5.8027,-5.7881,-5.7881,-5.7881,-5.7881,-5.7881,-5.7881,-5.7881,-5.7881,-5.7881,-5.7881,-5.7881,-5.7881,-5.7881,-5.7881,-5.7881,-5.7205,-5.6697,-5.6494,-5.5277,-5.4262,-5.3551,-5.3518,-5.3518,-5.3518,-5.3518,-5.3518,-5.3518,-5.3518,-5.3518,-5.3518,-5.3518,-5.3518,-4.9609,0.0,0.0,0.0,0.0,0.0,0.0,0.0,0.0,0.0,0.0,0.0,0.0,0.0,0.0,-5.6292,-5.5615,-5.5179,-5.5625,-5.5974,-5.6332,-5.6845,-5.7546,-5.7997,-5.7997,-5.7997,-5.7997,-5.7997,-5.7997,-5.7997,-5.7997,-5.7997,-5.7997,-5.7997,-5.7997,-5.7997,-5.7997,-5.7997,-5.7997,-5.7997,-5.7997,-5.7997,-5.7997,-5.7997,-5.7997,-5.8033,-5.8327,-5.9098,-6.0236,-6.119,-6.1777,-6.2108,-6.2622,-6.278,-6.278,-6.278,-6.278,-6.278,-6.278,-6.278,-6.278,-6.278,-6.278,-6.278,-6.278,-6.278,-6.278,-6.278,-6.278,-6.278,-6.278,-6.278,-6.2705,-6.2219,-6.1824,-6.1314,-6.0331,-5.9571,-5.8977,-5.8459,-5.8101,-5.7881,-5.7881,-5.7881,-5.7881,-5.7881,-5.7881,-5.7881,-5.7881,-5.7881,-5.7881,-5.7881,-5.7881,-5.7881,-5.7881,-5.7476,-5.7103,-5.6833,-5.5683,-5.4702,-5.3957,-5.3653,-5.3518,-5.3518,-5.3518,-5.3518,-5.3518,-5.3518,-5.3518,-5.3518,-5.3518,-5.3518,-5.1398,0.0,0.0,0.0,0.0,0.0,0.0,0.0,0.0,0.0,0.0,0.0,0.0,0.0,-5.6596,-5.6021,-5.5817,-5.5825,-5.5902,-5.65,-5.6936,-5.6989,-5.7583,-5.7997,-5.7997,-5.7997,-5.7997,-5.7997,-5.7997,-5.7997,-5.7997,-5.7997,-5.7997,-5.7997,-5.7997,-5.7997,-5.7997,-5.7997,-5.7997,-5.7997,-5.807,-5.8107,-5.8107,-5.8033,-5.8033,-5.8143,-5.9061,-6.0272,-6.1594,-6.1667,-6.2144,-6.278,-6.278,-6.278,-6.278,-6.278,-6.278,-6.278,-6.278,-6.278,-6.278,-6.278,-6.278,-6.278,-6.278,-6.278,-6.278,-6.278,-6.278,-6.278,-6.278,-6.278,-6.278,-6.278,-6.2245,-6.1687,-6.1632,-6.0423,-5.9311,-5.9245,-5.8564,-5.8027,-5.8027,-5.7954,-5.7881,-5.7881,-5.7881,-5.7881,-5.7881,-5.7881,-5.7881,-5.7881,-5.7881,-5.7881,-5.7881,-5.7881,-5.7611,-5.6934,-5.6224,-5.548,-5.4735,-5.3923,-5.3518,-5.3518,-5.3518,-5.3518,-5.3518,-5.3518,-5.3518,-5.3518,-5.3518,-5.3518,0.0,0.0,0.0,0.0,0.0,0.0,0.0,0.0,0.0,0.0,0.0,0.0,0.0,-5.6596,-5.6934,-5.734,-5.6934,-5.6778,-5.7354,-5.7136,-5.7114,-5.7683,-5.7887,-5.7997,-5.7997,-5.7997,-5.7997,-5.7997,-5.7997,-5.7997,-5.7997,-5.7997,-5.7997,-5.7997,-5.7997,-5.7997,-5.7997,-5.7997,-5.7997,-5.7997,-5.8657,-5.8927,-5.8914,-5.829,-5.8327,-5.9001,-6.0456,-6.1263,-6.163,-6.2291,-6.2658,-6.278,-6.278,-6.278,-6.278,-6.278,-6.278,-6.278,-6.278,-6.278,-6.278,-6.278,-6.278,-6.278,-6.278,-6.278,-6.278,-6.278,-6.278,-6.278,-6.278,-6.278,-6.278,-6.278,-6.2679,-6.235,-6.1742,-6.1314,-6.0909,-6.0242,-5.941,-5.884,-5.884,-5.8317,-5.7881,-5.7881,-5.7881,-5.7881,-5.7881,-5.7881,-5.7881,-5.7881,-5.7881,-5.7881,-5.7881,-5.7881,-5.7814,-5.7679,-5.6968,-5.6224,-5.5513,-5.4194,-5.3518,-5.3518,-5.3518,-5.3518,-5.3518,-5.3518,-5.3518,-5.3518,-5.3518,-5.3518,0.0,0.0,0.0,0.0,0.0,0.0,0.0,0.0,0.0,0.0,0.0,0.0,-5.6664,-5.7103,-5.7442,-5.7814,-5.7577,-5.7599,-5.8427,-5.8219,-5.8289,-5.9056,-5.8811,-5.8584,-5.8584,-5.8217,-5.7997,-5.7997,-5.7997,-5.7997,-5.7997,-5.7997,-5.7997,-5.7997,-5.7997,-5.7997,-5.7997,-5.84,-5.8584,-5.8584,-5.9391,-5.9795,-5.9735,-5.9355,-5.9612,-6.0419,-6.1227,-6.1814,-6.2218,-6.2658,-6.278,-6.278,-6.278,-6.278,-6.278,-6.278,-6.278,-6.278,-6.278,-6.278,-6.278,-6.278,-6.278,-6.278,-6.278,-6.278,-6.278,-6.278,-6.278,-6.278,-6.278,-6.278,-6.278,-6.278,-6.278,-6.2705,-6.2271,-6.1851,-6.1492,-6.1055,-5.9956,-5.9111,-5.9111,-5.8458,-5.7881,-5.7881,-5.7881,-5.7881,-5.7881,-5.7881,-5.7881,-5.7881,-5.7881,-5.7881,-5.7881,-5.7881,-5.7881,-5.7881,-5.7205,-5.663,-5.6258,-5.4803,-5.3856,-5.3518,-5.3518,-5.3518,-5.3518,-5.3518,-5.3518,-5.3518,-5.3518,-5.3518,0.0,0.0,0.0,0.0,0.0,0.0,0.0,0.0,0.0,0.0,0.0,-5.6697,-5.6934,-5.7476,-5.7881,-5.7881,-5.7881,-5.8218,-5.905,-5.9178,-5.9445,-6.0101,-5.9614,-5.9148,-5.9001,-5.84,-5.7997,-5.7997,-5.7997,-5.7997,-5.7997,-5.7997,-5.7997,-5.7997,-5.7997,-5.807,-5.8217,-5.8877,-5.9258,-5.9404,-6.0236,-6.0676,-6.0823,-6.0823,-6.1117,-6.1594,-6.1741,-6.2181,-6.278,-6.278,-6.278,-6.278,-6.278,-6.278,-6.278,-6.278,-6.278,-6.278,-6.278,-6.278,-6.278,-6.278,-6.278,-6.278,-6.278,-6.278,-6.278,-6.278,-6.278,-6.278,-6.278,-6.278,-6.278,-6.278,-6.278,-6.278,-6.278,-6.2271,-6.1797,-6.1797,-6.0453,-5.9278,-5.9111,-5.8458,-5.7881,-5.7881,-5.7881,-5.7881,-5.7881,-5.7881,-5.7881,-5.7881,-5.7881,-5.7881,-5.7881,-5.7881,-5.7881,-5.7881,-5.734,-5.6934,-5.6799,-5.5513,-5.4431,-5.3687,-5.3551,-5.3518,-5.3518,-5.3518,-5.3518,-5.3518,-5.3518,-5.3518,0.0,0.0,0.0,0.0,0.0,0.0,0.0,0.0,0.0,0.0,-5.5344,-5.6258,-5.7509,-5.7814,-5.7881,-5.7881,-5.7881,-5.8176,-5.9006,-5.9159,-5.9242,-5.9357,-5.9285,-5.8927,-5.8217,-5.807,-5.7997,-5.7997,-5.7997,-5.7997,-5.7997,-5.7997,-5.7997,-5.7997,-5.7997,-5.8327,-5.9038,-5.9148,-5.9551,-6.0272,-6.1043,-6.1814,-6.245,-6.245,-6.2181,-6.163,-6.2365,-6.267,-6.278,-6.278,-6.278,-6.278,-6.278,-6.278,-6.278,-6.278,-6.278,-6.278,-6.278,-6.278,-6.278,-6.278,-6.278,-6.278,-6.278,-6.278,-6.278,-6.278,-6.278,-6.278,-6.278,-6.278,-6.278,-6.278,-6.278,-6.278,-6.278,-6.273,-6.2618,-6.2618,-6.135,-5.9991,-5.9245,-5.8458,-5.7881,-5.7881,-5.7881,-5.7881,-5.7881,-5.7881,-5.7881,-5.7881,-5.7881,-5.7881,-5.7881,-5.7881,-5.7881,-5.7881,-5.7814,-5.7476,-5.6833,-5.6021,-5.5209,-5.4465,-5.3822,-5.3518,-5.3518,-5.3518,-5.3518,-5.3518,-5.3518,-5.3518,0.0,0.0,0.0,0.0,0.0,0.0,0.0,0.0,0.0,0.0,-5.5445,-5.603,-5.7109,-5.7611,-5.7881,-5.7881,-5.7881,-5.8352,-5.9639,-5.9479,-5.953,-6.043,-5.9749,-5.9038,-5.8731,-5.8253,-5.7997,-5.7997,-5.7997,-5.7997,-5.7997,-5.7997,-5.8217,-5.8657,-5.8694,-5.9061,-5.9869,-6.0309,-6.097,-6.1777,-6.2108,-6.2475,-6.278,-6.278,-6.2622,-6.2291,-6.2658,-6.278,-6.278,-6.278,-6.278,-6.278,-6.278,-6.278,-6.278,-6.278,-6.278,-6.278,-6.278,-6.278,-6.278,-6.278,-6.278,-6.278,-6.278,-6.278,-6.278,-6.278,-6.278,-6.278,-6.278,-6.278,-6.278,-6.278,-6.278,-6.278,-6.278,-6.278,-6.2679,-6.2219,-6.1548,-6.082,-5.9991,-5.9145,-5.8564,-5.8564,-5.8209,-5.7881,-5.7881,-5.7881,-5.7881,-5.7881,-5.7881,-5.7881,-5.7881,-5.7881,-5.7881,-5.7881,-5.7881,-5.7746,-5.7408,-5.6697,-5.5987,-5.5243,-5.4093,-5.3518,-5.3518,-5.3518,-5.3518,-5.3518,-5.3518,-5.3518,0.0,0.0,0.0,0.0,0.0,0.0,0.0,0.0,0.0,0.0,-5.5671,-5.5839,-5.6406,-5.7111,-5.7679,-5.7848,-5.7881,-5.8425,-5.9902,-5.9588,-5.9645,-6.0835,-5.9942,-5.9111,-5.8891,-5.8364,-5.7997,-5.7997,-5.7997,-5.7997,-5.7997,-5.818,-5.8584,-5.9184,-5.9404,-5.9905,-6.0713,-6.1484,-6.2218,-6.278,-6.278,-6.278,-6.278,-6.278,-6.278,-6.278,-6.278,-6.278,-6.278,-6.278,-6.278,-6.2817,-6.3062,-6.3135,-6.3172,-6.3356,-6.3441,-6.3441,-6.3441,-6.3441,-6.3441,-6.3441,-6.3441,-6.3429,-6.3209,-6.3135,-6.3099,-6.2853,-6.278,-6.278,-6.278,-6.278,-6.278,-6.278,-6.278,-6.278,-6.278,-6.278,-6.2618,-6.2023,-6.1742,-6.14,-6.079,-5.9797,-5.9111,-5.9111,-5.8423,-5.7881,-5.7881,-5.7881,-5.7881,-5.7881,-5.7881,-5.7881,-5.7881,-5.7881,-5.7881,-5.7881,-5.7881,-5.7881,-5.7881,-5.7171,-5.6461,-5.5681,-5.4431,-5.3687,-5.3518,-5.3518,-5.3518,-5.3518,-5.3518,-5.3518,0.0,0.0,0.0,0.0,0.0,0.0,0.0,0.0,0.0,0.0,-5.5719,-5.5686,-5.5758,-5.6372,-5.7103,-5.778,-5.7881,-5.8219,-5.9131,-5.9234,-5.9224,-5.9298,-5.9258,-5.8891,-5.8143,-5.8033,-5.7997,-5.7997,-5.7997,-5.7997,-5.7997,-5.8731,-5.9148,-5.9184,-5.9942,-6.0713,-6.152,-6.2365,-6.2768,-6.278,-6.278,-6.278,-6.278,-6.278,-6.278,-6.278,-6.278,-6.278,-6.278,-6.278,-6.278,-6.2853,-6.3723,-6.4016,-6.4127,-6.4897,-6.5191,-6.5191,-6.5191,-6.5191,-6.5191,-6.5191,-6.5191,-6.5044,-6.4273,-6.4016,-6.387,-6.3025,-6.278,-6.278,-6.278,-6.278,-6.278,-6.278,-6.278,-6.278,-6.278,-6.278,-6.278,-6.2755,-6.2103,-6.1604,-6.1512,-6.0176,-5.9111,-5.9111,-5.8423,-5.7881,-5.7881,-5.7881,-5.7881,-5.7881,-5.7881,-5.7881,-5.7881,-5.7881,-5.7881,-5.7881,-5.7881,-5.7881,-5.7881,-5.7171,-5.6461,-5.5681,-5.4938,-5.4194,-5.3518,-5.3518,-5.3518,-5.3518,-5.3518,-5.3518,0.0,0.0,0.0,0.0,0.0,0.0,0.0,0.0,0.0,0.0,-5.6124,-5.6468,-5.6405,-5.6604,-5.69,-5.7137,-5.7171,-5.7637,-5.899,-5.8349,-5.8109,0.0,0.0,0.0,0.0,0.0,-5.7997,-5.7997,-5.7997,-5.7997,-5.7997,-5.8767,-5.9441,-5.9942,-6.075,-6.1557,-6.2365,-6.2658,-6.278,-6.278,-6.278,-6.278,-6.278,-6.278,-6.3099,-6.3613,-6.3613,-6.3613,-6.3613,-6.3613,-6.3943,-6.4457,-6.4751,-6.4861,-6.4897,-6.5191,-6.5301,-6.5301,-6.5301,-6.5301,-6.5301,-6.5301,-6.5301,-6.5264,-6.4971,-6.4861,-6.4714,-6.387,-6.3613,-6.3503,-6.2952,-6.278,-6.278,-6.278,-6.278,-6.278,-6.278,-6.278,-6.278,-6.278,-6.2567,-6.235,-6.235,-6.1026,-5.9928,-5.9928,-5.8772,-5.7881,-5.7881,-5.7881,-5.7881,-5.7881,-5.7881,-5.7881,-5.7881,-5.7881,-5.7881,-5.7881,-5.7881,-5.7881,-5.7881,-5.7645,-5.7171,-5.6427,-5.5683,-5.4702,-5.3518,-5.3518,-5.3518,-5.3518,-5.3518,-5.3518,0.0,0.0,0.0,0.0,0.0,0.0,0.0,0.0,0.0,0.0,-5.6921,-5.7189,-5.6918,-5.6811,-5.6916,-5.7157,-5.7192,0.0,0.0,0.0,0.0,0.0,0.0,0.0,0.0,0.0,0.0,0.0,-5.7997,0.0,-5.84,-5.9171,-6.0126,-6.119,-6.1704,-6.2254,-6.278,-6.278,-6.278,-6.278,-6.278,-6.278,-6.278,-6.3099,-6.3539,-6.4127,-6.4383,-6.4494,-6.4494,-6.4494,-6.4824,-6.5338,-6.5595,-6.5705,-6.5742,-6.5999,-6.6109,-6.6109,-6.6109,-6.6109,-6.6109,-6.6109,-6.6109,-6.6072,-6.5778,-6.5705,-6.5558,-6.4714,-6.4494,-6.431,-6.3466,-6.3025,-6.278,-6.278,-6.278,-6.278,-6.278,-6.278,-6.278,-6.278,-6.278,-6.278,-6.278,-6.1687,-6.07,-6.0427,-5.9212,-5.8209,-5.7918,-5.7881,-5.7881,-5.7881,-5.7881,-5.7881,-5.7881,-5.7881,-5.7881,-5.7881,-5.7881,-5.7881,-5.7881,-5.7881,-5.7543,-5.6799,-5.6325,-5.5344,-5.3856,-5.3619,-5.3518,-5.3518,-5.3518,-5.3518,0.0,0.0,0.0,0.0,0.0,0.0,0.0,0.0,0.0,0.0,-5.8032,-5.7867,-5.7155,-5.6973,-5.7211,0.0,0.0,0.0,0.0,0.0,0.0,0.0,0.0,0.0,0.0,0.0,0.0,0.0,-5.8033,-5.84,-5.9148,-6.0015,-6.1153,-6.2743,-6.278,-6.278,-6.278,-6.278,-6.278,-6.278,-6.2817,-6.2842,-6.2879,-6.3723,-6.4127,-6.42,-6.5007,-6.5375,-6.5375,-6.5375,-6.5375,-6.5448,-6.6219,-6.6549,-6.6623,-6.7393,-6.7687,-6.7687,-6.7687,-6.7687,-6.7687,-6.7687,-6.7687,-6.754,-6.6769,-6.6549,-6.6366,-6.5558,-6.5338,-6.5154,-6.431,-6.3466,-6.2817,-6.278,-6.278,-6.278,-6.278,-6.278,-6.278,-6.278,-6.278,-6.278,-6.278,-6.2129,-6.1314,-6.0549,-5.9704,-5.884,-5.8029,-5.7954,-5.7918,-5.7881,-5.7881,-5.7881,-5.7881,-5.7881,-5.7881,-5.7881,-5.7881,-5.7881,-5.7881,-5.7881,-5.7543,-5.6867,-5.6799,-5.6089,-5.4668,-5.389,-5.3518,-5.3518,-5.3518,-5.3518,-4.4691,0.0,0.0,0.0,0.0,0.0,0.0,0.0,0.0,0.0,-5.7601,-5.8324,-5.9274,-5.9417,0.0,0.0,0.0,0.0,0.0,0.0,0.0,0.0,0.0,0.0,0.0,0.0,0.0,0.0,-5.8547,-5.8964,-5.9184,-6.0529,-6.1741,-6.2743,-6.278,-6.278,-6.278,-6.278,-6.278,-6.278,-6.3429,-6.3723,-6.3759,-6.4604,-6.5301,-6.5852,-6.6072,-6.6512,-6.699,-6.6402,-6.6512,-6.7063,-6.7283,-6.7357,-6.7393,-6.7614,-6.7687,-6.7687,-6.7687,-6.7687,-6.7687,-6.7687,-6.7687,-6.765,-6.743,-6.7357,-6.7173,-6.6402,-6.6182,-6.5852,-6.4457,-6.3906,-6.3576,-6.2952,-6.278,-6.278,-6.278,-6.278,-6.278,-6.278,-6.278,-6.278,-6.278,-6.2129,-6.1548,-6.1286,-6.058,-5.9736,-5.8875,-5.8772,-5.8529,-5.7954,-5.7881,-5.7881,-5.7881,-5.7881,-5.7881,-5.7881,-5.7881,-5.7881,-5.7881,-5.7881,-5.778,-5.7577,-5.707,-5.6596,-5.619,-5.4905,-5.4025,-5.3518,-5.3518,-5.3518,0.0,0.0,0.0,0.0,0.0,0.0,0.0,0.0,0.0,0.0,0.0,-5.7886,-5.9171,0.0,0.0,0.0,0.0,0.0,0.0,0.0,0.0,0.0,0.0,0.0,0.0,-5.7997,-5.7997,-5.7997,-5.8767,-5.9478,-6.0162,-6.141,-6.2328,-6.2805,-6.278,-6.278,-6.278,-6.278,-6.2989,-6.3356,-6.387,-6.4273,-6.464,-6.5448,-6.6072,-6.6512,-6.6843,-6.7247,-6.765,-6.7173,-6.7283,-6.7687,-6.7687,-6.7687,-6.7687,-6.7687,-6.7687,-6.7687,-6.7687,-6.7687,-6.7687,-6.7687,-6.7687,-6.7687,-6.7687,-6.7687,-6.7577,-6.7136,-6.6769,-6.6292,-6.5338,-6.4604,-6.398,-6.3466,-6.3062,-6.278,-6.278,-6.278,-6.278,-6.278,-6.278,-6.278,-6.278,-6.2402,-6.1996,-6.1659,-6.12,-6.0453,-5.9278,-5.9111,-5.8772,-5.7991,-5.7881,-5.7881,-5.7881,-5.7881,-5.7881,-5.7881,-5.7881,-5.7881,-5.7881,-5.7881,-5.7881,-5.7881,-5.7476,-5.7103,-5.6799,-5.531,-5.4228,-5.3518,-5.3518,-5.3518,0.0,0.0,0.0,0.0,0.0,0.0,0.0,0.0,0.0,0.0,0.0,0.0,0.0,0.0,0.0,0.0,0.0,0.0,0.0,0.0,0.0,0.0,0.0,0.0,-5.7997,-5.7997,-5.7997,-5.7997,-5.8841,-6.0052,-6.163,-6.2401,-6.278,-6.278,-6.278,-6.278,-6.278,-6.2915,-6.3319,-6.409,-6.4273,-6.4751,-6.5485,-6.6256,-6.6623,-6.6659,-6.7393,-6.7687,-6.7687,-6.7687,-6.7687,-6.7687,-6.7687,-6.7687,-6.7687,-6.7687,-6.7687,-6.7687,-6.7687,-6.7687,-6.7687,-6.7687,-6.7687,-6.7687,-6.7687,-6.7687,-6.7687,-6.7687,-6.7173,-6.6623,-6.6512,-6.5448,-6.4347,-6.4237,-6.3576,-6.2952,-6.2952,-6.2879,-6.278,-6.278,-6.278,-6.278,-6.278,-6.278,-6.2541,-6.1824,-6.1814,-6.125,-5.9476,-5.9314,-5.9012,-5.7991,-5.7881,-5.7881,-5.7881,-5.7881,-5.7881,-5.7881,-5.7881,-5.7881,-5.7881,-5.7881,-5.7881,-5.7881,-5.7881,-5.7543,-5.6799,-5.5412,-5.4329,-5.3619,-5.3619,-5.3585,0.0,0.0,0.0,0.0,0.0,0.0,0.0,0.0,0.0,0.0,0.0,0.0,0.0,0.0,0.0,0.0,0.0,0.0,0.0,0.0,0.0,0.0,0.0,0.0,-5.7923,-5.7997,-5.7997,-5.7997,-5.9355,-6.086,-6.2475,-6.2732,-6.278,-6.278,-6.278,-6.278,-6.278,-6.3503,-6.3906,-6.4127,-6.5411,-6.6109,-6.6292,-6.71,-6.7467,-6.7467,-6.7614,-6.7687,-6.7687,-6.7687,-6.7687,-6.7687,-6.7687,-6.7687,-6.7687,-6.7687,-6.7687,-6.7687,-6.7687,-6.7687,-6.7687,-6.7687,-6.7687,-6.7687,-6.7687,-6.7687,-6.7687,-6.7687,-6.7577,-6.732,-6.6659,-6.6256,-6.5852,-6.5228,-6.4457,-6.3833,-6.3833,-6.3319,-6.278,-6.278,-6.278,-6.278,-6.278,-6.278,-6.2755,-6.2592,-6.3152,-6.2758,-6.0437,-6.0709,-6.0305,-5.8133,-5.7881,-5.7881,-5.7881,-5.7881,-5.7881,-5.7881,-5.7881,-5.7881,-5.7881,-5.7881,-5.7881,-5.7881,-5.7881,-5.7543,-5.6799,-5.5919,-5.5108,-5.4397,-5.4397,-5.4059,0.0,0.0,0.0,-4.4691,0.0,0.0,0.0,0.0,0.0,0.0,0.0,0.0,0.0,0.0,0.0,0.0,0.0,0.0,0.0,0.0,0.0,0.0,0.0,0.0,-5.7997,-5.7997,-5.818,-5.8584,-5.9722,-6.0933,-6.2144,-6.2585,-6.278,-6.278,-6.278,-6.3025,-6.3429,-6.387,-6.4494,-6.5301,-6.6109,-6.6696,-6.71,-6.7504,-6.7687,-6.7687,-6.7687,-6.7687,-6.7687,-6.7687,-6.7687,-6.7687,-6.7687,-6.7687,-6.7687,-6.7687,-6.7687,-6.7687,-6.7687,-6.7687,-6.7687,-6.7687,-6.7687,-6.7687,-6.7687,-6.7687,-6.7687,-6.7687,-6.7687,-6.7614,-6.7173,-6.6806,-6.6402,-6.5999,-6.5301,-6.4604,-6.42,-6.3759,-6.3319,-6.2853,-6.278,-6.278,-6.278,-6.278,-6.278,-6.278,-6.3172,-6.2719,-6.0681,-6.0751,-6.0188,-5.8099,-5.7881,-5.7881,-5.7881,-5.7881,-5.7881,-5.7881,-5.7881,-5.7881,-5.7881,-5.7881,-5.7881,-5.7881,-5.7881,-5.7712,-5.734,-5.6968,-5.6224,-5.5141,-5.4769,-5.4397,0.0,0.0,0.0,0.0,0.0,-4.5112,0.0,0.0,0.0,0.0,0.0,0.0,0.0,0.0,0.0,0.0,0.0,0.0,0.0,0.0,0.0,0.0,0.0,0.0,0.0,-5.829,-5.8657,-5.9148,-6.0089,-6.0896,-6.1557,-6.2365,-6.278,-6.278,-6.2989,-6.3392,-6.409,-6.442,-6.5191,-6.6512,-6.6659,-6.7063,-6.7687,-6.7687,-6.7687,-6.7687,-6.7687,-6.7687,-6.7687,-6.7687,-6.7687,-6.7687,-6.7687,-6.7687,-6.7687,-6.7687,-6.7687,-6.7687,-6.7687,-6.7687,-6.7687,-6.7687,-6.7687,-6.7687,-6.7687,-6.7687,-6.7687,-6.7687,-6.7687,-6.7687,-6.7687,-6.721,-6.6733,-6.6733,-6.6109,-6.5338,-6.4677,-6.431,-6.387,-6.3209,-6.289,-6.2853,-6.3025,-6.2915,-6.2853,-6.3025,-6.3062,-6.2453,-6.0855,-6.0925,-6.0308,-5.8351,-5.8273,-5.8235,-5.7952,-5.7881,-5.7881,-5.7881,-5.7881,-5.7881,-5.7881,-5.7881,-5.7881,-5.7881,-5.7881,-5.7881,-5.7881,-5.7881,-5.7205,-5.5919,-5.531,-5.4938,0.0,0.0,0.0,0.0,-4.5773,0.0,0.0,0.0,0.0,-4.6287,0.0,0.0,0.0,0.0,0.0,0.0,0.0,0.0,0.0,0.0,0.0,0.0,0.0,0.0,0.0,-5.9281,-5.9869,-5.9258,-6.0603,-6.1484,-6.1594,-6.2365,-6.278,-6.278,-6.3539,-6.398,-6.409,-6.5521,-6.6329,-6.6512,-6.721,-6.7614,-6.7687,-6.7687,-6.7687,-6.7687,-6.7687,-6.7687,-6.7687,-6.7687,-6.7687,-6.7687,-6.7687,-6.7687,-6.7687,-6.7687,-6.7687,-6.7687,-6.7687,-6.7687,-6.7687,-6.7687,-6.7687,-6.7687,-6.7687,-6.7687,-6.7687,-6.7687,-6.7687,-6.7687,-6.7687,-6.7614,-6.754,-6.754,-6.6953,-6.6329,-6.6256,-6.5118,-6.4053,-6.398,-6.3319,-6.3062,-6.3796,-6.3319,-6.3062,-6.3833,-6.3943,-6.3356,-6.1684,-6.2717,-6.2378,-5.9283,-5.9667,-5.9494,-5.8058,-5.7881,-5.7881,-5.7881,-5.7881,-5.7881,-5.7881,-5.7881,-5.7881,-5.7881,-5.7881,-5.7881,-5.7881,-5.7881,-5.7476,-5.6664,-5.6596,-5.619,0.0,0.0,0.0,0.0,0.0,0.0,-4.7021,0.0,-4.5773,0.0,0.0,0.0,0.0,0.0,0.0,0.0,0.0,0.0,0.0,0.0,0.0,0.0,0.0,0.0,0.0,0.0,0.0,0.0,-5.9979,-6.0713,-6.0236,-6.1887,-6.278,-6.278,-6.3649,-6.431,-6.4787,-6.5925,-6.6733,-6.7173,-6.754,-6.7687,-6.7687,-6.7687,-6.7687,-6.7687,-6.7687,-6.7687,-6.7687,-6.7687,-6.7687,-6.7687,-6.7687,-6.7687,-6.7687,-6.7687,-6.7687,-6.7687,-6.7687,-6.7687,-6.7687,-6.7687,-6.7687,-6.7687,-6.7687,-6.7687,-6.7687,-6.7687,-6.7687,-6.7687,-6.7687,-6.7687,-6.7687,-6.7687,-6.743,-6.7063,-6.6586,-6.6329,-6.5742,-6.4347,-6.4567,-6.4787,-6.42,-6.3796,-6.3503,-6.3356,-6.3759,-6.3492,-6.1823,-6.2578,-6.2391,-6.0076,-6.0184,-5.9874,-5.8632,-5.8152,-5.7881,-5.7881,-5.7881,-5.7881,-5.7881,-5.7881,-5.7881,-5.7881,-5.7881,-5.7881,-5.7881,-5.7881,-5.7712,-5.7408,-5.7002,-5.663,-5.5684,0.0,0.0,0.0,0.0,0.0,0.0,0.0,0.0,0.0,0.0,0.0,0.0,0.0,0.0,0.0,0.0,0.0,0.0,0.0,0.0,0.0,0.0,0.0,0.0,0.0,0.0,0.0,0.0,-6.0052,-5.9221,-6.13,-6.2585,-6.278,-6.387,-6.4714,-6.5301,-6.6329,-6.71,-6.7687,-6.7687,-6.7687,-6.7687,-6.7687,-6.7687,-6.7687,-6.7687,-6.7687,-6.7687,-6.7687,-6.7687,-6.7687,-6.7687,-6.7687,-6.7687,-6.7687,-6.7687,-6.7687,-6.7687,-6.7687,-6.7687,-6.7687,-6.7687,-6.7687,-6.7687,-6.7687,-6.7687,-6.7687,-6.7687,-6.7687,-6.7687,-6.7687,-6.7687,-6.7687,-6.7687,-6.7577,-6.7247,-6.743,-6.7247,-6.5705,-6.5815,-6.5852,-6.4897,-6.4383,-6.3943,-6.3576,-6.3833,-6.3727,-6.2749,-6.332,-6.3004,-6.0895,-6.0902,-6.0393,-5.8838,-5.822,-5.7881,-5.7881,-5.7881,-5.7881,-5.7881,-5.7881,-5.7881,-5.7881,-5.7881,-5.7881,-5.7881,-5.7881,-5.7881,-5.7881,-5.734,-5.7103,0.0,0.0,0.0,-5.5522,0.0,0.0,0.0,0.0,-4.9003,0.0,0.0,0.0,0.0,0.0,0.0,0.0,0.0,0.0,0.0,0.0,0.0,0.0,0.0,0.0,0.0,0.0,0.0,0.0,0.0,0.0,-5.9221,-6.075,-6.1998,-6.278,-6.442,-6.5264,-6.5301,-6.688,-6.765,-6.7687,-6.7687,-6.7687,-6.7687,-6.7687,-6.7687,-6.7687,-6.7687,-6.7687,-6.7687,-6.7687,-6.7687,-6.7687,-6.7687,-6.7687,-6.7687,-6.7687,-6.7687,-6.7687,-6.7687,-6.7687,-6.7687,-6.7687,-6.7687,-6.7687,-6.7687,-6.7687,-6.7687,-6.7687,-6.7687,-6.7687,-6.7687,-6.7687,-6.7687,-6.7687,-6.7687,-6.7907,-6.8678,-6.8238,-6.7907,-6.8605,-6.6916,-6.5595,-6.6292,-6.5118,-6.4347,-6.5118,-6.4567,-6.4347,-6.5092,-6.5899,-6.514,-6.1894,-6.2234,-6.1415,-5.8199,-5.7915,-5.7881,-5.7881,-5.7881,-5.7881,-5.7881,-5.7881,-5.7881,-5.7881,-5.7881,-5.7881,-5.7881,-5.7881,-5.7881,-5.7881,-5.7881,-5.7848,-6.119,-6.119,-6.0933,-5.9832,0.0,0.0,0.0,0.0,0.0,0.0,0.0,0.0,0.0,0.0,0.0,0.0,0.0,0.0,0.0,0.0,0.0,0.0,0.0,0.0,0.0,0.0,0.0,0.0,0.0,0.0,0.0,-5.9942,-6.141,-6.2768,-6.4457,-6.5301,-6.5301,-6.688,-6.7687,-6.7687,-6.7687,-6.7687,-6.7687,-6.7687,-6.7687,-6.7687,-6.7687,-6.7687,-6.7687,-6.7687,-6.7687,-6.7687,-6.7687,-6.7687,-6.7687,-6.7687,-6.7687,-6.7687,-6.7687,-6.7687,-6.7687,-6.7687,-6.7687,-6.7687,-6.7687,-6.7687,-6.7687,-6.7687,-6.7687,-6.7687,-6.7687,-6.7687,-6.7834,-6.8385,-6.8495,-6.8715,-6.9522,-6.9889,-6.9853,-6.9045,-6.9119,-6.8678,-6.6806,-6.6476,-6.6219,-6.5411,-6.5521,-6.5595,-6.5338,-6.5999,-6.5834,-6.4118,-6.3681,-6.284,-6.115,-5.9573,-5.8423,-5.7915,-5.7881,-5.7881,-5.7881,-5.7881,-5.7881,-5.7881,-5.7881,-5.7881,-5.7881,-5.8389,-5.8389,-5.7915,-5.8389,-5.8355,-6.3649,-6.3906,-6.3759,-6.2365,-6.141,0.0,-5.785,0.0,-5.4546,0.0,0.0,0.0,0.0,0.0,0.0,0.0,0.0,0.0,0.0,0.0,0.0,0.0,0.0,0.0,0.0,0.0,0.0,0.0,0.0,0.0,0.0,0.0,-6.086,-6.2743,-6.4457,-6.5301,-6.5301,-6.688,-6.7687,-6.7687,-6.7687,-6.7687,-6.7687,-6.7687,-6.7687,-6.7687,-6.7687,-6.7687,-6.7687,-6.7687,-6.7687,-6.7687,-6.7687,-6.7687,-6.7724,-6.8017,-6.8128,-6.8091,-6.7797,-6.7687,-6.7687,-6.7687,-6.7687,-6.7687,-6.7687,-6.7687,-6.7687,-6.7687,-6.7687,-6.7687,-6.7687,-6.7687,-6.7834,-6.8348,-6.8678,-6.9119,-6.9926,-7.0734,-7.1101,-7.033,-7.055,-7.033,-6.8531,-6.7907,-6.7247,-6.5925,-6.6182,-6.6402,-6.6182,-6.6623,-6.6354,-6.4842,-6.4219,-6.3227,-6.1493,-5.9876,-5.8693,-5.7949,-5.7881,-5.7881,-5.7881,-5.7881,-5.7881,-5.7881,-5.7881,-5.7881,-5.7881,-5.866,-5.8761,-5.8321,-5.9066,-5.9133]},{"header":{"parameterUnit":"m.s-1","parameterCategory":1,"la1":30.6,"la2":29.2853,"lo1":-89.7004,"lo2":-87.6739,"dx":0.0162,"dy":0.0183,"nx":112,"ny":82,"refTime":"2023-01-11T06:00:00:Z","depth":0,"parameterNumber":3,"parameterNumberName":"V-component_of_WINDS"},"data":[0.0,0.0,0.0,0.0,0.0,0.0,0.0,0.0,0.0,0.0,0.0,0.0,0.0,0.0,0.0,0.0,0.0,0.0,0.0,0.0,0.0,0.0,0.0,0.0,0.0,0.0,0.0,0.0,0.0,0.0,0.0,0.0,0.0,0.0,0.0,0.0,0.0,0.0,0.0,0.0,0.0,0.0,0.0,0.0,0.0,0.0,0.0,0.0,0.0,0.0,0.0,0.0,0.0,0.0,0.0,0.0,0.0,0.0,0.0,0.0,0.0,0.0,0.0,0.0,0.0,0.0,0.0,0.0,0.0,0.0,0.0,0.0,0.0,0.0,0.0,0.0,0.0,0.0,0.0,0.0,0.0,0.0,0.0,0.0,0.0,0.0,0.0,0.0,0.0,0.0,1.9629,1.9414,1.9375,1.959,2.0078,2.0059,1.9844,1.9414,0.0,0.0,0.0,0.0,0.0,0.0,0.0,0.0,0.0,0.0,0.0,0.0,0.0,0.0,0.0,0.0,0.0,0.0,0.0,0.0,0.0,0.0,0.0,0.0,0.0,0.0,0.0,0.0,0.0,0.0,0.0,0.0,0.0,0.0,0.0,0.0,0.0,0.0,0.0,0.0,0.0,0.0,0.0,0.0,0.0,0.0,0.0,0.0,0.0,0.0,0.0,0.0,0.0,0.0,0.0,0.0,0.0,0.0,0.0,0.0,0.0,0.0,0.0,0.0,0.0,0.0,0.0,0.0,0.0,0.0,0.0,0.0,0.0,0.0,0.0,0.0,0.0,0.0,0.0,0.0,0.0,0.0,0.0,0.0,0.0,0.0,0.0,0.0,0.0,0.0,0.0,0.0,0.0,0.0,0.0,0.0,0.0,0.0,0.0,0.0,0.0,0.0,0.0,0.0,1.9046,1.9746,1.9824,2.0156,2.0917,2.0684,2.0273,1.9844,0.0,0.0,0.0,0.0,0.0,0.0,0.0,0.0,0.0,0.0,0.0,0.0,0.0,0.0,0.0,0.0,0.0,0.0,0.0,0.0,0.0,0.0,0.0,0.0,0.0,0.0,0.0,0.0,0.0,0.0,0.0,0.0,0.0,0.0,0.0,0.0,0.0,0.0,0.0,0.0,0.0,0.0,0.0,0.0,0.0,0.0,0.0,0.0,0.0,0.0,0.0,0.0,0.0,0.0,0.0,0.0,0.0,0.0,0.0,0.0,0.0,0.0,0.0,0.0,0.0,0.0,0.0,0.0,0.0,0.0,0.0,0.0,0.0,0.0,0.0,0.0,0.0,0.0,0.0,0.0,0.0,0.0,0.0,0.0,0.0,0.0,0.0,0.0,0.0,0.0,0.0,0.0,0.0,0.0,0.0,0.0,0.0,0.0,0.0,0.0,0.0,0.0,0.0,1.9299,1.9834,2.1257,2.0736,2.074,2.1926,2.1153,2.0391,1.9941,1.9512,0.0,0.0,0.0,0.0,0.0,0.0,0.0,0.0,0.0,0.0,0.0,0.0,0.0,0.0,0.0,0.0,0.0,0.0,0.0,0.0,0.0,0.0,0.0,0.0,0.0,0.0,0.0,0.0,0.0,0.0,0.0,0.0,0.0,0.0,0.0,0.0,0.0,0.0,0.0,0.0,0.0,0.0,0.0,0.0,0.0,0.0,0.0,0.0,0.0,0.0,0.0,0.0,0.0,0.0,0.0,0.0,0.0,0.0,0.0,0.0,0.0,0.0,0.0,0.0,0.0,0.0,0.0,0.0,0.0,0.0,0.0,0.0,0.0,0.0,0.0,0.0,0.0,0.0,0.0,0.0,0.0,0.0,0.0,0.0,0.0,0.0,0.0,0.0,0.0,0.0,0.0,0.0,0.0,0.0,0.0,0.0,0.0,0.0,0.0,0.0,0.0,0.0,2.0484,2.134,2.2934,2.2025,2.1871,2.3317,2.2007,2.0903,2.0474,1.9803,0.0,0.0,0.0,0.0,0.0,0.0,0.0,0.0,0.0,0.0,0.0,0.0,0.0,0.0,0.0,0.0,0.0,0.0,0.0,0.0,0.0,0.0,0.0,0.0,0.0,0.0,0.0,0.0,0.0,0.0,0.0,0.0,0.0,0.0,0.0,0.0,0.0,0.0,0.0,0.0,0.0,0.0,0.0,0.0,0.0,0.0,0.0,0.0,0.0,0.0,0.0,0.0,0.0,0.0,0.0,0.0,0.0,0.0,0.0,0.0,0.0,0.0,0.0,0.0,0.0,0.0,0.0,0.0,0.0,0.0,0.0,0.0,0.0,0.0,0.0,0.0,0.0,0.0,0.0,0.0,0.0,0.0,0.0,0.0,0.0,0.0,0.0,0.0,0.0,0.0,0.0,0.0,0.0,0.0,0.0,0.0,0.0,0.0,0.0,0.0,0.0,0.0,2.2252,2.3549,2.4288,2.372,2.3935,2.5457,2.372,2.2397,2.205,2.0686,0.0,0.0,0.0,0.0,0.0,0.0,0.0,0.0,0.0,0.0,0.0,0.0,0.0,0.0,0.0,0.0,0.0,0.0,0.0,0.0,0.0,0.0,0.0,0.0,0.0,0.0,0.0,0.0,0.0,0.0,0.0,0.0,0.0,0.0,0.0,0.0,0.0,0.0,0.0,0.0,0.0,0.0,0.0,0.0,0.0,0.0,0.0,0.0,0.0,0.0,0.0,0.0,0.0,0.0,0.0,0.0,0.0,0.0,0.0,0.0,0.0,0.0,0.0,0.0,0.0,0.0,0.0,0.0,0.0,0.0,0.0,0.0,0.0,0.0,0.0,0.0,0.0,0.0,0.0,0.0,0.0,0.0,0.0,0.0,0.0,0.0,0.0,0.0,0.0,0.0,0.0,0.0,0.0,0.0,0.0,0.0,0.0,0.0,0.0,0.0,0.0,0.0,2.1576,2.2687,0.0,2.3544,2.3544,2.4605,2.3526,2.2353,2.128,0.0,0.0,0.0,0.0,0.0,0.0,0.0,0.0,0.0,0.0,0.0,0.0,0.0,0.0,0.0,0.0,0.0,0.0,0.0,0.0,0.0,0.0,0.0,0.0,0.0,0.0,0.0,0.0,0.0,0.0,0.0,0.0,0.0,0.0,0.0,0.0,0.0,0.0,0.0,0.0,0.0,0.0,0.0,0.0,0.0,0.0,0.0,0.0,0.0,0.0,0.0,0.0,0.0,0.0,0.0,0.0,0.0,0.0,0.0,0.0,0.0,0.0,0.0,0.0,0.0,0.0,0.0,0.0,0.0,0.0,0.0,0.0,0.0,0.0,0.0,0.0,0.0,0.0,0.0,0.0,0.0,0.0,0.0,0.0,0.0,0.0,0.0,0.0,0.0,0.0,0.0,0.0,0.0,0.0,0.0,0.0,0.0,0.0,0.0,0.0,0.0,0.0,2.1611,2.2765,2.413,0.0,2.5094,2.4737,2.5251,2.4329,2.3067,2.1425,0.0,0.0,0.0,0.0,0.0,0.0,0.0,0.0,0.0,0.0,0.0,0.0,0.0,0.0,0.0,0.0,0.0,0.0,0.0,0.0,0.0,0.0,0.0,0.0,0.0,0.0,0.0,0.0,0.0,0.0,0.0,0.0,0.0,0.0,0.0,0.0,0.0,0.0,0.0,0.0,0.0,0.0,0.0,0.0,0.0,0.0,0.0,0.0,0.0,0.0,0.0,0.0,0.0,0.0,0.0,0.0,0.0,0.0,0.0,0.0,0.0,0.0,0.0,0.0,0.0,0.0,0.0,0.0,0.0,0.0,0.0,0.0,0.0,0.0,0.0,0.0,0.0,0.0,0.0,0.0,0.0,0.0,0.0,0.0,0.0,0.0,0.0,0.0,0.0,0.0,0.0,0.0,0.0,0.0,0.0,0.0,0.0,0.0,0.0,0.0,0.0,0.0,2.3822,2.636,2.8487,2.9615,2.8737,2.8076,2.8052,2.6567,2.4791,0.0,0.0,0.0,0.0,0.0,0.0,0.0,0.0,0.0,0.0,0.0,0.0,0.0,0.0,0.0,0.0,0.0,0.0,0.0,0.0,0.0,0.0,0.0,0.0,0.0,0.0,0.0,0.0,0.0,0.0,0.0,0.0,0.0,0.0,0.0,0.0,0.0,0.0,0.0,0.0,0.0,0.0,0.0,0.0,0.0,0.0,0.0,0.0,0.0,0.0,0.0,0.0,0.0,0.0,0.0,0.0,0.0,0.0,0.0,0.0,0.0,0.0,0.0,0.0,0.0,0.0,0.0,0.0,0.0,0.0,0.0,0.0,0.0,0.0,0.0,0.0,0.0,0.0,0.0,0.0,0.0,0.0,0.0,0.0,0.0,0.0,0.0,0.0,0.0,0.0,0.0,0.0,0.0,0.0,0.0,0.0,0.0,0.0,0.0,0.0,0.0,0.0,0.0,2.3568,2.5614,2.6842,2.6349,2.64,2.6422,2.6339,2.5295,2.4421,2.3898,0.0,0.0,0.0,0.0,0.0,0.0,0.0,0.0,0.0,0.0,0.0,0.0,0.0,0.0,0.0,0.0,0.0,0.0,0.0,0.0,0.0,0.0,0.0,0.0,0.0,0.0,0.0,0.0,0.0,0.0,0.0,0.0,0.0,0.0,0.0,0.0,0.0,0.0,0.0,0.0,0.0,0.0,0.0,0.0,0.0,0.0,0.0,0.0,0.0,0.0,0.0,0.0,0.0,0.0,0.0,0.0,0.0,0.0,0.0,0.0,0.0,0.0,0.0,0.0,0.0,0.0,0.0,0.0,0.0,0.0,0.0,0.0,0.0,0.0,0.0,0.0,0.0,0.0,0.0,0.0,0.0,0.0,0.0,0.0,0.0,0.0,0.0,0.0,0.0,0.0,0.0,0.0,0.0,0.0,0.0,0.0,0.0,0.0,0.0,0.0,0.0,0.0,2.5038,2.6733,2.7756,2.7451,2.7418,2.7174,2.6585,2.5807,2.4913,2.3906,0.0,0.0,0.0,0.0,0.0,0.0,0.0,0.0,0.0,0.0,0.0,0.0,0.0,0.0,0.0,0.0,0.0,0.0,0.0,0.0,0.0,0.0,0.0,0.0,0.0,0.0,0.0,0.0,0.0,0.0,0.0,0.0,0.0,0.0,0.0,0.0,0.0,0.0,0.0,0.0,0.0,0.0,0.0,0.0,0.0,0.0,0.0,0.0,0.0,0.0,0.0,0.0,0.0,0.0,0.0,0.0,0.0,0.0,0.0,0.0,0.0,0.0,0.0,0.0,0.0,0.0,0.0,0.0,0.0,0.0,0.0,0.0,0.0,0.0,0.0,0.0,0.0,0.0,0.0,0.0,0.0,0.0,0.0,0.0,0.0,0.0,0.0,0.0,0.0,0.0,0.0,0.0,0.0,0.0,0.0,0.0,0.0,0.0,0.0,0.0,0.0,0.0,2.7444,2.8917,3.0167,3.1138,3.0338,2.9237,2.8023,2.7385,2.598,2.3525,0.0,0.0,0.0,0.0,0.0,0.0,0.0,0.0,0.0,0.0,0.0,0.0,0.0,0.0,0.0,0.0,0.0,0.0,0.0,0.0,0.0,0.0,0.0,0.0,0.0,0.0,0.0,0.0,0.0,0.0,0.0,0.0,0.0,0.0,0.0,0.0,0.0,0.0,0.0,0.0,0.0,0.0,0.0,0.0,0.0,0.0,0.0,0.0,0.0,0.0,0.0,0.0,0.0,0.0,0.0,0.0,0.0,0.0,0.0,0.0,1.6292,0.0,0.0,0.0,0.0,0.0,0.0,0.0,0.0,0.0,0.0,0.0,0.0,0.0,0.0,0.0,0.0,0.0,0.0,0.0,0.0,0.0,0.0,0.0,0.0,0.0,0.0,0.0,0.0,0.0,0.0,0.0,0.0,0.0,0.0,0.0,0.0,0.0,0.0,0.0,0.0,0.0,2.7816,2.9038,2.9866,3.0126,2.9518,2.8799,2.8111,2.7086,2.625,2.5677,2.4717,0.0,0.0,0.0,0.0,0.0,0.0,0.0,0.0,0.0,0.0,0.0,0.0,0.0,0.0,0.0,0.0,0.0,0.0,0.0,0.0,0.0,0.0,0.0,0.0,0.0,0.0,0.0,0.0,0.0,0.0,0.0,0.0,0.0,0.0,0.0,0.0,0.0,0.0,0.0,0.0,0.0,0.0,0.0,0.0,0.0,0.0,0.0,0.0,0.0,0.0,0.0,0.0,0.0,0.0,0.0,0.0,0.0,0.0,0.0,0.0,1.7027,0.0,0.0,0.0,0.0,0.0,0.0,0.0,0.0,0.0,0.0,0.0,0.0,0.0,0.0,0.0,0.0,0.0,0.0,0.0,0.0,0.0,0.0,0.0,0.0,0.0,0.0,0.0,0.0,0.0,0.0,0.0,0.0,0.0,0.0,0.0,0.0,0.0,0.0,0.0,0.0,2.9827,3.0357,3.0757,3.135,3.0629,2.9959,2.9604,2.8763,2.8055,2.7544,2.6802,0.0,0.0,0.0,0.0,0.0,0.0,0.0,0.0,0.0,0.0,0.0,0.0,0.0,0.0,0.0,0.0,0.0,0.0,0.0,0.0,0.0,0.0,0.0,0.0,0.0,0.0,0.0,0.0,0.0,0.0,0.0,0.0,0.0,0.0,0.0,0.0,0.0,0.0,0.0,0.0,0.0,0.0,0.0,0.0,0.0,0.0,0.0,0.0,0.0,0.0,0.0,0.0,0.0,2.0263,2.0366,2.0366,2.0366,2.0517,2.0698,1.9765,1.9295,1.9215,1.8608,0.0,0.0,0.0,0.0,0.0,0.0,0.0,0.0,0.0,0.0,0.0,0.0,0.0,0.0,0.0,0.0,0.0,0.0,0.0,0.0,0.0,0.0,0.0,0.0,2.8026,2.7546,2.5506,0.0,0.0,0.0,0.0,0.0,0.0,0.0,0.0,0.0,0.0,0.0,3.1838,3.1662,3.1813,3.3011,3.2139,3.1455,3.124,3.067,2.9864,2.8812,2.8255,2.7567,0.0,0.0,0.0,0.0,0.0,0.0,0.0,0.0,0.0,0.0,0.0,0.0,0.0,0.0,0.0,0.0,0.0,0.0,0.0,0.0,0.0,0.0,0.0,0.0,0.0,0.0,0.0,0.0,0.0,0.0,0.0,0.0,1.9029,2.0359,0.0,0.0,0.0,0.0,0.0,0.0,0.0,0.0,0.0,0.0,0.0,0.0,0.0,1.9645,1.9969,2.1158,2.2039,2.2565,2.3374,2.376,2.376,2.376,2.3794,2.377,2.3313,0.0,1.9887,1.9907,0.0,0.0,0.0,0.0,0.0,0.0,0.0,0.0,0.0,0.0,0.0,0.0,0.0,0.0,0.0,0.0,0.0,0.0,0.0,0.0,0.0,0.0,2.688,2.8962,2.8793,2.8402,0.0,2.8188,2.7105,2.7952,2.7033,0.0,0.0,0.0,0.0,0.0,0.0,0.0,3.1461,3.1436,3.1813,3.3011,3.2491,3.1918,3.142,3.056,2.9606,2.8514,2.7831,2.7158,2.6475,2.5513,0.0,0.0,0.0,0.0,0.0,0.0,0.0,0.0,0.0,0.0,0.0,0.0,0.0,0.0,0.0,0.0,0.0,0.0,0.0,0.0,0.0,0.0,0.0,0.0,0.0,0.0,0.0,0.0,0.0,1.9943,2.1133,2.165,2.1306,2.0839,0.0,0.0,0.0,0.0,0.0,0.0,0.0,0.0,0.0,2.1493,2.1841,2.2163,2.2519,2.3139,2.3559,2.3777,2.4214,2.4414,2.4414,2.4414,2.4414,2.4414,2.4219,2.3493,2.2428,2.2063,2.2082,2.2303,0.0,0.0,0.0,0.0,2.2168,2.2271,2.3079,2.325,2.3205,2.4054,0.0,0.0,0.0,0.0,0.0,0.0,0.0,2.7312,0.0,0.0,2.9663,3.1283,3.1269,3.1124,3.1855,3.0968,2.9939,0.0,2.9076,2.89,2.9214,0.0,0.0,0.0,0.0,3.2382,3.2382,3.2616,3.2867,3.3068,3.2216,3.1554,3.1311,3.12,3.0649,2.9379,2.9967,2.9667,2.8015,2.781,2.6747,0.0,0.0,0.0,0.0,0.0,0.0,0.0,0.0,0.0,0.0,0.0,0.0,0.0,0.0,0.0,0.0,0.0,0.0,0.0,0.0,0.0,0.0,0.0,0.0,0.0,0.0,0.0,0.0,2.1511,2.2598,2.2812,2.293,2.2832,0.0,0.0,0.0,0.0,0.0,0.0,2.2047,2.2084,2.2674,2.3881,2.4062,2.4277,2.459,2.4707,2.4699,2.4699,2.4699,2.4699,2.4699,2.4699,2.4699,2.4699,2.4699,2.4699,2.4687,2.3828,2.3599,2.3658,2.3164,2.2871,2.2695,2.2695,2.2909,2.3293,2.4242,2.4427,2.4545,2.6184,2.6733,2.6843,2.757,0.0,0.0,0.0,0.0,2.9221,2.9755,3.063,3.1687,3.286,3.291,3.2692,3.2817,3.2516,3.1863,0.0,3.0633,3.0934,3.1311,0.0,0.0,0.0,0.0,3.3287,3.3136,3.3445,3.352,3.3162,3.2362,3.1797,3.1603,3.1782,3.1435,3.0145,3.0919,3.0644,2.8869,2.8873,2.7725,2.5245,0.0,0.0,0.0,0.0,0.0,0.0,0.0,0.0,0.0,0.0,0.0,0.0,0.0,0.0,0.0,0.0,0.0,0.0,0.0,0.0,0.0,0.0,0.0,0.0,0.0,0.0,0.0,0.0,0.0,2.3633,2.4082,0.0,0.0,0.0,0.0,2.2974,2.2955,2.3213,2.3641,2.366,2.39,2.4375,2.4785,2.5067,2.5086,2.5449,2.5615,2.5615,2.5615,2.5615,2.5615,2.5615,2.5615,2.5615,2.5615,2.5615,2.5557,2.4707,2.459,2.4969,2.4492,2.4551,2.4949,2.4949,2.5678,2.6735,2.7222,2.8114,2.908,2.9171,2.946,2.9935,3.0732,3.0879,0.0,0.0,3.0681,3.1354,3.1905,3.1721,3.1687,3.286,3.2265,3.1612,3.2139,3.224,3.219,0.0,3.1687,3.1361,3.1386,0.0,3.2792,3.2315,3.3169,3.3671,3.3187,3.3093,3.3119,3.3111,3.3502,3.3444,3.2673,3.1933,3.118,3.0336,2.8836,2.791,2.7767,2.6606,2.6045,2.631,2.5883,0.0,0.0,0.0,0.0,0.0,0.0,0.0,0.0,0.0,0.0,0.0,0.0,0.0,0.0,0.0,0.0,0.0,0.0,0.0,0.0,0.0,0.0,0.0,0.0,0.0,0.0,0.0,0.0,2.3711,2.3926,0.0,2.3809,2.3789,2.3848,2.3945,2.4219,2.457,2.5019,2.5039,2.5117,2.5206,2.541,2.5508,2.5508,2.5615,2.5693,2.5693,2.5693,2.583,2.6152,2.6152,2.6309,2.6562,2.6562,2.6562,2.6523,2.6211,2.5684,2.5067,2.459,2.4512,2.4741,2.5579,2.6152,2.6761,2.8454,2.8831,2.8744,2.9815,3.0754,3.1559,3.2234,3.237,3.2247,3.1705,3.202,3.2516,3.2717,3.2893,3.3194,3.3947,3.3822,3.3596,3.3796,3.3545,3.3294,3.3294,3.2842,3.2591,3.2943,3.3043,3.3119,3.3269,3.3646,3.3696,3.3144,3.3395,3.3264,3.2443,3.206,3.1523,3.0712,3.0976,3.0684,2.946,2.9693,2.9278,2.8139,2.8095,2.7613,2.6436,2.7741,2.7409,0.0,0.0,0.0,0.0,0.0,0.0,0.0,0.0,0.0,0.0,0.0,0.0,0.0,0.0,0.0,0.0,0.0,0.0,0.0,0.0,0.0,0.0,0.0,0.0,0.0,0.0,2.3686,2.416,2.4355,2.4453,2.4453,2.4453,2.457,2.4844,2.5137,2.543,2.5674,2.5693,2.5693,2.5693,2.5693,2.5693,2.5693,2.583,2.5957,2.5957,2.6044,2.6328,2.6602,2.6602,2.6836,2.7226,2.709,2.709,2.7278,2.756,2.6933,2.5703,2.541,2.5559,2.6061,2.6884,2.7466,2.82,3.0636,3.0965,3.0531,3.1636,3.2481,3.3144,3.352,3.3621,3.3545,3.3169,3.3345,3.3621,3.3621,3.3897,3.4274,3.4625,3.468,3.468,3.468,3.4424,3.4173,3.4173,3.3571,3.3144,3.3294,3.3194,3.3269,3.3822,3.3369,3.3,3.3024,3.2918,3.2476,3.16,3.1459,3.1002,3.0004,3.0831,3.0771,2.9251,3.0588,3.0648,2.8785,2.9729,2.9322,2.7297,2.9202,2.9421,2.7812,0.0,0.0,0.0,0.0,0.0,0.0,0.0,0.0,0.0,0.0,0.0,0.0,0.0,0.0,0.0,0.0,0.0,0.0,0.0,0.0,0.0,0.0,0.0,2.375,2.418,2.459,2.5134,2.5469,2.5742,2.5791,2.5742,2.5693,2.5693,2.5693,2.5693,2.5693,2.5693,2.5693,2.5693,2.5693,2.5693,2.5713,2.6172,2.6406,2.6445,2.6836,2.7051,2.707,2.707,2.7324,2.7748,2.7285,2.7376,2.7885,2.8684,2.8348,2.7275,2.7184,2.7885,2.8992,2.9091,2.9905,3.1354,3.3857,3.468,3.468,3.468,3.468,3.468,3.468,3.468,3.468,3.468,3.468,3.468,3.4705,3.4705,3.4705,3.4776,3.4731,3.4731,3.4731,3.4751,3.4705,3.4705,3.3872,3.2943,3.239,3.2742,3.3294,3.3803,3.2386,0.0,3.272,3.1662,3.0801,3.0775,3.204,3.2285,3.0882,3.1662,3.1461,2.9741,3.1324,3.1532,2.9721,3.1025,3.0887,2.907,3.0162,3.1553,3.3101,0.0,0.0,0.0,0.0,0.0,0.0,0.0,0.0,0.0,0.0,0.0,0.0,0.0,0.0,0.0,0.0,0.0,0.0,0.0,0.0,0.0,0.0,2.4102,2.4238,2.4609,2.5417,2.6736,2.6176,2.6062,2.6982,2.6255,2.5693,2.5693,2.5693,2.5693,2.5693,2.5693,2.5693,2.5693,2.5693,2.5849,2.6211,2.6328,2.6699,2.7324,2.7422,2.7812,2.8398,2.8398,2.8633,2.9098,2.8926,2.9559,3.0611,2.9809,3.1043,3.3305,3.0844,2.9535,2.9239,3.1115,3.2605,3.3766,3.4474,3.468,3.468,3.468,3.468,3.468,3.468,3.468,3.468,3.468,3.468,3.4781,3.5182,3.5282,3.5382,3.5805,3.5906,3.5906,3.5906,3.5604,3.5282,3.5282,3.4751,3.4223,3.4073,3.4173,3.3986,3.3131,3.2598,0.0,3.2722,3.2747,3.2474,3.1855,3.3042,3.2912,3.0554,3.1202,3.1365,3.0605,3.0712,3.0571,3.0076,3.1189,3.1689,3.1511,3.2183,3.2837,0.0,0.0,0.0,0.0,0.0,0.0,0.0,0.0,0.0,0.0,0.0,0.0,0.0,0.0,0.0,0.0,0.0,0.0,0.0,0.0,0.0,0.0,2.5941,2.5701,2.6418,2.5819,2.6079,2.81,2.7247,2.6812,2.7552,2.6935,2.6304,2.5742,2.5693,2.5693,2.5693,2.5693,2.5693,2.5693,2.5869,2.6133,2.6387,2.6738,2.7266,2.793,2.8105,2.8535,2.9199,2.9199,2.9434,2.9824,2.9648,3.052,3.1965,3.0866,3.2159,0.0,0.0,0.0,0.0,0.0,3.4332,3.5403,3.5403,3.5403,3.5403,3.5403,3.5403,3.5403,3.5403,3.5403,3.5403,3.5403,3.5403,3.5479,3.5805,3.5881,3.5981,3.6329,3.6405,3.6405,3.6405,3.6107,3.5881,3.5881,3.5805,0.0,3.5755,3.5177,3.4603,3.4306,3.3598,3.3363,3.4077,3.3353,3.2594,3.211,3.2565,3.225,3.0661,3.1113,0.0,0.0,0.0,3.1684,3.1684,3.2085,0.0,0.0,0.0,3.4012,3.4137,3.4188,0.0,0.0,3.2001,3.2044,0.0,0.0,0.0,0.0,0.0,0.0,0.0,0.0,0.0,0.0,0.0,0.0,0.0,0.0,0.0,0.0,2.7887,2.7764,2.9464,2.7689,2.6996,2.9143,2.8448,2.7814,2.7814,2.7673,2.7125,2.6014,2.5771,2.5693,2.5693,0.0,0.0,0.0,0.0,2.6406,2.6465,2.7317,2.7891,2.8359,2.875,2.9141,2.9626,2.9626,2.9766,3.0098,2.9726,3.0641,3.2259,3.1642,3.2116,3.3041,3.1832,3.2981,3.5278,3.4797,3.5379,3.6405,3.6405,0.0,0.0,3.6405,3.6405,3.6405,3.6405,3.6405,3.6405,3.6405,3.6405,3.6405,3.6405,3.6405,3.6405,3.6405,3.6405,3.6405,3.6405,3.6405,3.6405,3.6405,3.6857,3.7186,3.7186,3.6031,3.5382,3.6241,3.4847,3.424,3.5741,3.3537,3.1885,3.1831,3.1475,0.0,3.0898,3.1269,3.1348,3.0918,3.2458,3.3492,3.3838,3.3572,3.3741,3.4549,3.5151,3.5235,3.4703,3.441,3.3997,3.347,3.47,3.4981,0.0,0.0,0.0,0.0,0.0,0.0,0.0,0.0,0.0,0.0,0.0,0.0,0.0,0.0,0.0,2.9844,2.9346,2.9532,3.134,3.028,2.933,2.9395,2.9189,2.905,2.905,2.819,2.7505,2.7268,2.6284,2.5693,2.5693,2.5693,2.5693,2.5693,2.6172,2.6562,2.6894,2.7402,2.8047,2.8789,0.0,0.0,2.9626,2.9626,2.9609,2.9687,2.9609,3.048,3.1839,3.0515,3.1225,3.3099,3.3577,3.4724,3.615,3.6051,3.6168,3.6405,3.6405,3.6405,3.6405,3.6405,3.6405,3.6405,3.6405,3.6405,0.0,3.6405,3.6405,3.6405,3.6405,3.6405,3.6405,3.6405,3.6405,3.6405,3.6405,3.6405,3.6405,3.6405,3.6857,3.7186,3.7186,3.7287,3.7071,3.6178,3.4792,3.3912,3.4184,3.3095,3.2238,3.2127,3.2737,3.2537,3.1035,3.1269,3.1348,3.0918,3.1249,3.2502,3.4869,3.4891,3.5314,3.6221,3.7453,3.7095,3.4941,3.6033,3.6304,3.5726,3.4223,3.3746,0.0,0.0,0.0,0.0,0.0,0.0,0.0,0.0,0.0,0.0,0.0,2.8025,2.9015,0.0,3.0899,3.1872,3.1551,3.169,3.3189,3.2319,3.1553,3.1629,3.113,3.065,3.0328,2.9235,2.8262,2.7647,2.6428,2.5693,2.5693,2.5693,2.5693,2.5693,2.6367,2.6797,2.7012,2.7656,2.8301,2.8926,2.8926,2.9141,2.9626,2.9626,2.9626,2.9626,2.9626,3.0419,3.1801,3.1515,3.1636,3.2093,3.301,3.4215,3.5307,3.4605,3.48,3.5427,3.5427,3.581,3.6405,3.6405,3.6405,3.6405,3.6405,3.6405,3.6405,3.6405,3.6405,3.6405,3.6405,3.6405,3.6405,3.6405,3.6405,3.6405,3.6405,3.6405,3.6405,3.6405,3.6479,3.6503,3.6503,3.6603,3.6597,3.6387,3.5067,3.4204,3.4527,3.3516,3.2721,3.2665,3.242,3.1951,3.0957,3.1074,3.1113,3.0898,3.0898,3.1556,3.3042,3.4515,3.5504,3.601,3.7602,3.7668,3.6112,3.6274,3.6081,3.5504,3.4424,3.4349,0.0,0.0,0.0,0.0,0.0,0.0,0.0,0.0,2.6976,2.7645,2.8093,2.8879,3.0823,3.1677,3.2605,3.4135,3.3854,3.3728,3.474,3.4029,3.3628,3.414,3.3195,3.2181,3.1413,3.0193,2.9004,2.8049,2.6572,2.5693,2.5693,2.5693,2.5693,2.5693,2.6484,2.6973,2.7129,2.7832,2.8418,2.8926,2.8828,2.8984,2.9372,2.9372,2.9372,2.9372,2.9372,3.0013,3.1204,3.1918,3.1715,3.0905,3.1335,3.2404,3.3525,3.2632,3.3204,3.4385,3.4385,3.5283,3.6405,3.6405,3.6216,3.6048,3.631,3.6216,3.6073,3.631,3.6216,3.6001,3.6001,3.581,3.5595,3.5595,3.5595,3.574,3.6077,3.6175,3.62,3.6251,3.6133,3.5868,3.5587,3.5191,3.5209,3.625,3.5114,3.4328,3.4803,3.3586,3.2701,3.2701,3.1594,3.0898,3.0898,3.0898,3.0898,3.0898,3.0898,3.0995,3.1325,3.3586,3.4968,3.5154,3.696,3.7543,3.6773,3.6241,3.5633,3.5052,3.5052,3.5454,2.5262,2.5312,0.0,2.5674,2.6269,2.6934,0.0,0.0,2.8555,3.0263,3.193,3.3526,3.5051,3.5965,3.6422,3.6182,3.5637,3.5269,3.5408,3.5315,3.5244,3.5332,3.4365,3.3271,3.2096,3.0399,2.935,2.9235,2.703,2.5693,2.5693,2.5693,2.5693,2.5693,2.6211,2.6816,2.763,2.7748,2.8125,2.8906,2.8535,2.8398,2.8437,2.8437,2.8437,2.8437,2.8437,2.8545,2.8686,2.8787,2.9436,3.0287,2.9164,2.9565,3.0876,3.1927,3.3204,3.4385,3.4385,3.5283,3.6405,3.6405,3.5619,3.4824,3.6073,3.5571,3.4872,3.6048,3.5523,3.4629,3.4629,3.37,3.2733,3.2733,3.2733,3.3197,3.4982,3.5325,3.542,3.5798,3.6268,3.6156,3.4781,3.3867,3.3823,3.5221,3.4205,3.3297,3.3339,3.2035,3.117,3.117,3.0995,3.0898,3.0898,3.0898,3.0898,3.0898,3.0898,3.1498,3.2794,3.3191,3.3707,3.4508,3.6514,3.6781,3.5246,3.6924,3.7186,3.6229,3.6229,3.5981,2.623,0.0,0.0,0.0,2.75,2.7871,2.8301,2.873,2.9301,3.0063,3.0826,3.205,3.4334,3.5002,3.5654,0.0,3.686,3.6508,3.6508,3.5544,3.5132,3.5912,3.4632,3.3552,3.3167,3.0855,2.9396,2.9396,2.7352,2.6113,2.6113,2.6348,2.6484,2.6484,2.6914,2.7305,2.7708,2.8144,2.8437,2.8555,2.8633,2.8535,2.8301,2.8301,2.8301,2.8301,2.8301,2.8301,2.8301,2.8301,2.8654,2.9112,2.8495,2.8654,2.9197,2.9755,3.0824,3.1999,3.1999,3.2883,3.3995,3.3995,3.365,3.3304,3.3848,3.3601,3.3304,3.3848,3.3601,3.3224,3.3522,3.3135,3.2795,3.3012,3.3079,3.3301,3.4074,3.4274,3.432,3.4497,3.4297,3.3878,3.3224,3.239,3.2055,3.2664,3.2207,3.1825,3.1825,3.1267,3.0898,3.0898,3.0898,3.0898,3.0898,3.0898,3.0898,3.0898,3.0898,3.117,3.1767,3.2644,3.3254,3.3655,3.5527,3.6331,3.5975,3.6727,3.6985,3.6883,3.6556,3.6279,2.6934,0.0,0.0,2.8144,2.8476,2.873,2.9023,2.9434,2.9895,3.0286,3.0478,3.1318,3.3732,3.4532,3.5434,3.7314,3.7518,3.7412,3.7412,3.5771,3.4991,3.6086,3.4509,3.3337,3.3417,3.1252,2.9615,2.911,2.75,2.6562,2.6562,2.6855,2.7012,2.7012,2.7324,2.7598,2.7832,2.832,2.8594,2.8652,2.8711,2.8652,2.8457,2.834,2.8301,2.8301,2.8301,2.8301,2.8301,2.8301,2.8301,2.8301,2.8301,2.8301,2.8301,2.8301,2.9164,3.0307,3.0307,3.1184,3.228,3.228,3.2028,3.1825,3.218,3.2028,3.1847,3.2358,3.2228,3.2053,3.2485,3.2354,3.2124,3.2448,3.248,3.2609,3.3168,3.3244,3.3287,3.3441,3.2928,3.235,3.1902,3.1337,3.0898,3.0898,3.0898,3.0898,3.0898,3.0898,3.0898,3.0898,3.0898,3.0898,3.0898,3.0898,3.0898,3.0898,3.0898,3.0898,3.0898,3.194,3.2639,3.2832,3.4289,3.5405,3.6212,3.6235,3.6498,3.6983,3.6606,3.6405,0.0,0.0,2.8262,2.8281,2.8926,2.9531,2.9607,2.9883,3.0611,3.2031,3.2665,3.3487,3.4968,3.6441,3.7263,3.6792,3.7438,3.799,3.799,3.6257,3.5212,3.5761,3.4039,3.267,0.0,3.1412,3.0123,2.8368,2.7472,2.6992,2.6992,2.7012,2.7012,2.7012,2.7031,2.7441,2.8262,2.7891,2.8374,2.9531,2.8711,2.8516,2.8887,2.8476,2.8301,2.8301,2.8301,2.8301,2.8301,2.8301,2.8301,2.8301,2.8301,2.8301,2.8301,2.8301,2.9164,3.0307,3.0307,3.1184,3.228,3.228,3.1418,3.0618,3.1927,3.1367,3.0724,3.245,3.2032,3.1158,3.1545,3.0654,2.9718,2.9738,2.9738,3.0207,3.2038,3.2475,3.2601,3.3043,3.3092,3.2623,3.1208,3.0937,3.0898,3.0898,3.0898,3.0898,3.0898,3.0898,3.0898,3.0898,3.0898,3.0898,3.0898,3.0898,3.0898,3.0898,3.0898,3.0898,3.0898,3.0937,3.1337,3.2218,3.2861,3.3791,3.5044,3.5544,3.6035,3.643,3.6405,3.6405,0.0,0.0,2.8418,2.9004,2.957,2.998,2.998,3.0332,3.0818,3.1317,3.1552,3.2092,3.3586,3.5068,3.631,3.7133,3.8003,3.8266,3.7278,3.5442,3.4256,3.4311,3.2968,0.0,0.0,0.0,0.0,2.8684,2.7883,2.7441,2.7441,2.7715,2.7871,2.7871,2.7871,2.8008,2.8301,2.8437,2.8574,2.8711,2.8437,2.8516,2.8906,2.8476,2.8301,2.8301,2.8301,2.8301,2.8301,2.8301,2.8301,2.8301,2.8301,2.8301,2.8301,2.8301,2.8601,2.8953,2.8953,2.925,2.967,2.967,2.9355,2.9059,2.9513,2.9505,2.9501,3.0125,3.0174,3.0133,3.0574,3.0356,3.0059,3.0371,3.0449,3.0661,3.1297,3.1374,3.1471,3.1632,3.1652,3.1498,3.0995,3.0898,3.0898,3.0898,3.0898,3.0898,3.0898,3.0898,3.0898,3.0898,3.0898,3.0898,3.0898,3.0898,3.0898,3.0898,3.0898,3.0898,3.0898,3.0898,3.1033,3.1317,3.2081,3.2899,3.3737,3.5109,3.5893,3.6009,3.6625,3.6757,0.0,2.8965,2.9551,2.9941,3.0351,3.0625,3.0488,3.0684,3.0898,3.0898,3.0898,3.117,3.215,3.3979,3.5453,3.5868,3.7597,3.8284,3.6456,3.4926,3.3857,3.3442,3.2196,3.1038,0.0,0.0,0.0,2.8472,2.8085,2.7891,2.7891,2.8144,2.8301,2.8301,2.8301,2.8067,2.7511,2.7758,2.7834,2.7739,2.7836,2.832,2.9141,2.8093,2.7956,2.8516,2.8359,2.8301,2.8301,2.8301,2.8301,2.8301,2.8301,2.8301,2.8301,2.8301,2.8301,2.8301,2.8301,2.8301,2.8301,2.8301,2.8301,2.8301,2.8301,2.8594,2.8945,2.9101,2.9453,2.9902,3.0332,3.0449,3.0527,3.082,3.0898,3.0898,3.0898,3.0898,3.0898,3.0898,3.0898,3.0898,3.0898,3.0898,3.0898,3.0898,3.0898,3.0898,3.0898,3.0898,3.0898,3.0898,3.0898,3.0898,3.0898,3.0898,3.0898,3.0898,3.0898,3.0898,3.0898,3.0898,3.0898,3.0898,3.1486,3.2081,3.2769,3.4477,3.5362,3.5544,3.6875,3.7186,2.8887,3.0234,3.1406,3.1055,3.125,3.1406,3.1016,3.0898,3.0859,3.0859,3.084,3.082,0.0,0.0,3.4714,3.3283,3.6254,3.7892,3.5495,3.4699,3.3989,0.0,0.0,0.0,0.0,0.0,0.0,2.7845,0.0,2.8301,2.8301,2.8301,2.8301,2.8301,2.8228,2.7511,2.61,2.6045,2.6189,2.6603,2.6867,2.7805,2.9308,2.7325,2.7253,2.8633,2.828,2.816,2.8213,2.8194,2.8228,2.8301,2.8301,2.8301,2.8301,2.8301,2.8301,2.8301,2.8301,2.8301,2.8301,2.8301,2.8301,2.8301,2.832,2.8613,2.9043,2.9473,2.9902,3.0332,3.0781,3.0898,3.0898,3.0898,3.0898,3.0898,3.0898,3.0898,3.0898,3.0898,3.0898,3.0898,3.0898,3.0898,3.0898,3.0898,3.0898,3.0898,3.0898,3.0898,3.0898,3.0898,3.0898,3.0898,3.0898,3.0898,3.0898,3.0898,3.0898,3.0898,3.0898,3.0898,3.0898,3.0898,3.0898,3.1337,3.2128,3.3595,3.4555,3.5017,3.7022,3.7689,3.0098,3.0703,3.1172,3.1719,3.168,3.1484,3.1387,3.084,3.0371,3.0371,3.0117,3.0,0.0,0.0,0.0,3.3071,3.4847,0.0,3.3879,3.3514,0.0,3.1652,0.0,3.0547,2.9648,2.9626,0.0,0.0,2.8223,2.8301,2.8301,2.8301,2.8301,2.8301,2.7222,2.6499,2.61,2.4986,2.4619,2.5065,2.5036,2.5394,2.6054,2.5449,2.5398,2.5726,2.5461,2.594,2.694,2.6737,2.733,2.8301,2.8301,2.8301,2.8301,2.8301,2.8301,2.8301,2.8301,2.8301,2.8301,2.8301,2.8301,2.8359,2.8672,2.9062,2.9492,2.9922,3.0371,3.0742,3.0859,3.0898,3.0898,3.0898,3.0898,3.0898,3.0898,3.0898,3.0898,3.0898,3.0898,3.0898,3.0898,3.0898,3.0898,3.0898,3.0898,3.0898,3.0898,3.0898,3.0898,3.0898,3.0898,3.0898,3.0898,3.0898,3.0898,3.0898,3.0898,3.0898,3.0898,3.0898,3.0898,3.0898,3.0898,3.0995,3.1204,3.2684,3.3846,3.4593,3.6251,3.7313,3.0859,3.1309,3.1562,3.2111,3.1836,3.1406,3.1016,3.0547,3.0137,2.9961,2.9726,0.0,3.0117,0.0,0.0,0.0,0.0,0.0,3.2416,3.2701,3.253,0.0,3.0898,0.0,2.9648,2.9626,2.9297,0.0,2.8574,2.8574,2.8574,2.875,2.8848,2.8848,2.7363,2.5793,2.4334,2.3432,2.3187,2.3508,2.3494,2.4098,2.5201,2.4316,2.4316,2.4933,2.4647,2.4959,2.5686,2.5518,2.5993,2.6791,2.7492,2.7308,2.6902,2.8336,2.8391,2.7878,2.8629,2.8848,2.8828,2.8633,2.8574,2.8652,2.9082,2.9512,2.9902,3.0137,3.0527,3.0898,3.0898,3.0898,3.0898,3.0898,3.0898,3.0898,3.0898,3.0898,3.0898,3.0898,3.0898,3.0898,3.0898,3.0898,3.0898,3.0898,3.0898,3.0898,3.0898,3.0898,3.0898,3.0898,3.0898,3.0898,3.0898,3.0898,3.0898,3.0898,3.0898,3.0898,3.0898,3.0898,3.0898,3.0898,3.0898,3.0898,3.0898,3.2358,3.3218,3.3497,3.5236,3.6583,3.1289,3.1797,3.209,3.2148,3.1836,3.1309,3.0488,3.0195,3.0,2.957,0.0,2.9551,3.0019,3.1151,3.1763,3.1033,0.0,3.381,3.1286,3.1977,3.2322,3.1054,3.0898,3.0547,2.9648,2.9626,2.9394,2.8945,2.8965,2.9004,2.9004,2.9189,2.9103,2.869,2.7236,2.4961,2.173,2.173,2.1758,2.183,2.2053,2.314,2.4838,2.3339,2.343,2.4711,2.4359,2.4274,2.445,2.4402,2.4503,2.4853,2.6244,2.5955,2.5028,2.788,2.8163,2.7293,2.8521,2.9215,2.9512,2.9121,2.9004,2.9082,2.9512,2.9902,3.0215,3.0273,3.0586,3.0898,3.0898,3.0898,3.0898,3.0898,3.0898,3.0898,3.0898,3.0898,3.0898,3.0898,3.0898,3.0898,3.0898,3.0898,3.0898,3.0898,3.0898,3.0898,3.0898,3.0898,3.0898,3.0898,3.0898,3.0898,3.0898,3.0898,3.0898,3.0898,3.0898,3.0898,3.0898,3.0898,3.0898,3.0898,3.0898,3.0898,3.0898,3.2207,3.2642,3.2358,3.4151,3.5554,3.1387,3.1562,3.1719,3.207,3.1836,3.1387,3.0879,3.0215,0.0,0.0,2.875,2.875,2.9531,2.9892,3.026,3.082,0.0,0.0,0.0,0.0,3.117,0.0,0.0,0.0,0.0,0.0,0.0,0.0,2.9258,2.9453,2.9453,2.8239,2.6376,2.3815,2.3476,2.232,2.0201,2.0201,2.0078,1.9891,2.0392,2.0786,2.1143,2.1362,2.1581,2.1804,2.1499,0.0,2.3203,2.299,2.3579,2.4736,2.5028,2.497,2.4795,2.5377,2.6186,2.695,2.5898,2.735,2.9607,2.9492,2.9453,2.9531,2.9961,3.0137,3.0273,3.0664,3.082,3.0898,3.0898,3.0898,3.0898,3.0898,3.0898,3.0898,3.0898,3.0898,3.0898,3.0898,3.0898,3.0898,3.0898,3.0898,3.0898,3.0898,3.0898,3.0898,3.0898,3.0898,3.0898,3.0898,3.0898,3.0898,3.0898,3.0898,3.0898,3.0898,3.0898,3.0898,3.0898,3.0898,3.0898,3.0898,3.0898,3.0898,3.0898,3.117,3.1842,3.2952,3.3318,3.4248,3.1133,3.1191,3.1289,3.1719,3.1504,3.1016,3.0351,0.0,0.0,0.0,2.8437,2.8476,2.9121,0.0,0.0,0.0,0.0,0.0,0.0,0.0,0.0,0.0,0.0,0.0,0.0,0.0,0.0,2.9277,2.9453,2.9668,2.9883,2.857,2.6321,2.3171,2.305,2.2086,2.0027,2.0027,1.988,1.9599,2.0027,2.0307,2.0481,2.0909,2.1109,2.1096,2.0962,2.1333,2.1928,2.1835,2.2194,2.2898,2.3808,2.3566,2.302,2.4755,2.5353,2.5294,2.5353,2.6953,2.8989,2.8989,2.9432,2.998,3.043,3.0547,3.0605,3.082,3.0898,3.0898,3.0898,3.0898,3.0898,3.0898,3.0898,3.0898,3.0898,3.0898,3.0898,3.0898,3.0898,3.0898,3.0898,3.0898,3.0898,3.0898,3.0898,3.0898,3.0898,3.0898,3.0898,3.0898,3.0898,3.0898,3.0898,3.0898,3.0898,3.0898,3.0898,3.0898,3.0898,3.0898,3.0898,3.0898,3.0898,3.0898,3.0898,3.0898,3.1286,3.1977,3.1977,3.2758,3.0859,3.0898,3.0976,3.1309,3.1133,3.0664,2.9822,2.9626,0.0,0.0,2.8301,2.8418,2.8848,0.0,0.0,0.0,0.0,0.0,0.0,0.0,0.0,0.0,0.0,0.0,0.0,0.0,0.0,2.9687,2.9503,2.9336,2.9296,2.8423,2.6409,2.3139,2.3076,2.2167,2.0241,2.0167,2.0094,1.98,2.0094,2.0388,2.0681,2.0975,2.1109,2.1109,2.1109,2.1109,2.1109,2.1109,2.1109,2.1235,2.2529,2.2278,2.1411,2.3977,2.4409,2.376,2.4655,2.647,2.8289,2.7572,2.8741,3.041,3.0781,3.0898,3.0898,3.0898,3.0898,3.0898,3.0898,3.0898,3.0898,3.0898,3.0898,3.0898,3.0898,3.0898,3.0898,3.0898,3.0898,3.0898,3.0898,3.0898,3.0898,3.0898,3.0898,3.0898,3.0898,3.0898,3.0898,3.0898,3.0898,3.0898,3.0898,3.0898,3.0898,3.0898,3.0898,3.0898,3.0898,3.0898,3.0898,3.0898,3.0898,3.0898,3.0898,3.0898,3.0898,3.0898,3.0898,3.1498,3.0781,3.0898,3.0898,3.0937,3.0918,3.0664,2.9822,0.0,0.0,2.8476,2.8301,2.8418,2.8848,0.0,0.0,0.0,0.0,0.0,0.0,0.0,0.0,0.0,0.0,0.0,0.0,0.0,0.0,3.0117,2.9117,2.7902,2.648,2.6254,2.4701,2.1411,2.1362,2.0953,2.0241,2.0167,2.0094,1.98,2.0094,2.0388,2.0681,2.0975,2.1109,2.1109,2.1109,2.1109,0.0,2.1109,2.1109,2.1109,2.1299,2.1235,2.1172,2.1411,2.2404,2.3387,2.2027,2.4594,2.7931,2.4962,2.7134,3.084,3.0879,3.0898,3.0898,3.0898,3.0898,3.0898,3.0898,3.0898,3.0898,3.0898,3.0898,3.0898,3.0898,3.0898,3.0898,3.0898,3.0898,3.0898,3.0898,3.0898,3.0898,3.0898,3.0898,3.0898,3.0898,3.0898,3.0898,3.0898,3.0898,3.0898,3.0898,3.0898,3.0898,3.0898,3.0898,3.0898,3.0898,3.0898,3.0898,3.0898,3.0898,3.0898,3.0898,3.0898,3.0898,3.0898,3.0898,3.0937,3.0117,3.0488,3.0898,3.0898,3.0898,3.0664,2.9822,0.0,0.0,2.8476,2.8301,2.834,2.8516,2.9101,0.0,0.0,0.0,0.0,0.0,0.0,0.0,0.0,0.0,0.0,0.0,0.0,2.9602,2.8836,2.8546,2.7271,2.4717,2.4532,2.3497,2.1172,2.1109,2.0828,2.0241,2.0414,2.0347,2.0067,2.0361,2.0655,2.0935,2.1056,2.1109,2.1109,2.1109,2.1109,0.0,2.1109,2.1109,2.1109,2.1109,2.1109,2.1109,2.1109,2.1538,2.1964,2.1362,2.3014,2.5269,2.3993,2.5574,2.8128,2.9098,2.9412,2.9589,3.0645,3.0898,3.0898,3.0898,3.1074,3.1328,3.1601,3.166,3.166,3.166,3.166,3.166,3.166,3.166,3.166,3.166,3.166,3.166,3.166,3.1445,3.1269,3.1269,3.1055,3.0898,3.0898,3.0898,3.0898,3.0898,3.0898,3.0898,3.0898,3.0898,3.0898,3.0898,3.0898,3.0898,3.0898,3.0898,3.0898,3.0898,3.0898,3.0898,3.0898,3.0898,3.0898,2.9726,3.0215,3.0723,3.0859,3.0781,3.0488,0.0,0.0,0.0,2.8437,2.8301,2.8301,2.8301,2.8887,2.9414,0.0,0.0,0.0,0.0,0.0,0.0,0.0,0.0,0.0,0.0,3.0046,2.8967,2.7188,2.6986,2.5757,2.3014,2.2841,2.2341,2.1172,2.1109,2.0869,2.0374,2.0575,2.0575,2.0361,2.0575,2.0828,2.1109,2.1109,2.1109,2.1109,2.1109,2.1109,0.0,2.1109,2.1109,2.1109,2.1109,2.1109,2.1109,2.1109,2.1109,2.1109,2.1109,2.2215,2.3512,2.3014,2.3993,2.5497,2.6668,2.7632,2.8724,3.045,3.0976,3.1113,3.123,3.1484,3.1797,3.209,3.2229,3.2229,3.2229,3.2229,3.2229,3.2229,3.2229,3.2229,3.2229,3.2229,3.2229,3.2229,3.1914,3.166,3.1543,3.1269,3.1035,3.0898,3.0898,3.0898,3.0898,3.0898,3.0898,3.0898,3.0898,3.0898,3.0898,3.0898,3.0898,3.0898,3.0898,3.0898,3.0898,3.0898,3.0898,3.0898,3.0898,3.0898,2.9844,3.0195,3.0312,3.0781,3.0547,3.0098,0.0,0.0,0.0,2.8379,2.8301,2.8301,2.8301,2.8633,2.9062,0.0,0.0,0.0,0.0,0.0,0.0,0.0,0.0,0.0,0.0,2.9636,2.7575,2.5456,2.4284,0.0,2.1235,2.1109,2.1109,2.1109,2.1109,2.0962,2.0681,2.0681,2.0681,2.0668,2.0681,2.0828,2.1109,2.1109,2.1109,2.1109,2.1109,2.1109,0.0,2.1109,2.1109,2.1109,2.1109,2.1109,2.1109,2.1109,2.1109,2.1109,2.1109,2.2215,2.3325,2.1664,2.2278,2.3636,2.3636,2.5879,2.8724,3.045,3.1191,3.1621,3.2051,3.2209,3.2168,3.2229,3.2229,3.2229,3.2229,3.2229,3.2229,3.2229,3.2229,3.2229,3.2229,3.2229,3.2229,3.2229,3.2229,3.2012,3.1562,3.1504,3.1348,3.0937,3.0898,3.0898,3.0898,3.0898,3.0898,3.0898,3.0898,3.0898,3.0898,3.0898,3.0898,3.0898,3.0898,3.0898,3.0898,3.0898,3.0898,3.0898,3.0898,3.0898,2.9141,2.9531,2.9805,2.9941,2.9883,2.9648,2.9219,0.0,0.0,2.8379,2.8301,2.8301,2.8301,2.8633,2.9062,2.9492,0.0,0.0,0.0,0.0,0.0,0.0,0.0,0.0,0.0,0.0,2.7699,2.594,2.4409,2.2904,2.1172,2.1109,2.1109,2.1109,2.1109,2.0962,2.0681,2.0869,2.0869,2.0681,2.0882,2.1015,2.1109,2.1109,2.1109,2.1109,2.1109,2.1109,2.1109,2.1109,2.1109,2.1109,2.1109,2.1109,2.1109,2.1109,2.1109,2.1109,2.1109,2.1475,2.179,2.1299,2.1475,2.2132,2.3466,2.4578,2.6042,2.9087,3.091,3.207,3.248,3.2598,3.2676,3.2949,3.3027,3.3027,3.3027,3.3027,3.3027,3.3027,3.3027,3.3027,3.3027,3.3027,3.3027,3.3027,3.2773,3.2559,3.2402,3.1875,3.1465,3.1328,3.1055,3.0898,3.0898,3.0898,3.0898,3.0898,3.0898,3.0898,3.0898,3.0898,3.0898,3.0898,3.0898,3.0898,3.0898,3.0898,3.0898,3.0898,3.0898,3.0898,0.0,2.9004,2.916,2.9548,2.9316,2.9062,0.0,0.0,0.0,0.0,0.0,2.8574,2.875,2.8848,2.9121,2.9707,2.9902,0.0,0.0,0.0,0.0,0.0,0.0,0.0,0.0,2.8037,2.6183,2.5208,2.3559,2.2215,2.1172,2.1109,2.1109,2.1109,2.1109,2.1029,2.0842,2.1015,2.1015,2.0842,2.1029,2.1109,2.1109,2.1109,2.1109,2.1109,2.1109,2.1109,0.0,2.1109,2.1109,2.1109,2.1109,2.1109,2.1109,2.1109,2.1109,2.1109,2.1109,2.1109,2.1109,2.1109,2.1189,2.1541,2.2956,2.4208,2.5755,2.8895,3.0599,3.166,3.2723,3.3027,3.3105,3.3359,3.3418,3.3418,3.3418,3.3418,3.3418,3.3418,3.3418,3.3418,3.3418,3.3418,3.3418,3.3418,3.3203,3.2969,3.2812,3.2187,3.1699,3.1543,3.1133,3.0898,3.0898,3.0898,3.0898,3.0898,3.0898,3.0898,3.0898,3.0898,3.0898,3.0898,3.0898,3.0898,3.0898,3.0898,3.0898,3.0898,3.0898,3.0898,0.0,2.8574,2.8437,2.9277,2.8887,2.8398,2.8789,0.0,0.0,0.0,0.0,0.0,0.0,2.918,2.9199,3.0019,2.9844,0.0,0.0,0.0,0.0,0.0,0.0,0.0,2.8943,2.5662,2.3574,2.3574,2.2027,2.1109,2.1109,2.1109,2.1109,2.1109,2.1109,2.1109,2.1109,2.1109,2.1109,2.1109,2.1109,2.1109,2.1109,2.1109,2.1109,0.0,2.1109,2.1109,2.1109,2.1109,2.1109,2.1109,2.1109,2.1109,2.1109,2.1109,2.1109,2.1109,2.1109,2.1109,2.1109,2.1136,2.1349,2.1775,2.2258,2.4437,2.7206,2.9425,3.0167,3.0701,3.2859,3.3418,3.3418,3.3418,3.3418,3.3418,3.3418,3.3418,3.3418,3.3418,3.3418,3.3418,3.3418,3.3418,3.3418,3.3418,3.3418,3.3281,3.2891,3.248,3.2051,3.1621,3.1191,3.0918,3.0898,3.0898,3.0898,3.0898,3.0898,3.0898,3.0898,3.0898,3.0898,3.0898,3.0898,3.0898,3.0898,3.0898,3.0898,3.0898,3.0898,3.0898,2.8144,0.0,2.793,2.8457,2.8437,2.832,0.0,0.0,0.0,0.0,0.0,0.0,0.0,0.0,0.0,0.0,0.0,0.0,0.0,0.0,0.0,0.0,0.0,2.8179,2.7114,2.4921,2.3574,2.3574,2.2027,2.1109,2.1109,2.1109,2.1109,2.1109,2.1109,2.1109,2.1109,2.1109,2.1109,2.1109,2.1109,2.1109,2.1109,2.1109,2.1109,2.1109,2.1109,2.1109,2.1109,2.1109,2.1109,2.1109,2.1109,2.1109,2.1109,2.1109,2.1109,2.1109,2.1109,2.1109,2.1149,2.1376,2.179,2.2245,2.2378,2.3871,2.5962,2.8063,2.9595,3.1048,3.2936,3.3418,3.3418,3.3418,3.3418,3.3418,3.3418,3.3418,3.3418,3.3418,3.3418,3.3418,3.3418,3.3418,3.3418,3.3418,3.3418,3.3379,3.3281,3.291,3.248,3.207,3.1621,3.123,3.0918,3.0898,3.0898,3.0898,3.0898,3.0898,3.0898,3.0898,3.0898,3.0898,3.0898,3.0898,3.0898,3.0898,3.0898,3.0898,3.0898,3.0898,2.8066,2.7988,2.7826,2.8184,2.8144,2.8047,2.8242,0.0,0.0,0.0,0.0,0.0,0.0,0.0,0.0,0.0,3.0059,0.0,0.0,0.0,0.0,0.0,0.0,2.6922,0.0,2.3476,2.2466,2.2466,2.1601,2.1109,2.1109,2.1109,2.1109,2.1109,2.1109,2.1109,2.1109,2.1109,2.1109,2.1109,2.1109,2.1109,2.1109,2.1109,2.1109,2.1109,2.1109,2.1109,2.1109,2.1109,2.1109,2.1109,2.1109,2.1109,2.1109,2.1109,2.1109,2.1122,2.1269,2.1403,2.1563,2.1857,2.2164,2.2445,2.2579,2.3281,2.4506,2.6393,2.8229,2.9995,3.1771,3.2829,3.3418,3.3418,3.3418,3.3418,3.3418,3.3418,3.3418,3.3418,3.3418,3.3418,3.3418,3.3418,3.3418,3.3418,3.3418,3.3418,3.3418,3.3066,3.2715,3.248,3.1894,3.1426,3.1191,3.0996,3.0898,3.0898,3.0898,3.0898,3.0898,3.0898,3.0898,3.0898,3.0898,3.0898,3.0898,3.0898,3.0898,3.0898,3.0898,3.0898,2.7871,2.793,2.7904,2.8281,2.8066,2.7924,2.8301,0.0,0.0,0.0,0.0,0.0,0.0,0.0,0.0,0.0,0.0,0.0,0.0,0.0,0.0,0.0,0.0,0.0,2.3491,2.1943,2.1109,2.1109,2.1109,2.1109,2.1109,2.1109,2.1109,2.1109,2.1109,2.1109,2.1109,2.1109,2.1109,2.1109,2.1109,2.1109,2.1109,2.1109,2.1109,2.1109,2.1109,0.0,2.1109,2.1109,2.1109,2.1109,2.1109,2.1109,2.1109,2.1109,2.1136,2.1216,2.1574,2.1804,2.2098,2.2338,2.2445,2.2539,2.2779,2.2928,2.3201,2.4723,2.6573,2.8624,3.0319,3.2091,3.3418,3.3418,3.3418,3.3418,3.3418,3.3418,3.3418,3.3418,3.3418,3.3418,3.3418,3.3418,3.3418,3.3418,3.3418,3.3418,3.3418,3.3105,3.2871,3.2793,3.209,3.1582,3.1523,3.1133,3.0898,3.0898,3.0898,3.0898,3.0898,3.0898,3.0898,3.0898,3.0898,3.0898,3.0898,3.0898,3.0898,3.0898,3.0898,3.0898,2.709,2.7695,2.8301,2.8711,2.8516,2.8301,0.0,0.0,0.0,0.0,0.0,0.0,0.0,0.0,0.0,0.0,0.0,0.0,0.0,0.0,0.0,0.0,0.0,2.4997,2.2148,2.1447,2.1109,2.1109,2.1109,2.1109,2.1109,2.1109,2.1109,2.1109,2.1109,2.1109,2.1109,2.1109,2.1109,2.1109,2.1109,2.1109,2.1109,2.1109,2.1109,2.1109,0.0,2.1109,2.1109,2.1109,2.1109,2.1109,2.1109,2.1109,2.1109,2.1109,2.1269,2.1588,2.1817,2.2111,2.2365,2.2405,2.2592,2.2806,2.2846,2.2928,2.2928,2.3188,2.5651,2.8624,3.0319,3.2091,3.3418,3.3418,3.3418,3.3418,3.3418,3.3418,3.3418,3.3418,3.3418,3.3418,3.3418,3.3418,3.3418,3.3418,3.3418,3.3418,3.3418,3.3359,3.3184,3.2832,3.2363,3.1914,3.1543,3.1133,3.0898,3.0898,3.0898,3.0898,3.0898,3.0898,3.0898,3.0898,3.0898,3.0898,3.0898,3.0898,3.0898,3.0898,3.0898,3.0898,2.6749,2.748,2.8164,2.9043,2.9121,0.0,0.0,0.0,0.0,0.0,0.0,0.0,0.0,0.0,0.0,0.0,0.0,0.0,0.0,0.0,2.8907,0.0,0.0,2.4064,2.1565,2.1189,2.1109,2.1109,2.1109,2.1109,2.1109,2.1109,2.1109,2.1109,2.1109,2.1109,2.1109,2.1109,2.1109,2.1109,2.1109,2.1109,2.1109,2.1109,2.1109,2.1109,0.0,2.1109,2.1109,2.1109,2.1109,2.1109,2.1109,2.1109,2.1122,2.1296,2.163,2.2044,2.2178,2.2418,2.2659,2.2659,2.2752,2.2928,2.2928,2.2928,2.2928,2.2928,2.4723,2.6906,2.7751,2.9977,3.2027,3.2027,3.2702,3.3418,3.3418,3.3418,3.3418,3.3418,3.3418,3.3418,3.3418,3.3418,3.3418,3.3418,3.3418,3.3418,3.3418,3.3418,3.334,3.3144,3.2754,3.2344,3.1914,3.1484,3.1133,3.0898,3.0898,3.0898,3.0898,3.0898,3.0898,3.0898,3.0898,3.0898,3.0898,3.0898,3.0898,3.0898,3.0898,3.0898,2.6365,2.7187,2.7982,0.0,0.0,0.0,0.0,0.0,0.0,0.0,0.0,0.0,0.0,0.0,0.0,0.0,0.0,0.0,2.9194,2.9252,2.8096,2.4595,2.4096,2.3277,2.1312,2.1109,2.1109,2.1109,2.1109,2.1109,2.1109,2.1109,2.1109,2.1109,2.1109,2.1109,2.1109,2.1109,2.1109,2.1109,2.1109,2.1109,2.1109,2.1109,2.1109,2.1109,2.1109,2.1109,2.1109,2.1109,2.1109,2.1122,2.1189,2.1256,2.1349,2.1643,2.2031,2.2432,2.2498,2.2672,2.2928,2.2928,2.2928,2.2928,2.2928,2.2928,2.2928,2.2928,2.3856,2.4979,2.5383,2.8147,3.0771,3.0771,3.2091,3.3418,3.3418,3.3418,3.3418,3.3418,3.3418,3.3418,3.3418,3.3418,3.3418,3.3418,3.3418,3.3418,3.3418,3.3418,3.3418,3.3418,3.3047,3.2617,3.2207,3.1758,3.1387,3.1055,3.0937,3.0898,3.0898,3.0898,3.0898,3.0898,3.0898,3.0898,3.0898,3.0898,3.0898,3.0898,3.0898,3.0898,2.5525,2.6738,2.7826,2.8262,0.0,0.0,0.0,0.0,0.0,0.0,0.0,0.0,0.0,0.0,0.0,0.0,0.0,3.0859,3.0762,0.0,2.7804,2.6045,2.4564,2.2981,2.1299,2.1109,2.1109,2.1109,2.1109,2.1109,2.1109,2.1109,2.1109,2.1109,2.1109,2.1109,2.1109,2.1109,2.1109,2.1109,2.1109,2.1109,2.1109,2.1109,2.1109,2.1109,2.1109,2.1109,2.1109,2.1109,2.1109,2.1136,2.1416,2.1748,2.1951,2.2245,2.2378,2.2458,2.2739,2.2914,2.2928,2.2928,2.2928,2.2928,2.2928,2.2928,2.2928,2.2928,2.2996,2.3461,2.5046,2.8147,3.0771,3.0771,3.2091,3.3418,3.3418,3.3418,3.3418,3.3418,3.3418,3.3418,3.3418,3.3418,3.3418,3.3418,3.3418,3.3418,3.3418,3.3418,3.3418,3.3418,3.3047,3.2617,3.2207,3.1758,3.1504,3.1465,3.1113,3.0898,3.0898,3.0898,3.0898,3.0898,3.0898,3.0898,3.0898,3.0898,3.0898,3.0898,3.0898,3.0898,2.5156,2.668,2.7885,2.8516,0.0,0.0,0.0,0.0,0.0,0.0,0.0,0.0,0.0,0.0,0.0,0.0,0.0,3.0898,3.0898,2.8605,2.6712,2.6045,2.3683,2.179,2.1172,2.1109,2.1109,2.1109,2.1109,2.1109,2.1109,2.1109,2.1109,2.1109,2.1109,2.1109,2.1109,2.1109,2.1109,2.1109,2.1109,2.1109,2.1109,2.1109,2.1109,2.1109,2.1109,2.1109,2.1109,2.1109,2.1216,2.1416,2.171,2.2004,2.2271,2.2378,2.2539,2.2712,2.2887,2.2928,2.2928,2.2928,2.2928,2.2928,2.2928,2.2928,2.2928,2.2928,2.2928,2.3065,2.3734,2.5704,2.7817,2.8952,3.0513,3.2091,3.3165,3.3418,3.3418,3.3418,3.3418,3.3418,3.3418,3.3418,3.3418,3.3418,3.3418,3.3418,3.3418,3.3418,3.3418,3.3418,3.3047,3.2734,3.2578,3.1914,3.1523,3.1523,3.1133,3.0898,3.0898,3.0898,3.0898,3.0898,3.0898,3.0898,3.0898,3.0898,3.0898,3.0898,3.0898,3.0898,2.4566,2.6288,0.0,0.0,0.0,0.0,0.0,0.0,0.0,0.0,0.0,0.0,0.0,0.0,0.0,0.0,3.1074,3.0898,3.0898,2.8068,2.5984,2.5984,2.3124,2.1109,2.1109,2.1109,2.1109,2.1109,2.1109,2.1109,2.1109,2.1109,2.1109,2.1109,2.1109,2.1109,2.1109,2.1109,2.1109,2.1109,2.1109,2.1109,2.1109,2.1109,2.1109,2.1109,2.1109,2.1109,2.1122,2.1203,2.147,2.1844,2.2044,2.2298,2.2565,2.2565,2.2686,2.2928,2.2928,2.2928,2.2928,2.2928,2.2928,2.2928,2.2928,2.2928,2.2928,2.2928,2.2928,2.2928,2.2928,2.4181,2.5771,2.7039,2.9148,3.1111,3.2301,3.3019,3.3418,3.3418,3.3418,3.3418,3.3418,3.3418,3.3418,3.3418,3.3418,3.3418,3.3418,3.3418,3.3418,3.3418,3.3164,3.2988,3.2988,3.2344,3.1875,3.1738,3.1328,3.1035,3.0898,3.0898,3.0898,3.0898,3.0898,3.0898,3.0898,3.0898,3.0898,3.0898,3.0898,3.0898,2.365,2.5504,0.0,0.0,0.0,0.0,0.0,0.0,0.0,0.0,0.0,0.0,0.0,0.0,0.0,0.0,3.0898,3.0898,3.0898,2.8068,2.5984,2.5984,2.3062,2.1109,2.1109,2.1109,2.1109,2.1109,2.1109,2.1109,2.1109,2.1109,2.1109,2.1109,2.1109,2.1109,2.1109,2.1109,2.1109,2.1109,2.1109,2.1109,2.1109,2.1109,2.1109,2.1109,2.1109,2.1109,2.1136,2.1443,2.1897,2.2418,2.2418,2.2605,2.2928,2.2928,2.2928,2.2928,2.2928,2.2928,2.2928,2.2928,2.2928,2.2928,2.2928,2.2928,2.2928,2.2928,2.2928,2.2928,2.2928,2.4196,2.545,2.5517,2.8213,3.0771,3.0771,3.2155,3.3355,3.3418,3.3418,3.3418,3.3418,3.3418,3.3418,3.3418,3.3418,3.3418,3.3418,3.3418,3.3418,3.3418,3.3418,3.3418,3.3418,3.3027,3.2617,3.2207,3.1758,3.1328,3.0918,3.0898,3.0898,3.0898,3.0898,3.0898,3.0898,3.0898,3.0898,3.0898,3.0898,3.0898,2.442,2.6621,0.0,0.0,0.0,0.0,0.0,0.0,0.0,0.0,0.0,0.0,0.0,0.0,0.0,3.2148,3.1719,3.0953,2.9781,2.7548,2.5558,2.4486,2.2404,2.1109,2.1109,2.1109,2.1109,2.1109,2.1109,2.1109,2.1109,2.1109,2.1109,2.1109,2.1109,2.1109,2.1109,2.1109,2.1109,2.1109,2.1109,2.1109,2.1109,2.1109,2.1109,2.1109,2.1109,2.1229,2.1456,2.1951,2.2258,2.2445,2.2645,2.2779,2.2928,2.2928,2.2928,2.2928,2.2928,2.2928,2.2928,2.2928,2.2928,2.2928,2.2928,2.2928,2.2928,2.2928,2.2928,2.2928,2.2928,2.3256,2.3992,2.5181,2.6306,2.7751,3.0236,3.124,3.1899,3.3165,3.3418,3.3418,3.3418,3.3418,3.3418,3.3418,3.3418,3.3418,3.3418,3.3418,3.3418,3.3418,3.3418,3.3418,3.3418,3.3027,3.2734,3.2617,3.1914,3.1328,3.0918,3.0898,3.0898,3.0898,3.0898,3.0898,3.0898,3.0898,3.0898,3.0898,3.0898,3.0898,2.3199,0.0,0.0,0.0,0.0,0.0,0.0,0.0,0.0,0.0,0.0,0.0,0.0,0.0,0.0,3.25,3.2109,3.1139,2.9343,2.7452,2.5598,2.3837,2.209,2.1109,2.1109,2.1109,2.1109,2.1109,2.1109,2.1109,2.1109,2.1109,2.1109,2.1109,2.1109,2.1109,2.1109,2.1109,2.1109,2.1109,2.1109,2.1109,2.1109,2.1109,2.1109,2.1122,2.1229,2.151,2.1924,2.2271,2.2485,2.2605,2.2792,2.2928,2.2928,2.2928,2.2928,2.2928,2.2928,2.2928,2.2928,2.2928,2.2928,2.2928,2.2928,2.2928,2.2928,2.2928,2.2928,2.2928,2.2928,2.2928,2.3133,2.4196,2.4979,2.6105,2.8213,2.9782,3.1111,3.2155,3.2956,3.3418,3.3418,3.3418,3.3418,3.3418,3.3418,3.3418,3.3418,3.3418,3.3418,3.3418,3.3418,3.3418,3.3418,3.3184,3.2969,3.2812,3.2148,3.1582,3.1152,3.0976,3.0898,3.0898,3.0898,3.0898,3.0898,3.0898,3.0898,3.0898,3.0898,3.0898,2.0962,0.0,0.0,0.0,0.0,0.0,0.0,0.0,0.0,0.0,0.0,0.0,0.0,0.0,3.2676,3.2344,3.2307,3.1504,2.9489,2.771,2.5872,2.3897,2.2104,2.1109,2.1109,2.1109,2.1109,2.1109,2.1109,2.1109,2.1109,2.1109,2.1109,2.1109,2.1109,2.1109,2.1109,2.1109,2.1109,2.1109,2.1136,2.1149,2.1149,2.1122,2.1122,2.1162,2.1496,2.1937,2.2418,2.2445,2.2619,2.2928,2.2928,2.2928,2.2928,2.2928,2.2928,2.2928,2.2928,2.2928,2.2928,2.2928,2.2928,2.2928,2.2928,2.2928,2.2928,2.2928,2.2928,2.2928,2.2928,2.2928,2.2928,2.2928,2.4128,2.5315,2.545,2.8015,3.0384,3.0513,3.1963,3.3165,3.3165,3.3292,3.3418,3.3418,3.3418,3.3418,3.3418,3.3418,3.3418,3.3418,3.3418,3.3418,3.3418,3.3418,3.3262,3.2871,3.2461,3.2031,3.1601,3.1133,3.0898,3.0898,3.0898,3.0898,3.0898,3.0898,3.0898,3.0898,3.0898,3.0898,0.0,0.0,0.0,0.0,0.0,0.0,0.0,0.0,0.0,0.0,0.0,0.0,0.0,3.2676,3.2871,3.3105,3.2871,3.2042,3.0336,2.8099,2.5953,2.4263,2.2293,2.1109,2.1109,2.1109,2.1109,2.1109,2.1109,2.1109,2.1109,2.1109,2.1109,2.1109,2.1109,2.1109,2.1109,2.1109,2.1109,2.1109,2.1349,2.1521,2.1443,2.1216,2.1229,2.1547,2.2004,2.2298,2.2432,2.2672,2.2806,2.2928,2.2928,2.2928,2.2928,2.2928,2.2928,2.2928,2.2928,2.2928,2.2928,2.2928,2.2928,2.2928,2.2928,2.2928,2.2928,2.2928,2.2928,2.2928,2.2928,2.2928,2.2928,2.2928,2.3201,2.3856,2.5181,2.6105,2.7039,2.8492,3.0189,3.1368,3.1368,3.2492,3.3418,3.3418,3.3418,3.3418,3.3418,3.3418,3.3418,3.3418,3.3418,3.3418,3.3418,3.3418,3.3379,3.3301,3.2891,3.2461,3.2051,3.1289,3.0898,3.0898,3.0898,3.0898,3.0898,3.0898,3.0898,3.0898,3.0898,3.0898,0.0,0.0,0.0,0.0,0.0,0.0,0.0,0.0,0.0,0.0,0.0,0.0,3.2715,3.2969,3.3164,3.3379,3.3242,3.2175,2.945,2.7925,2.6104,2.3486,2.2062,2.1323,2.1323,2.1189,2.1109,2.1109,2.1109,2.1109,2.1109,2.1109,2.1109,2.1109,2.1109,2.1109,2.1109,2.1256,2.1323,2.1323,2.1617,2.1764,2.1815,2.1603,2.1697,2.1991,2.2285,2.2498,2.2645,2.2806,2.2928,2.2928,2.2928,2.2928,2.2928,2.2928,2.2928,2.2928,2.2928,2.2928,2.2928,2.2928,2.2928,2.2928,2.2928,2.2928,2.2928,2.2928,2.2928,2.2928,2.2928,2.2928,2.2928,2.2928,2.2928,2.3133,2.406,2.4911,2.5786,2.6706,2.9,3.0771,3.0771,3.2237,3.3418,3.3418,3.3418,3.3418,3.3418,3.3418,3.3418,3.3418,3.3418,3.3418,3.3418,3.3418,3.3418,3.3418,3.3027,3.2695,3.248,3.1641,3.1094,3.0898,3.0898,3.0898,3.0898,3.0898,3.0898,3.0898,3.0898,3.0898,0.0,0.0,0.0,0.0,0.0,0.0,0.0,0.0,0.0,0.0,0.0,3.2734,3.2871,3.3184,3.3418,3.3418,3.3418,3.2188,2.8721,2.791,2.6389,2.2845,2.1919,2.1601,2.1547,2.1256,2.1109,2.1109,2.1109,2.1109,2.1109,2.1109,2.1109,2.1109,2.1109,2.1136,2.1189,2.143,2.1641,2.1695,2.1924,2.2084,2.2138,2.2138,2.2245,2.2418,2.2472,2.2632,2.2928,2.2928,2.2928,2.2928,2.2928,2.2928,2.2928,2.2928,2.2928,2.2928,2.2928,2.2928,2.2928,2.2928,2.2928,2.2928,2.2928,2.2928,2.2928,2.2928,2.2928,2.2928,2.2928,2.2928,2.2928,2.2928,2.2928,2.2928,2.2928,2.406,2.5046,2.5046,2.7949,3.0448,3.0771,3.2237,3.3418,3.3418,3.3418,3.3418,3.3418,3.3418,3.3418,3.3418,3.3418,3.3418,3.3418,3.3418,3.3418,3.3418,3.3105,3.2871,3.2793,3.2051,3.1426,3.0996,3.0918,3.0898,3.0898,3.0898,3.0898,3.0898,3.0898,3.0898,0.0,0.0,0.0,0.0,0.0,0.0,0.0,0.0,0.0,0.0,3.1953,3.248,3.3203,3.3379,3.3418,3.3418,3.3418,3.2664,3.0635,2.8854,2.6842,2.4511,2.2683,2.1521,2.1189,2.1136,2.1109,2.1109,2.1109,2.1109,2.1109,2.1109,2.1109,2.1109,2.1109,2.1229,2.1561,2.1601,2.1748,2.1937,2.2218,2.2498,2.2807,2.2807,2.2632,2.2432,2.2699,2.2887,2.2928,2.2928,2.2928,2.2928,2.2928,2.2928,2.2928,2.2928,2.2928,2.2928,2.2928,2.2928,2.2928,2.2928,2.2928,2.2928,2.2928,2.2928,2.2928,2.2928,2.2928,2.2928,2.2928,2.2928,2.2928,2.2928,2.2928,2.2928,2.2928,2.3065,2.3256,2.3256,2.6121,2.9017,3.0513,3.2237,3.3418,3.3418,3.3418,3.3418,3.3418,3.3418,3.3418,3.3418,3.3418,3.3418,3.3418,3.3418,3.3418,3.3418,3.3379,3.3184,3.2812,3.2344,3.1875,3.1445,3.1074,3.0898,3.0898,3.0898,3.0898,3.0898,3.0898,3.0898,0.0,0.0,0.0,0.0,0.0,0.0,0.0,0.0,0.0,0.0,3.0339,3.0978,3.2723,3.3262,3.3418,3.3418,3.3418,3.2428,2.9735,2.837,2.6582,2.3728,2.2339,2.1561,2.1376,2.1203,2.1109,2.1109,2.1109,2.1109,2.1109,2.1109,2.1189,2.1349,2.1363,2.1496,2.179,2.1951,2.2191,2.2485,2.2605,2.2739,2.2928,2.2928,2.2792,2.2672,2.2806,2.2928,2.2928,2.2928,2.2928,2.2928,2.2928,2.2928,2.2928,2.2928,2.2928,2.2928,2.2928,2.2928,2.2928,2.2928,2.2928,2.2928,2.2928,2.2928,2.2928,2.2928,2.2928,2.2928,2.2928,2.2928,2.2928,2.2928,2.2928,2.2928,2.2928,2.2928,2.3201,2.4196,2.5651,2.7238,2.9017,3.0789,3.1963,3.1963,3.2765,3.3418,3.3418,3.3418,3.3418,3.3418,3.3418,3.3418,3.3418,3.3418,3.3418,3.3418,3.3418,3.334,3.3144,3.2734,3.2324,3.1894,3.123,3.0898,3.0898,3.0898,3.0898,3.0898,3.0898,3.0898,0.0,0.0,0.0,0.0,0.0,0.0,0.0,0.0,0.0,0.0,2.8749,2.969,3.1508,3.2642,3.3301,3.3398,3.3418,3.2136,2.8572,2.7865,2.6322,2.267,2.1817,2.1588,2.1507,2.1243,2.1109,2.1109,2.1109,2.1109,2.1109,2.1176,2.1323,2.1614,2.1695,2.1804,2.2098,2.2378,2.2645,2.2928,2.2928,2.2928,2.2928,2.2928,2.2928,2.2928,2.2928,2.2928,2.2928,2.2928,2.2928,2.2941,2.2953,2.2979,2.2993,2.306,2.3169,2.3169,2.3169,2.3169,2.3169,2.3169,2.3169,2.3086,2.3006,2.2979,2.2966,2.2954,2.2928,2.2928,2.2928,2.2928,2.2928,2.2928,2.2928,2.2928,2.2928,2.2928,2.3256,2.4588,2.5181,2.5905,2.7304,2.9327,3.0771,3.0771,3.2301,3.3418,3.3418,3.3418,3.3418,3.3418,3.3418,3.3418,3.3418,3.3418,3.3418,3.3418,3.3418,3.3418,3.3418,3.3008,3.2598,3.2229,3.1426,3.0996,3.0898,3.0898,3.0898,3.0898,3.0898,3.0898,0.0,0.0,0.0,0.0,0.0,0.0,0.0,0.0,0.0,0.0,2.7705,2.9143,2.9258,3.1247,3.2969,3.3359,3.3418,3.2105,2.8283,2.77,2.6213,2.2097,2.1641,2.1507,2.1162,2.1122,2.1109,2.1109,2.1109,2.1109,2.1109,2.1376,2.1601,2.1614,2.1817,2.2098,2.2392,2.2699,2.2846,2.2928,2.2928,2.2928,2.2928,2.2928,2.2928,2.2928,2.2928,2.2928,2.2928,2.2928,2.2928,2.2954,2.3193,2.33,2.334,2.3621,2.3728,2.3728,2.3728,2.3728,2.3728,2.3728,2.3728,2.3674,2.3394,2.33,2.3247,2.2939,2.2928,2.2928,2.2928,2.2928,2.2928,2.2928,2.2928,2.2928,2.2928,2.2928,2.2928,2.2996,2.4385,2.5517,2.5636,2.8541,3.0771,3.0771,3.2301,3.3418,3.3418,3.3418,3.3418,3.3418,3.3418,3.3418,3.3418,3.3418,3.3418,3.3418,3.3418,3.3418,3.3418,3.3008,3.2598,3.2229,3.1719,3.1289,3.0898,3.0898,3.0898,3.0898,3.0898,3.0898,0.0,0.0,0.0,0.0,0.0,0.0,0.0,0.0,0.0,0.0,2.4915,2.5957,2.7282,3.0414,3.2851,3.2988,3.3008,3.1785,2.8216,2.7286,2.5644,0.0,0.0,0.0,0.0,0.0,2.1109,2.1109,2.1109,2.1109,2.1109,2.139,2.1708,2.1817,2.2111,2.2405,2.2699,2.2806,2.2928,2.2928,2.2928,2.2928,2.2928,2.2928,2.2966,2.3153,2.3153,2.3153,2.3153,2.3153,2.3273,2.346,2.3567,2.3607,2.3621,2.3728,2.3768,2.3768,2.3768,2.3768,2.3768,2.3768,2.3768,2.3754,2.3647,2.3607,2.3554,2.3247,2.3153,2.3113,2.2913,2.2928,2.2928,2.2928,2.2928,2.2928,2.2928,2.2928,2.2928,2.2928,2.3393,2.3856,2.3856,2.6773,2.9148,2.9148,3.1579,3.3418,3.3418,3.3418,3.3418,3.3418,3.3418,3.3418,3.3418,3.3418,3.3418,3.3418,3.3418,3.3418,3.3418,3.3281,3.3008,3.2578,3.2148,3.1582,3.0898,3.0898,3.0898,3.0898,3.0898,3.0898,0.0,0.0,0.0,0.0,0.0,0.0,0.0,0.0,0.0,0.0,2.3142,2.4128,2.5342,2.8402,3.0742,3.0953,3.1539,0.0,0.0,0.0,0.0,0.0,0.0,0.0,0.0,0.0,0.0,0.0,2.1109,0.0,2.1256,2.1537,2.1884,2.2271,2.2458,2.2659,2.2928,2.2928,2.2928,2.2928,2.2928,2.2928,2.2928,2.2966,2.3126,2.334,2.3434,2.3474,2.3474,2.3474,2.3594,2.3781,2.3875,2.3915,2.3928,2.4022,2.4062,2.4062,2.4062,2.4062,2.4062,2.4062,2.4062,2.4048,2.3941,2.3915,2.3861,2.3554,2.3474,2.3407,2.31,2.2939,2.2928,2.2928,2.2928,2.2928,2.2928,2.2928,2.2928,2.2928,2.2928,2.2928,2.2928,2.5315,2.7503,2.8098,3.066,3.2765,3.3355,3.3418,3.3418,3.3418,3.3418,3.3418,3.3418,3.3418,3.3418,3.3418,3.3418,3.3418,3.3418,3.3418,3.3223,3.2793,3.2519,3.1953,3.1094,3.0957,3.0898,3.0898,3.0898,3.0898,0.0,0.0,0.0,0.0,0.0,0.0,0.0,0.0,0.0,0.0,2.2567,2.3821,2.3601,2.5217,2.6678,0.0,0.0,0.0,0.0,0.0,0.0,0.0,0.0,0.0,0.0,0.0,0.0,0.0,2.1122,2.1256,2.1601,2.1844,2.2258,2.2914,2.2928,2.2928,2.2928,2.2928,2.2928,2.2928,2.2941,2.2873,2.2886,2.3193,2.334,2.3367,2.3661,2.3794,2.3794,2.3794,2.3794,2.3821,2.4102,2.4222,2.4249,2.4529,2.4636,2.4636,2.4636,2.4636,2.4636,2.4636,2.4636,2.4583,2.4302,2.4222,2.4155,2.3861,2.3781,2.3714,2.3407,2.31,2.2941,2.2928,2.2928,2.2928,2.2928,2.2928,2.2928,2.2928,2.2928,2.2928,2.2928,2.4317,2.6105,2.7834,2.9605,3.1368,3.3082,3.3292,3.3355,3.3418,3.3418,3.3418,3.3418,3.3418,3.3418,3.3418,3.3418,3.3418,3.3418,3.3418,3.3223,3.2832,3.2793,3.2383,3.1562,3.1113,3.0898,3.0898,3.0898,3.0898,1.6321,0.0,0.0,0.0,0.0,0.0,0.0,0.0,0.0,0.0,2.1393,2.2024,2.2383,2.4157,0.0,0.0,0.0,0.0,0.0,0.0,0.0,0.0,0.0,0.0,0.0,0.0,0.0,0.0,2.1309,2.1534,2.1614,2.2031,2.2472,2.2914,2.2928,2.2928,2.2928,2.2928,2.2928,2.2928,2.3086,2.3193,2.3207,2.3514,2.3768,2.3968,2.4048,2.4209,2.4382,2.4168,2.4209,2.4409,2.4489,2.4516,2.4529,2.4609,2.4636,2.4636,2.4636,2.4636,2.4636,2.4636,2.4636,2.4623,2.4543,2.4516,2.4449,2.4168,2.4088,2.3968,2.346,2.326,2.314,2.2913,2.2928,2.2928,2.2928,2.2928,2.2928,2.2928,2.2928,2.2928,2.2928,2.4317,2.5651,2.6172,2.7768,2.954,3.1304,3.1497,3.2027,3.3292,3.3418,3.3418,3.3418,3.3418,3.3418,3.3418,3.3418,3.3418,3.3418,3.3418,3.3359,3.3242,3.2949,3.2676,3.2441,3.1699,3.1191,3.0898,3.0898,3.0898,0.0,0.0,0.0,0.0,0.0,0.0,0.0,0.0,0.0,0.0,0.0,2.1069,2.1537,0.0,0.0,0.0,0.0,0.0,0.0,0.0,0.0,0.0,0.0,0.0,0.0,2.1109,2.1109,2.1109,2.139,2.1722,2.1897,2.2352,2.2686,2.2859,2.2928,2.2928,2.2928,2.2928,2.2926,2.306,2.3247,2.3394,2.3527,2.3821,2.4048,2.4209,2.4329,2.4476,2.4623,2.4449,2.4489,2.4636,2.4636,2.4636,2.4636,2.4636,2.4636,2.4636,2.4636,2.4636,2.4636,2.4636,2.4636,2.4636,2.4636,2.4636,2.4596,2.4436,2.4302,2.4128,2.3781,2.3514,2.3287,2.31,2.2953,2.2928,2.2928,2.2928,2.2928,2.2928,2.2928,2.2928,2.2928,2.372,2.4655,2.5383,2.6373,2.7949,3.0448,3.0771,3.1497,3.3228,3.3418,3.3418,3.3418,3.3418,3.3418,3.3418,3.3418,3.3418,3.3418,3.3418,3.3418,3.3418,3.3184,3.2969,3.2793,3.1934,3.1309,3.0898,3.0898,3.0898,0.0,0.0,0.0,0.0,0.0,0.0,0.0,0.0,0.0,0.0,0.0,0.0,0.0,0.0,0.0,0.0,0.0,0.0,0.0,0.0,0.0,0.0,0.0,0.0,2.1109,2.1109,2.1109,2.1109,2.1416,2.1857,2.2432,2.2712,2.2928,2.2928,2.2928,2.2928,2.2928,2.2899,2.3046,2.3327,2.3394,2.3567,2.3834,2.4115,2.4249,2.4262,2.4529,2.4636,2.4636,2.4636,2.4636,2.4636,2.4636,2.4636,2.4636,2.4636,2.4636,2.4636,2.4636,2.4636,2.4636,2.4636,2.4636,2.4636,2.4636,2.4636,2.4636,2.4636,2.4449,2.4249,2.4209,2.3821,2.342,2.338,2.314,2.2913,2.2913,2.2886,2.2928,2.2928,2.2928,2.2928,2.2928,2.2928,2.3461,2.4979,2.521,2.6553,3.006,3.0549,3.1295,3.3228,3.3418,3.3418,3.3418,3.3418,3.3418,3.3418,3.3418,3.3418,3.3418,3.3418,3.3418,3.3418,3.3418,3.3223,3.2793,3.1992,3.1367,3.0957,3.0957,3.0937,0.0,0.0,0.0,0.0,0.0,0.0,0.0,0.0,0.0,0.0,0.0,0.0,0.0,0.0,0.0,0.0,0.0,0.0,0.0,0.0,0.0,0.0,0.0,0.0,2.1082,2.1109,2.1109,2.1109,2.1603,2.2151,2.2739,2.2832,2.2928,2.2928,2.2928,2.2928,2.2928,2.3113,2.326,2.334,2.3808,2.4062,2.4128,2.4422,2.4556,2.4556,2.4609,2.4636,2.4636,2.4636,2.4636,2.4636,2.4636,2.4636,2.4636,2.4636,2.4636,2.4636,2.4636,2.4636,2.4636,2.4636,2.4636,2.4636,2.4636,2.4636,2.4636,2.4636,2.4596,2.4502,2.4262,2.4115,2.3968,2.3741,2.346,2.3233,2.3233,2.3046,2.2928,2.2928,2.2928,2.2928,2.2928,2.2928,2.2996,2.3324,2.3612,2.4959,2.8262,2.8876,3.0149,3.3058,3.3418,3.3418,3.3418,3.3418,3.3418,3.3418,3.3418,3.3418,3.3418,3.3418,3.3418,3.3418,3.3418,3.3223,3.2793,3.2285,3.1816,3.1406,3.1406,3.1211,0.0,0.0,0.0,1.6321,0.0,0.0,0.0,0.0,0.0,0.0,0.0,0.0,0.0,0.0,0.0,0.0,0.0,0.0,0.0,0.0,0.0,0.0,0.0,0.0,2.1109,2.1109,2.1176,2.1323,2.1737,2.2178,2.2619,2.2779,2.2928,2.2928,2.2928,2.2939,2.3086,2.3247,2.3474,2.3768,2.4062,2.4275,2.4422,2.4569,2.4636,2.4636,2.4636,2.4636,2.4636,2.4636,2.4636,2.4636,2.4636,2.4636,2.4636,2.4636,2.4636,2.4636,2.4636,2.4636,2.4636,2.4636,2.4636,2.4636,2.4636,2.4636,2.4636,2.4636,2.4636,2.4609,2.4449,2.4315,2.4168,2.4022,2.3768,2.3514,2.3367,2.3207,2.3046,2.2954,2.2928,2.2928,2.2928,2.2928,2.2928,2.2928,2.2993,2.4311,2.7734,2.8329,2.9682,3.3038,3.3418,3.3418,3.3418,3.3418,3.3418,3.3418,3.3418,3.3418,3.3418,3.3418,3.3418,3.3418,3.3418,3.332,3.3105,3.2891,3.2461,3.1836,3.1621,3.1406,0.0,0.0,0.0,0.0,0.0,1.642,0.0,0.0,0.0,0.0,0.0,0.0,0.0,0.0,0.0,0.0,0.0,0.0,0.0,0.0,0.0,0.0,0.0,0.0,0.0,2.1216,2.1349,2.1601,2.1871,2.2164,2.2405,2.2699,2.2928,2.2928,2.2926,2.3073,2.3327,2.3447,2.3728,2.4209,2.4262,2.4409,2.4636,2.4636,2.4636,2.4636,2.4636,2.4636,2.4636,2.4636,2.4636,2.4636,2.4636,2.4636,2.4636,2.4636,2.4636,2.4636,2.4636,2.4636,2.4636,2.4636,2.4636,2.4636,2.4636,2.4636,2.4636,2.4636,2.4636,2.4636,2.4636,2.4462,2.4289,2.4289,2.4062,2.3781,2.3541,2.3407,2.3247,2.3006,2.2968,2.2954,2.2939,2.2899,2.2954,2.2939,2.2953,2.413,2.7254,2.7765,2.917,3.2511,3.2969,3.3116,3.3374,3.3418,3.3418,3.3418,3.3418,3.3418,3.3418,3.3418,3.3418,3.3418,3.3418,3.3418,3.3418,3.3418,3.3027,3.2285,3.1934,3.1719,0.0,0.0,0.0,0.0,1.666,0.0,0.0,0.0,0.0,1.6847,0.0,0.0,0.0,0.0,0.0,0.0,0.0,0.0,0.0,0.0,0.0,0.0,0.0,0.0,0.0,2.1577,2.179,2.1641,2.2058,2.2378,2.2418,2.2699,2.2928,2.2928,2.3126,2.3287,2.3327,2.3848,2.4142,2.4209,2.4462,2.4609,2.4636,2.4636,2.4636,2.4636,2.4636,2.4636,2.4636,2.4636,2.4636,2.4636,2.4636,2.4636,2.4636,2.4636,2.4636,2.4636,2.4636,2.4636,2.4636,2.4636,2.4636,2.4636,2.4636,2.4636,2.4636,2.4636,2.4636,2.4636,2.4636,2.4609,2.4583,2.4583,2.4369,2.4142,2.4115,2.3701,2.3313,2.3287,2.3046,2.2953,2.322,2.3046,2.2953,2.3233,2.3273,2.3846,2.5629,2.6299,2.7772,3.0779,3.1309,3.1967,3.3267,3.3418,3.3418,3.3418,3.3418,3.3418,3.3418,3.3418,3.3418,3.3418,3.3418,3.3418,3.3418,3.3418,3.3184,3.2715,3.2676,3.2441,0.0,0.0,0.0,0.0,0.0,0.0,1.7114,0.0,1.666,0.0,0.0,0.0,0.0,0.0,0.0,0.0,0.0,0.0,0.0,0.0,0.0,0.0,0.0,0.0,0.0,0.0,0.0,0.0,2.183,2.2098,2.1924,2.2525,2.2928,2.2928,2.3166,2.3407,2.3581,2.3995,2.4289,2.4449,2.4583,2.4636,2.4636,2.4636,2.4636,2.4636,2.4636,2.4636,2.4636,2.4636,2.4636,2.4636,2.4636,2.4636,2.4636,2.4636,2.4636,2.4636,2.4636,2.4636,2.4636,2.4636,2.4636,2.4636,2.4636,2.4636,2.4636,2.4636,2.4636,2.4636,2.4636,2.4636,2.4636,2.4636,2.4543,2.4409,2.4235,2.4142,2.3928,2.342,2.35,2.3581,2.3367,2.322,2.3113,2.306,2.3207,2.3818,2.5292,2.5921,2.7453,3.0775,3.1163,3.192,3.3681,3.3574,3.3418,3.3418,3.3418,3.3418,3.3418,3.3418,3.3418,3.3418,3.3418,3.3418,3.3418,3.3418,3.332,3.3144,3.291,3.2695,2.0267,0.0,0.0,0.0,0.0,0.0,0.0,0.0,0.0,0.0,0.0,0.0,0.0,0.0,0.0,0.0,0.0,0.0,0.0,0.0,0.0,0.0,0.0,0.0,0.0,0.0,0.0,0.0,0.0,2.1857,2.1628,2.2311,2.2779,2.2928,2.3247,2.3554,2.3768,2.4142,2.4422,2.4636,2.4636,2.4636,2.4636,2.4636,2.4636,2.4636,2.4636,2.4636,2.4636,2.4636,2.4636,2.4636,2.4636,2.4636,2.4636,2.4636,2.4636,2.4636,2.4636,2.4636,2.4636,2.4636,2.4636,2.4636,2.4636,2.4636,2.4636,2.4636,2.4636,2.4636,2.4636,2.4636,2.4636,2.4636,2.4636,2.4596,2.4476,2.4543,2.4476,2.3915,2.3955,2.3968,2.3621,2.3434,2.3273,2.314,2.3233,2.3747,2.4876,2.5342,2.6825,3.0278,3.0614,3.1522,3.3714,3.3613,3.3418,3.3418,3.3418,3.3418,3.3418,3.3418,3.3418,3.3418,3.3418,3.3418,3.3418,3.3418,3.3418,3.3418,3.3105,3.2969,0.0,0.0,0.0,2.014,0.0,0.0,0.0,0.0,1.7836,0.0,0.0,0.0,0.0,0.0,0.0,0.0,0.0,0.0,0.0,0.0,0.0,0.0,0.0,0.0,0.0,0.0,0.0,0.0,0.0,0.0,2.1628,2.2111,2.2565,2.2928,2.3447,2.3754,2.3768,2.4342,2.4623,2.4636,2.4636,2.4636,2.4636,2.4636,2.4636,2.4636,2.4636,2.4636,2.4636,2.4636,2.4636,2.4636,2.4636,2.4636,2.4636,2.4636,2.4636,2.4636,2.4636,2.4636,2.4636,2.4636,2.4636,2.4636,2.4636,2.4636,2.4636,2.4636,2.4636,2.4636,2.4636,2.4636,2.4636,2.4636,2.4636,2.4716,2.4997,2.4836,2.4716,2.497,2.4356,2.3875,2.4128,2.3701,2.342,2.3701,2.35,2.342,2.3772,2.4067,2.5413,2.837,2.8938,3.0286,3.3179,3.3437,3.3418,3.3418,3.3418,3.3418,3.3418,3.3418,3.3418,3.3418,3.3418,3.3418,3.3418,3.3418,3.3418,3.3418,3.3418,3.3398,2.2271,2.2271,2.2178,2.1777,0.0,0.0,0.0,0.0,0.0,0.0,0.0,0.0,0.0,0.0,0.0,0.0,0.0,0.0,0.0,0.0,0.0,0.0,0.0,0.0,0.0,0.0,0.0,0.0,0.0,0.0,0.0,2.1817,2.2352,2.2846,2.346,2.3768,2.3768,2.4342,2.4636,2.4636,2.4636,2.4636,2.4636,2.4636,2.4636,2.4636,2.4636,2.4636,2.4636,2.4636,2.4636,2.4636,2.4636,2.4636,2.4636,2.4636,2.4636,2.4636,2.4636,2.4636,2.4636,2.4636,2.4636,2.4636,2.4636,2.4636,2.4636,2.4636,2.4636,2.4636,2.4636,2.4636,2.469,2.489,2.493,2.501,2.5304,2.5438,2.5424,2.513,2.5157,2.4997,2.4315,2.4195,2.4102,2.3808,2.3848,2.3875,2.3781,2.4022,2.5024,2.7299,2.8686,3.0395,3.26,3.3448,3.373,3.3437,3.3418,3.3418,3.3418,3.3418,3.3418,3.3418,3.3418,3.3418,3.3418,3.3711,3.3711,3.3437,3.3711,3.3691,2.3166,2.326,2.3207,2.2699,2.2352,0.0,2.1056,0.0,1.9853,0.0,0.0,0.0,0.0,0.0,0.0,0.0,0.0,0.0,0.0,0.0,0.0,0.0,0.0,0.0,0.0,0.0,0.0,0.0,0.0,0.0,0.0,0.0,2.2151,2.2914,2.346,2.3768,2.3768,2.4342,2.4636,2.4636,2.4636,2.4636,2.4636,2.4636,2.4636,2.4636,2.4636,2.4636,2.4636,2.4636,2.4636,2.4636,2.4636,2.4636,2.4649,2.4756,2.4796,2.4783,2.4676,2.4636,2.4636,2.4636,2.4636,2.4636,2.4636,2.4636,2.4636,2.4636,2.4636,2.4636,2.4636,2.4636,2.469,2.4877,2.4997,2.5157,2.5451,2.5745,2.5879,2.5598,2.5678,2.5598,2.4943,2.4716,2.4476,2.3995,2.4088,2.4168,2.4088,2.4249,2.5305,2.7691,2.9013,3.0582,3.2869,3.3704,3.3887,3.3457,3.3418,3.3418,3.3418,3.3418,3.3418,3.3418,3.3418,3.3418,3.3418,3.3867,3.3926,3.3672,3.4101,3.4141]}]]